﻿<?xml version="1.0" encoding="UTF-8" standalone="no" ?>
<gpx xmlns="http://www.topografix.com/GPX/1/1" creator="CompeGPS" version="1.1" xmlns:xsi="http://www.w3.org/2001/XMLSchema-instance" xsi:schemaLocation="http://www.topografix.com/GPX/1/1 http://www.topografix.com/GPX/1/1/gpx.xsd">
  <metadata>
    <link href="http://www.compegps.com">
      <text>CompeGPS TEAM, SL</text>
    </link>
    <time>2019-01-13T21:46:03Z</time>
    <bounds maxlat="42.257070" maxlon="3.154790" minlat="41.845160" minlon="2.917770"/>
  </metadata>
  <trk>
    <name>ROAD02_96 CON WAYPOINTS</name>
    <trkseg>
      <trkpt lat="41.881406" lon="3.109434">
        <ele>95.0</ele>
        <time>2019-01-13T21:45:51Z</time>
      </trkpt>
      <trkpt lat="41.881345" lon="3.109484">
        <ele>96.0</ele>
        <time>2019-01-13T21:45:52Z</time>
      </trkpt>
      <trkpt lat="41.881224" lon="3.109584">
        <ele>96.0</ele>
        <time>2019-01-13T21:45:54Z</time>
      </trkpt>
      <trkpt lat="41.881080" lon="3.109590">
        <ele>95.0</ele>
        <time>2019-01-13T21:45:56Z</time>
      </trkpt>
      <trkpt lat="41.880959" lon="3.109621">
        <ele>95.0</ele>
        <time>2019-01-13T21:45:58Z</time>
      </trkpt>
      <trkpt lat="41.880824" lon="3.109609">
        <ele>95.0</ele>
        <time>2019-01-13T21:46:00Z</time>
      </trkpt>
      <trkpt lat="41.880694" lon="3.109584">
        <ele>95.0</ele>
        <time>2019-01-13T21:46:02Z</time>
      </trkpt>
      <trkpt lat="41.880582" lon="3.109540">
        <ele>94.0</ele>
        <time>2019-01-13T21:46:04Z</time>
      </trkpt>
      <trkpt lat="41.880475" lon="3.109478">
        <ele>94.0</ele>
        <time>2019-01-13T21:46:06Z</time>
      </trkpt>
      <trkpt lat="41.880349" lon="3.109503">
        <ele>94.0</ele>
        <time>2019-01-13T21:46:08Z</time>
      </trkpt>
      <trkpt lat="41.880252" lon="3.109571">
        <ele>93.0</ele>
        <time>2019-01-13T21:46:10Z</time>
      </trkpt>
      <trkpt lat="41.880135" lon="3.109609">
        <ele>92.0</ele>
        <time>2019-01-13T21:46:12Z</time>
      </trkpt>
      <trkpt lat="41.880005" lon="3.109628">
        <ele>92.0</ele>
        <time>2019-01-13T21:46:14Z</time>
      </trkpt>
      <trkpt lat="41.879870" lon="3.109615">
        <ele>91.0</ele>
        <time>2019-01-13T21:46:16Z</time>
      </trkpt>
      <trkpt lat="41.879744" lon="3.109640">
        <ele>90.0</ele>
        <time>2019-01-13T21:46:18Z</time>
      </trkpt>
      <trkpt lat="41.879693" lon="3.109765">
        <ele>90.0</ele>
        <time>2019-01-13T21:46:20Z</time>
      </trkpt>
      <trkpt lat="41.879651" lon="3.109903">
        <ele>89.0</ele>
        <time>2019-01-13T21:46:22Z</time>
      </trkpt>
      <trkpt lat="41.879581" lon="3.110003">
        <ele>88.0</ele>
        <time>2019-01-13T21:46:23Z</time>
      </trkpt>
      <trkpt lat="41.879516" lon="3.110115">
        <ele>87.0</ele>
        <time>2019-01-13T21:46:25Z</time>
      </trkpt>
      <trkpt lat="41.879484" lon="3.110265">
        <ele>85.0</ele>
        <time>2019-01-13T21:46:27Z</time>
      </trkpt>
      <trkpt lat="41.879423" lon="3.110390">
        <ele>84.0</ele>
        <time>2019-01-13T21:46:29Z</time>
      </trkpt>
      <trkpt lat="41.879400" lon="3.110559">
        <ele>82.0</ele>
        <time>2019-01-13T21:46:31Z</time>
      </trkpt>
      <trkpt lat="41.879414" lon="3.110734">
        <ele>80.0</ele>
        <time>2019-01-13T21:46:33Z</time>
      </trkpt>
      <trkpt lat="41.879460" lon="3.110878">
        <ele>79.0</ele>
        <time>2019-01-13T21:46:35Z</time>
      </trkpt>
      <trkpt lat="41.879535" lon="3.110978">
        <ele>77.0</ele>
        <time>2019-01-13T21:46:36Z</time>
      </trkpt>
      <trkpt lat="41.879581" lon="3.111109">
        <ele>76.0</ele>
        <time>2019-01-13T21:46:38Z</time>
      </trkpt>
      <trkpt lat="41.879605" lon="3.111284">
        <ele>75.0</ele>
        <time>2019-01-13T21:46:40Z</time>
      </trkpt>
      <trkpt lat="41.879595" lon="3.111466">
        <ele>74.0</ele>
        <time>2019-01-13T21:46:42Z</time>
      </trkpt>
      <trkpt lat="41.879587" lon="3.111643">
        <ele>72.0</ele>
        <time>2019-01-13T21:46:45Z</time>
      </trkpt>
      <trkpt lat="41.879573" lon="3.111927">
        <ele>71.0</ele>
        <time>2019-01-13T21:46:48Z</time>
      </trkpt>
      <trkpt lat="41.879580" lon="3.112221">
        <ele>69.0</ele>
        <time>2019-01-13T21:46:51Z</time>
      </trkpt>
      <trkpt lat="41.879536" lon="3.112467">
        <ele>68.0</ele>
        <time>2019-01-13T21:46:54Z</time>
      </trkpt>
      <trkpt lat="41.879346" lon="3.112515">
        <ele>68.0</ele>
        <time>2019-01-13T21:46:58Z</time>
      </trkpt>
      <trkpt lat="41.879186" lon="3.112427">
        <ele>68.0</ele>
        <time>2019-01-13T21:47:00Z</time>
      </trkpt>
      <trkpt lat="41.878974" lon="3.112408">
        <ele>68.0</ele>
        <time>2019-01-13T21:47:04Z</time>
      </trkpt>
      <trkpt lat="41.878770" lon="3.112437">
        <ele>68.0</ele>
        <time>2019-01-13T21:47:07Z</time>
      </trkpt>
      <trkpt lat="41.878638" lon="3.112565">
        <ele>69.0</ele>
        <time>2019-01-13T21:47:10Z</time>
      </trkpt>
      <trkpt lat="41.878551" lon="3.112751">
        <ele>69.0</ele>
        <time>2019-01-13T21:47:12Z</time>
      </trkpt>
      <trkpt lat="41.878478" lon="3.112957">
        <ele>69.0</ele>
        <time>2019-01-13T21:47:15Z</time>
      </trkpt>
      <trkpt lat="41.878376" lon="3.113123">
        <ele>69.0</ele>
        <time>2019-01-13T21:47:17Z</time>
      </trkpt>
      <trkpt lat="41.878244" lon="3.113260">
        <ele>69.0</ele>
        <time>2019-01-13T21:47:20Z</time>
      </trkpt>
      <trkpt lat="41.878106" lon="3.113378">
        <ele>69.0</ele>
        <time>2019-01-13T21:47:23Z</time>
      </trkpt>
      <trkpt lat="41.878011" lon="3.113554">
        <ele>69.0</ele>
        <time>2019-01-13T21:47:25Z</time>
      </trkpt>
      <trkpt lat="41.877931" lon="3.113760">
        <ele>69.0</ele>
        <time>2019-01-13T21:47:28Z</time>
      </trkpt>
      <trkpt lat="41.877872" lon="3.113986">
        <ele>69.0</ele>
        <time>2019-01-13T21:47:31Z</time>
      </trkpt>
      <trkpt lat="41.877850" lon="3.114260">
        <ele>69.0</ele>
        <time>2019-01-13T21:47:34Z</time>
      </trkpt>
      <trkpt lat="41.877821" lon="3.114525">
        <ele>69.0</ele>
        <time>2019-01-13T21:47:37Z</time>
      </trkpt>
      <trkpt lat="41.877712" lon="3.114691">
        <ele>69.0</ele>
        <time>2019-01-13T21:47:40Z</time>
      </trkpt>
      <trkpt lat="41.877609" lon="3.114868">
        <ele>69.0</ele>
        <time>2019-01-13T21:47:43Z</time>
      </trkpt>
      <trkpt lat="41.877500" lon="3.115034">
        <ele>69.0</ele>
        <time>2019-01-13T21:47:45Z</time>
      </trkpt>
      <trkpt lat="41.877434" lon="3.115260">
        <ele>69.0</ele>
        <time>2019-01-13T21:47:48Z</time>
      </trkpt>
      <trkpt lat="41.877347" lon="3.115446">
        <ele>69.0</ele>
        <time>2019-01-13T21:47:51Z</time>
      </trkpt>
      <trkpt lat="41.877179" lon="3.115534">
        <ele>67.0</ele>
        <time>2019-01-13T21:47:54Z</time>
      </trkpt>
      <trkpt lat="41.876982" lon="3.115583">
        <ele>65.0</ele>
        <time>2019-01-13T21:47:57Z</time>
      </trkpt>
      <trkpt lat="41.876777" lon="3.115622">
        <ele>63.0</ele>
        <time>2019-01-13T21:48:00Z</time>
      </trkpt>
      <trkpt lat="41.876741" lon="3.115877">
        <ele>62.0</ele>
        <time>2019-01-13T21:48:03Z</time>
      </trkpt>
      <trkpt lat="41.876880" lon="3.115995">
        <ele>64.0</ele>
        <time>2019-01-13T21:48:06Z</time>
      </trkpt>
      <trkpt lat="41.876923" lon="3.116240">
        <ele>65.0</ele>
        <time>2019-01-13T21:48:09Z</time>
      </trkpt>
      <trkpt lat="41.876960" lon="3.116495">
        <ele>65.0</ele>
        <time>2019-01-13T21:48:12Z</time>
      </trkpt>
      <trkpt lat="41.877018" lon="3.116720">
        <ele>65.0</ele>
        <time>2019-01-13T21:48:15Z</time>
      </trkpt>
      <trkpt lat="41.877019" lon="3.116992">
        <ele>64.0</ele>
        <time>2019-01-13T21:48:18Z</time>
      </trkpt>
      <trkpt lat="41.876996" lon="3.117162">
        <ele>62.0</ele>
        <time>2019-01-13T21:48:20Z</time>
      </trkpt>
      <trkpt lat="41.876982" lon="3.117344">
        <ele>62.0</ele>
        <time>2019-01-13T21:48:22Z</time>
      </trkpt>
      <trkpt lat="41.876982" lon="3.117540">
        <ele>61.0</ele>
        <time>2019-01-13T21:48:25Z</time>
      </trkpt>
      <trkpt lat="41.876963" lon="3.117710">
        <ele>61.0</ele>
        <time>2019-01-13T21:48:27Z</time>
      </trkpt>
      <trkpt lat="41.876958" lon="3.117905">
        <ele>61.0</ele>
        <time>2019-01-13T21:48:29Z</time>
      </trkpt>
      <trkpt lat="41.876944" lon="3.118101">
        <ele>62.0</ele>
        <time>2019-01-13T21:48:32Z</time>
      </trkpt>
      <trkpt lat="41.876944" lon="3.118302">
        <ele>62.0</ele>
        <time>2019-01-13T21:48:34Z</time>
      </trkpt>
      <trkpt lat="41.876954" lon="3.118497">
        <ele>62.0</ele>
        <time>2019-01-13T21:48:36Z</time>
      </trkpt>
      <trkpt lat="41.876968" lon="3.118686">
        <ele>61.0</ele>
        <time>2019-01-13T21:48:39Z</time>
      </trkpt>
      <trkpt lat="41.876982" lon="3.118875">
        <ele>61.0</ele>
        <time>2019-01-13T21:48:41Z</time>
      </trkpt>
      <trkpt lat="41.876986" lon="3.119077">
        <ele>61.0</ele>
        <time>2019-01-13T21:48:43Z</time>
      </trkpt>
      <trkpt lat="41.877005" lon="3.119247">
        <ele>61.0</ele>
        <time>2019-01-13T21:48:45Z</time>
      </trkpt>
      <trkpt lat="41.877038" lon="3.119398">
        <ele>60.0</ele>
        <time>2019-01-13T21:48:47Z</time>
      </trkpt>
      <trkpt lat="41.877085" lon="3.119537">
        <ele>60.0</ele>
        <time>2019-01-13T21:48:49Z</time>
      </trkpt>
      <trkpt lat="41.877136" lon="3.119669">
        <ele>59.0</ele>
        <time>2019-01-13T21:48:51Z</time>
      </trkpt>
      <trkpt lat="41.877174" lon="3.119814">
        <ele>59.0</ele>
        <time>2019-01-13T21:48:53Z</time>
      </trkpt>
      <trkpt lat="41.877226" lon="3.119953">
        <ele>58.0</ele>
        <time>2019-01-13T21:48:54Z</time>
      </trkpt>
      <trkpt lat="41.877287" lon="3.120079">
        <ele>58.0</ele>
        <time>2019-01-13T21:48:56Z</time>
      </trkpt>
      <trkpt lat="41.877282" lon="3.120274">
        <ele>57.0</ele>
        <time>2019-01-13T21:48:59Z</time>
      </trkpt>
      <trkpt lat="41.877277" lon="3.120469">
        <ele>56.0</ele>
        <time>2019-01-13T21:49:01Z</time>
      </trkpt>
      <trkpt lat="41.877301" lon="3.120640">
        <ele>55.0</ele>
        <time>2019-01-13T21:49:03Z</time>
      </trkpt>
      <trkpt lat="41.877316" lon="3.120798">
        <ele>54.0</ele>
        <time>2019-01-13T21:49:05Z</time>
      </trkpt>
      <trkpt lat="41.877858" lon="3.120897">
        <ele>54.0</ele>
        <time>2019-01-13T21:49:14Z</time>
      </trkpt>
      <trkpt lat="41.878491" lon="3.121128">
        <ele>54.0</ele>
        <time>2019-01-13T21:49:24Z</time>
      </trkpt>
      <trkpt lat="41.879056" lon="3.121218">
        <ele>55.0</ele>
        <time>2019-01-13T21:49:33Z</time>
      </trkpt>
      <trkpt lat="41.879630" lon="3.121514">
        <ele>55.0</ele>
        <time>2019-01-13T21:49:43Z</time>
      </trkpt>
      <trkpt lat="41.880061" lon="3.121861">
        <ele>55.0</ele>
        <time>2019-01-13T21:49:51Z</time>
      </trkpt>
      <trkpt lat="41.880339" lon="3.122106">
        <ele>55.0</ele>
        <time>2019-01-13T21:49:56Z</time>
      </trkpt>
      <trkpt lat="41.880684" lon="3.122299">
        <ele>55.0</ele>
        <time>2019-01-13T21:50:02Z</time>
      </trkpt>
      <trkpt lat="41.880971" lon="3.122453">
        <ele>56.0</ele>
        <time>2019-01-13T21:50:07Z</time>
      </trkpt>
      <trkpt lat="41.881153" lon="3.122453">
        <ele>55.0</ele>
        <time>2019-01-13T21:50:10Z</time>
      </trkpt>
      <trkpt lat="41.881287" lon="3.122865">
        <ele>55.0</ele>
        <time>2019-01-13T21:50:16Z</time>
      </trkpt>
      <trkpt lat="41.881536" lon="3.123058">
        <ele>55.0</ele>
        <time>2019-01-13T21:50:20Z</time>
      </trkpt>
      <trkpt lat="41.881900" lon="3.123482">
        <ele>55.0</ele>
        <time>2019-01-13T21:50:28Z</time>
      </trkpt>
      <trkpt lat="41.882360" lon="3.123932">
        <ele>54.0</ele>
        <time>2019-01-13T21:50:37Z</time>
      </trkpt>
      <trkpt lat="41.882561" lon="3.124215">
        <ele>52.0</ele>
        <time>2019-01-13T21:50:42Z</time>
      </trkpt>
      <trkpt lat="41.882274" lon="3.124396">
        <ele>54.0</ele>
        <time>2019-01-13T21:50:47Z</time>
      </trkpt>
      <trkpt lat="41.881833" lon="3.124704">
        <ele>52.0</ele>
        <time>2019-01-13T21:50:55Z</time>
      </trkpt>
      <trkpt lat="41.881402" lon="3.125077">
        <ele>50.0</ele>
        <time>2019-01-13T21:51:03Z</time>
      </trkpt>
      <trkpt lat="41.880962" lon="3.125386">
        <ele>49.0</ele>
        <time>2019-01-13T21:51:11Z</time>
      </trkpt>
      <trkpt lat="41.880646" lon="3.125656">
        <ele>49.0</ele>
        <time>2019-01-13T21:51:17Z</time>
      </trkpt>
      <trkpt lat="41.880157" lon="3.126081">
        <ele>47.0</ele>
        <time>2019-01-13T21:51:26Z</time>
      </trkpt>
      <trkpt lat="41.879640" lon="3.126557">
        <ele>43.0</ele>
        <time>2019-01-13T21:51:36Z</time>
      </trkpt>
      <trkpt lat="41.879161" lon="3.127084">
        <ele>41.0</ele>
        <time>2019-01-13T21:51:46Z</time>
      </trkpt>
      <trkpt lat="41.878720" lon="3.127805">
        <ele>40.0</ele>
        <time>2019-01-13T21:51:57Z</time>
      </trkpt>
      <trkpt lat="41.878309" lon="3.128383">
        <ele>38.0</ele>
        <time>2019-01-13T21:52:07Z</time>
      </trkpt>
      <trkpt lat="41.877830" lon="3.129014">
        <ele>36.0</ele>
        <time>2019-01-13T21:52:18Z</time>
      </trkpt>
      <trkpt lat="41.877427" lon="3.129554">
        <ele>34.0</ele>
        <time>2019-01-13T21:52:27Z</time>
      </trkpt>
      <trkpt lat="41.877083" lon="3.129991">
        <ele>33.0</ele>
        <time>2019-01-13T21:52:34Z</time>
      </trkpt>
      <trkpt lat="41.876321" lon="3.130771">
        <ele>31.0</ele>
        <time>2019-01-13T21:52:50Z</time>
      </trkpt>
      <trkpt lat="41.875588" lon="3.131393">
        <ele>29.0</ele>
        <time>2019-01-13T21:53:03Z</time>
      </trkpt>
      <trkpt lat="41.875050" lon="3.131795">
        <ele>27.0</ele>
        <time>2019-01-13T21:53:13Z</time>
      </trkpt>
      <trkpt lat="41.874662" lon="3.132878">
        <ele>29.0</ele>
        <time>2019-01-13T21:53:28Z</time>
      </trkpt>
      <trkpt lat="41.874288" lon="3.133802">
        <ele>28.0</ele>
        <time>2019-01-13T21:53:40Z</time>
      </trkpt>
      <trkpt lat="41.873974" lon="3.134785">
        <ele>23.0</ele>
        <time>2019-01-13T21:53:53Z</time>
      </trkpt>
      <trkpt lat="41.873676" lon="3.135467">
        <ele>18.0</ele>
        <time>2019-01-13T21:54:02Z</time>
      </trkpt>
      <trkpt lat="41.873646" lon="3.135748">
        <ele>17.0</ele>
        <time>2019-01-13T21:54:06Z</time>
      </trkpt>
      <trkpt lat="41.873481" lon="3.135788">
        <ele>17.0</ele>
        <time>2019-01-13T21:54:08Z</time>
      </trkpt>
      <trkpt lat="41.873489" lon="3.135954">
        <ele>17.0</ele>
        <time>2019-01-13T21:54:10Z</time>
      </trkpt>
      <trkpt lat="41.873651" lon="3.136066">
        <ele>17.0</ele>
        <time>2019-01-13T21:54:13Z</time>
      </trkpt>
      <trkpt lat="41.873758" lon="3.135977">
        <ele>17.0</ele>
        <time>2019-01-13T21:54:15Z</time>
      </trkpt>
      <trkpt lat="41.873941" lon="3.135999">
        <ele>17.0</ele>
        <time>2019-01-13T21:54:18Z</time>
      </trkpt>
      <trkpt lat="41.874338" lon="3.136205">
        <ele>17.0</ele>
        <time>2019-01-13T21:54:25Z</time>
      </trkpt>
      <trkpt lat="41.874686" lon="3.136505">
        <ele>17.0</ele>
        <time>2019-01-13T21:54:32Z</time>
      </trkpt>
      <trkpt lat="41.874868" lon="3.136694">
        <ele>17.0</ele>
        <time>2019-01-13T21:54:35Z</time>
      </trkpt>
      <trkpt lat="41.875051" lon="3.136900">
        <ele>17.0</ele>
        <time>2019-01-13T21:54:39Z</time>
      </trkpt>
      <trkpt lat="41.875403" lon="3.137212">
        <ele>18.0</ele>
        <time>2019-01-13T21:54:46Z</time>
      </trkpt>
      <trkpt lat="41.875747" lon="3.137551">
        <ele>18.0</ele>
        <time>2019-01-13T21:54:53Z</time>
      </trkpt>
      <trkpt lat="41.876024" lon="3.137829">
        <ele>19.0</ele>
        <time>2019-01-13T21:54:58Z</time>
      </trkpt>
      <trkpt lat="41.876285" lon="3.138035">
        <ele>19.0</ele>
        <time>2019-01-13T21:55:03Z</time>
      </trkpt>
      <trkpt lat="41.876426" lon="3.138113">
        <ele>20.0</ele>
        <time>2019-01-13T21:55:06Z</time>
      </trkpt>
      <trkpt lat="41.876411" lon="3.138324">
        <ele>20.0</ele>
        <time>2019-01-13T21:55:08Z</time>
      </trkpt>
      <trkpt lat="41.876528" lon="3.138515">
        <ele>20.0</ele>
        <time>2019-01-13T21:55:11Z</time>
      </trkpt>
      <trkpt lat="41.876495" lon="3.138974">
        <ele>15.0</ele>
        <time>2019-01-13T21:55:17Z</time>
      </trkpt>
      <trkpt lat="41.876463" lon="3.139487">
        <ele>15.0</ele>
        <time>2019-01-13T21:55:23Z</time>
      </trkpt>
      <trkpt lat="41.876379" lon="3.140129">
        <ele>19.0</ele>
        <time>2019-01-13T21:55:31Z</time>
      </trkpt>
      <trkpt lat="41.876353" lon="3.140354">
        <ele>20.0</ele>
        <time>2019-01-13T21:55:33Z</time>
      </trkpt>
      <trkpt lat="41.876211" lon="3.140407">
        <ele>20.0</ele>
        <time>2019-01-13T21:55:36Z</time>
      </trkpt>
      <trkpt lat="41.876230" lon="3.140676">
        <ele>20.0</ele>
        <time>2019-01-13T21:55:39Z</time>
      </trkpt>
      <trkpt lat="41.876379" lon="3.140736">
        <ele>20.0</ele>
        <time>2019-01-13T21:55:41Z</time>
      </trkpt>
      <trkpt lat="41.876495" lon="3.140519">
        <ele>20.0</ele>
        <time>2019-01-13T21:55:45Z</time>
      </trkpt>
      <trkpt lat="41.876586" lon="3.140250">
        <ele>21.0</ele>
        <time>2019-01-13T21:55:48Z</time>
      </trkpt>
      <trkpt lat="41.876831" lon="3.139964">
        <ele>22.0</ele>
        <time>2019-01-13T21:55:53Z</time>
      </trkpt>
      <trkpt lat="41.877167" lon="3.139851">
        <ele>24.0</ele>
        <time>2019-01-13T21:55:59Z</time>
      </trkpt>
      <trkpt lat="41.877242" lon="3.139845">
        <ele>25.0</ele>
        <time>2019-01-13T21:56:00Z</time>
      </trkpt>
      <trkpt lat="41.877955" lon="3.139900">
        <ele>28.0</ele>
        <time>2019-01-13T21:56:11Z</time>
      </trkpt>
      <trkpt lat="41.878400" lon="3.140050">
        <ele>31.0</ele>
        <time>2019-01-13T21:56:19Z</time>
      </trkpt>
      <trkpt lat="41.879840" lon="3.140520">
        <ele>35.0</ele>
        <time>2019-01-13T21:56:42Z</time>
      </trkpt>
      <trkpt lat="41.881150" lon="3.141060">
        <ele>36.0</ele>
        <time>2019-01-13T21:57:04Z</time>
      </trkpt>
      <trkpt lat="41.882520" lon="3.141660">
        <ele>37.0</ele>
        <time>2019-01-13T21:57:27Z</time>
      </trkpt>
      <trkpt lat="41.883700" lon="3.141920">
        <ele>43.0</ele>
        <time>2019-01-13T21:57:47Z</time>
      </trkpt>
      <trkpt lat="41.885050" lon="3.142180">
        <ele>51.0</ele>
        <time>2019-01-13T21:58:08Z</time>
      </trkpt>
      <trkpt lat="41.886300" lon="3.142430">
        <ele>52.0</ele>
        <time>2019-01-13T21:58:29Z</time>
      </trkpt>
      <trkpt lat="41.887520" lon="3.142690">
        <ele>47.0</ele>
        <time>2019-01-13T21:58:48Z</time>
      </trkpt>
      <trkpt lat="41.888960" lon="3.142990">
        <ele>39.0</ele>
        <time>2019-01-13T21:59:12Z</time>
      </trkpt>
      <trkpt lat="41.890460" lon="3.143310">
        <ele>38.0</ele>
        <time>2019-01-13T21:59:36Z</time>
      </trkpt>
      <trkpt lat="41.891770" lon="3.143630">
        <ele>40.0</ele>
        <time>2019-01-13T21:59:57Z</time>
      </trkpt>
      <trkpt lat="41.893230" lon="3.144000">
        <ele>43.0</ele>
        <time>2019-01-13T22:00:21Z</time>
      </trkpt>
      <trkpt lat="41.894900" lon="3.144340">
        <ele>46.0</ele>
        <time>2019-01-13T22:00:48Z</time>
      </trkpt>
      <trkpt lat="41.896430" lon="3.144640">
        <ele>48.0</ele>
        <time>2019-01-13T22:01:13Z</time>
      </trkpt>
      <trkpt lat="41.897990" lon="3.145010">
        <ele>48.0</ele>
        <time>2019-01-13T22:01:38Z</time>
      </trkpt>
      <trkpt lat="41.899370" lon="3.145390">
        <ele>48.0</ele>
        <time>2019-01-13T22:02:01Z</time>
      </trkpt>
      <trkpt lat="41.900800" lon="3.145780">
        <ele>50.0</ele>
        <time>2019-01-13T22:02:24Z</time>
      </trkpt>
      <trkpt lat="41.902240" lon="3.146150">
        <ele>52.0</ele>
        <time>2019-01-13T22:02:48Z</time>
      </trkpt>
      <trkpt lat="41.903700" lon="3.146470">
        <ele>57.0</ele>
        <time>2019-01-13T22:03:12Z</time>
      </trkpt>
      <trkpt lat="41.904840" lon="3.146700">
        <ele>59.0</ele>
        <time>2019-01-13T22:03:30Z</time>
      </trkpt>
      <trkpt lat="41.905100" lon="3.146770">
        <ele>61.0</ele>
        <time>2019-01-13T22:03:34Z</time>
      </trkpt>
      <trkpt lat="41.905590" lon="3.146750">
        <ele>62.0</ele>
        <time>2019-01-13T22:03:42Z</time>
      </trkpt>
      <trkpt lat="41.905800" lon="3.146810">
        <ele>62.0</ele>
        <time>2019-01-13T22:03:45Z</time>
      </trkpt>
      <trkpt lat="41.906980" lon="3.147000">
        <ele>59.0</ele>
        <time>2019-01-13T22:04:05Z</time>
      </trkpt>
      <trkpt lat="41.907710" lon="3.147050">
        <ele>57.0</ele>
        <time>2019-01-13T22:04:16Z</time>
      </trkpt>
      <trkpt lat="41.908120" lon="3.147200">
        <ele>57.0</ele>
        <time>2019-01-13T22:04:23Z</time>
      </trkpt>
      <trkpt lat="41.908270" lon="3.147150">
        <ele>57.0</ele>
        <time>2019-01-13T22:04:26Z</time>
      </trkpt>
      <trkpt lat="41.908740" lon="3.147220">
        <ele>57.0</ele>
        <time>2019-01-13T22:04:33Z</time>
      </trkpt>
      <trkpt lat="41.910030" lon="3.147390">
        <ele>61.0</ele>
        <time>2019-01-13T22:04:54Z</time>
      </trkpt>
      <trkpt lat="41.911080" lon="3.147520">
        <ele>63.0</ele>
        <time>2019-01-13T22:05:11Z</time>
      </trkpt>
      <trkpt lat="41.911790" lon="3.147580">
        <ele>66.0</ele>
        <time>2019-01-13T22:05:22Z</time>
      </trkpt>
      <trkpt lat="41.911940" lon="3.147580">
        <ele>66.0</ele>
        <time>2019-01-13T22:05:25Z</time>
      </trkpt>
      <trkpt lat="41.912110" lon="3.147650">
        <ele>67.0</ele>
        <time>2019-01-13T22:05:27Z</time>
      </trkpt>
      <trkpt lat="41.912330" lon="3.147670">
        <ele>68.0</ele>
        <time>2019-01-13T22:05:31Z</time>
      </trkpt>
      <trkpt lat="41.912540" lon="3.147580">
        <ele>69.0</ele>
        <time>2019-01-13T22:05:34Z</time>
      </trkpt>
      <trkpt lat="41.913250" lon="3.147600">
        <ele>70.0</ele>
        <time>2019-01-13T22:05:46Z</time>
      </trkpt>
      <trkpt lat="41.914000" lon="3.147430">
        <ele>74.0</ele>
        <time>2019-01-13T22:05:58Z</time>
      </trkpt>
      <trkpt lat="41.914790" lon="3.147200">
        <ele>76.0</ele>
        <time>2019-01-13T22:06:11Z</time>
      </trkpt>
      <trkpt lat="41.915500" lon="3.146960">
        <ele>82.0</ele>
        <time>2019-01-13T22:06:23Z</time>
      </trkpt>
      <trkpt lat="41.916170" lon="3.146770">
        <ele>88.0</ele>
        <time>2019-01-13T22:06:34Z</time>
      </trkpt>
      <trkpt lat="41.917180" lon="3.146470">
        <ele>89.0</ele>
        <time>2019-01-13T22:06:50Z</time>
      </trkpt>
      <trkpt lat="41.918160" lon="3.146210">
        <ele>88.0</ele>
        <time>2019-01-13T22:07:06Z</time>
      </trkpt>
      <trkpt lat="41.919320" lon="3.145870">
        <ele>87.0</ele>
        <time>2019-01-13T22:07:25Z</time>
      </trkpt>
      <trkpt lat="41.920780" lon="3.145370">
        <ele>86.0</ele>
        <time>2019-01-13T22:07:49Z</time>
      </trkpt>
      <trkpt lat="41.922110" lon="3.144900">
        <ele>83.0</ele>
        <time>2019-01-13T22:08:11Z</time>
      </trkpt>
      <trkpt lat="41.923510" lon="3.144390">
        <ele>79.0</ele>
        <time>2019-01-13T22:08:35Z</time>
      </trkpt>
      <trkpt lat="41.924920" lon="3.143890">
        <ele>75.0</ele>
        <time>2019-01-13T22:08:58Z</time>
      </trkpt>
      <trkpt lat="41.926830" lon="3.143210">
        <ele>66.0</ele>
        <time>2019-01-13T22:09:30Z</time>
      </trkpt>
      <trkpt lat="41.928080" lon="3.142650">
        <ele>58.0</ele>
        <time>2019-01-13T22:09:51Z</time>
      </trkpt>
      <trkpt lat="41.928480" lon="3.142690">
        <ele>56.0</ele>
        <time>2019-01-13T22:09:57Z</time>
      </trkpt>
      <trkpt lat="41.928570" lon="3.142450">
        <ele>56.0</ele>
        <time>2019-01-13T22:10:00Z</time>
      </trkpt>
      <trkpt lat="41.928760" lon="3.142030">
        <ele>56.0</ele>
        <time>2019-01-13T22:10:06Z</time>
      </trkpt>
      <trkpt lat="41.929620" lon="3.140950">
        <ele>55.0</ele>
        <time>2019-01-13T22:10:25Z</time>
      </trkpt>
      <trkpt lat="41.930890" lon="3.139450">
        <ele>56.0</ele>
        <time>2019-01-13T22:10:52Z</time>
      </trkpt>
      <trkpt lat="41.931700" lon="3.138530">
        <ele>57.0</ele>
        <time>2019-01-13T22:11:09Z</time>
      </trkpt>
      <trkpt lat="41.932710" lon="3.137370">
        <ele>60.0</ele>
        <time>2019-01-13T22:11:30Z</time>
      </trkpt>
      <trkpt lat="41.933850" lon="3.136040">
        <ele>57.0</ele>
        <time>2019-01-13T22:11:54Z</time>
      </trkpt>
      <trkpt lat="41.934750" lon="3.134970">
        <ele>56.0</ele>
        <time>2019-01-13T22:12:14Z</time>
      </trkpt>
      <trkpt lat="41.935760" lon="3.133810">
        <ele>57.0</ele>
        <time>2019-01-13T22:12:35Z</time>
      </trkpt>
      <trkpt lat="41.936600" lon="3.132840">
        <ele>62.0</ele>
        <time>2019-01-13T22:12:53Z</time>
      </trkpt>
      <trkpt lat="41.937500" lon="3.131790">
        <ele>64.0</ele>
        <time>2019-01-13T22:13:12Z</time>
      </trkpt>
      <trkpt lat="41.938160" lon="3.131020">
        <ele>65.0</ele>
        <time>2019-01-13T22:13:26Z</time>
      </trkpt>
      <trkpt lat="41.939060" lon="3.129970">
        <ele>68.0</ele>
        <time>2019-01-13T22:13:45Z</time>
      </trkpt>
      <trkpt lat="41.939710" lon="3.129190">
        <ele>68.0</ele>
        <time>2019-01-13T22:13:59Z</time>
      </trkpt>
      <trkpt lat="41.940670" lon="3.128080">
        <ele>68.0</ele>
        <time>2019-01-13T22:14:19Z</time>
      </trkpt>
      <trkpt lat="41.941680" lon="3.126900">
        <ele>69.0</ele>
        <time>2019-01-13T22:14:40Z</time>
      </trkpt>
      <trkpt lat="41.942540" lon="3.125890">
        <ele>70.0</ele>
        <time>2019-01-13T22:14:59Z</time>
      </trkpt>
      <trkpt lat="41.943500" lon="3.124750">
        <ele>69.0</ele>
        <time>2019-01-13T22:15:19Z</time>
      </trkpt>
      <trkpt lat="41.944150" lon="3.124000">
        <ele>69.0</ele>
        <time>2019-01-13T22:15:33Z</time>
      </trkpt>
      <trkpt lat="41.944530" lon="3.123980">
        <ele>71.0</ele>
        <time>2019-01-13T22:15:39Z</time>
      </trkpt>
      <trkpt lat="41.944750" lon="3.124130">
        <ele>68.0</ele>
        <time>2019-01-13T22:15:43Z</time>
      </trkpt>
      <trkpt lat="41.945030" lon="3.124340">
        <ele>66.0</ele>
        <time>2019-01-13T22:15:48Z</time>
      </trkpt>
      <trkpt lat="41.945990" lon="3.124600">
        <ele>68.0</ele>
        <time>2019-01-13T22:16:04Z</time>
      </trkpt>
      <trkpt lat="41.947540" lon="3.124880">
        <ele>59.0</ele>
        <time>2019-01-13T22:16:29Z</time>
      </trkpt>
      <trkpt lat="41.947840" lon="3.124970">
        <ele>58.0</ele>
        <time>2019-01-13T22:16:34Z</time>
      </trkpt>
      <trkpt lat="41.948290" lon="3.125480">
        <ele>56.0</ele>
        <time>2019-01-13T22:16:43Z</time>
      </trkpt>
      <trkpt lat="41.948330" lon="3.125590">
        <ele>55.0</ele>
        <time>2019-01-13T22:16:45Z</time>
      </trkpt>
      <trkpt lat="41.949110" lon="3.127390">
        <ele>48.0</ele>
        <time>2019-01-13T22:17:09Z</time>
      </trkpt>
      <trkpt lat="41.949750" lon="3.128940">
        <ele>41.0</ele>
        <time>2019-01-13T22:17:31Z</time>
      </trkpt>
      <trkpt lat="41.950410" lon="3.130270">
        <ele>38.0</ele>
        <time>2019-01-13T22:17:50Z</time>
      </trkpt>
      <trkpt lat="41.951010" lon="3.131510">
        <ele>37.0</ele>
        <time>2019-01-13T22:18:07Z</time>
      </trkpt>
      <trkpt lat="41.951920" lon="3.133490">
        <ele>32.0</ele>
        <time>2019-01-13T22:18:35Z</time>
      </trkpt>
      <trkpt lat="41.952970" lon="3.135740">
        <ele>28.0</ele>
        <time>2019-01-13T22:19:07Z</time>
      </trkpt>
      <trkpt lat="41.953780" lon="3.137540">
        <ele>26.0</ele>
        <time>2019-01-13T22:19:32Z</time>
      </trkpt>
      <trkpt lat="41.954410" lon="3.138910">
        <ele>23.0</ele>
        <time>2019-01-13T22:19:51Z</time>
      </trkpt>
      <trkpt lat="41.955310" lon="3.140850">
        <ele>18.0</ele>
        <time>2019-01-13T22:20:18Z</time>
      </trkpt>
      <trkpt lat="41.956060" lon="3.142480">
        <ele>18.0</ele>
        <time>2019-01-13T22:20:41Z</time>
      </trkpt>
      <trkpt lat="41.956770" lon="3.144000">
        <ele>18.0</ele>
        <time>2019-01-13T22:21:02Z</time>
      </trkpt>
      <trkpt lat="41.957540" lon="3.145650">
        <ele>17.0</ele>
        <time>2019-01-13T22:21:25Z</time>
      </trkpt>
      <trkpt lat="41.958370" lon="3.147350">
        <ele>16.0</ele>
        <time>2019-01-13T22:21:50Z</time>
      </trkpt>
      <trkpt lat="41.959020" lon="3.148290">
        <ele>16.0</ele>
        <time>2019-01-13T22:22:05Z</time>
      </trkpt>
      <trkpt lat="41.959830" lon="3.148780">
        <ele>16.0</ele>
        <time>2019-01-13T22:22:19Z</time>
      </trkpt>
      <trkpt lat="41.961040" lon="3.149280">
        <ele>16.0</ele>
        <time>2019-01-13T22:22:39Z</time>
      </trkpt>
      <trkpt lat="41.962150" lon="3.149750">
        <ele>18.0</ele>
        <time>2019-01-13T22:22:58Z</time>
      </trkpt>
      <trkpt lat="41.963330" lon="3.150270">
        <ele>20.0</ele>
        <time>2019-01-13T22:23:18Z</time>
      </trkpt>
      <trkpt lat="41.964340" lon="3.150460">
        <ele>23.0</ele>
        <time>2019-01-13T22:23:34Z</time>
      </trkpt>
      <trkpt lat="41.964790" lon="3.150740">
        <ele>24.0</ele>
        <time>2019-01-13T22:23:42Z</time>
      </trkpt>
      <trkpt lat="41.965010" lon="3.150650">
        <ele>25.0</ele>
        <time>2019-01-13T22:23:46Z</time>
      </trkpt>
      <trkpt lat="41.965130" lon="3.150570">
        <ele>26.0</ele>
        <time>2019-01-13T22:23:48Z</time>
      </trkpt>
      <trkpt lat="41.965710" lon="3.150520">
        <ele>28.0</ele>
        <time>2019-01-13T22:23:57Z</time>
      </trkpt>
      <trkpt lat="41.966920" lon="3.150650">
        <ele>26.0</ele>
        <time>2019-01-13T22:24:17Z</time>
      </trkpt>
      <trkpt lat="41.967240" lon="3.150840">
        <ele>25.0</ele>
        <time>2019-01-13T22:24:22Z</time>
      </trkpt>
      <trkpt lat="41.967950" lon="3.151700">
        <ele>25.0</ele>
        <time>2019-01-13T22:24:38Z</time>
      </trkpt>
      <trkpt lat="41.968890" lon="3.152820">
        <ele>25.0</ele>
        <time>2019-01-13T22:24:58Z</time>
      </trkpt>
      <trkpt lat="41.969130" lon="3.152930">
        <ele>26.0</ele>
        <time>2019-01-13T22:25:02Z</time>
      </trkpt>
      <trkpt lat="41.970090" lon="3.152950">
        <ele>27.0</ele>
        <time>2019-01-13T22:25:17Z</time>
      </trkpt>
      <trkpt lat="41.971570" lon="3.152880">
        <ele>26.0</ele>
        <time>2019-01-13T22:25:41Z</time>
      </trkpt>
      <trkpt lat="41.972040" lon="3.152820">
        <ele>26.0</ele>
        <time>2019-01-13T22:25:48Z</time>
      </trkpt>
      <trkpt lat="41.972750" lon="3.152280">
        <ele>22.0</ele>
        <time>2019-01-13T22:26:02Z</time>
      </trkpt>
      <trkpt lat="41.972820" lon="3.152170">
        <ele>22.0</ele>
        <time>2019-01-13T22:26:03Z</time>
      </trkpt>
      <trkpt lat="41.973140" lon="3.151600">
        <ele>20.0</ele>
        <time>2019-01-13T22:26:12Z</time>
      </trkpt>
      <trkpt lat="41.973670" lon="3.151300">
        <ele>18.0</ele>
        <time>2019-01-13T22:26:21Z</time>
      </trkpt>
      <trkpt lat="41.973760" lon="3.151300">
        <ele>18.0</ele>
        <time>2019-01-13T22:26:22Z</time>
      </trkpt>
      <trkpt lat="41.973930" lon="3.151320">
        <ele>18.0</ele>
        <time>2019-01-13T22:26:25Z</time>
      </trkpt>
      <trkpt lat="41.974280" lon="3.151100">
        <ele>17.0</ele>
        <time>2019-01-13T22:26:31Z</time>
      </trkpt>
      <trkpt lat="41.974830" lon="3.150950">
        <ele>18.0</ele>
        <time>2019-01-13T22:26:40Z</time>
      </trkpt>
      <trkpt lat="41.976290" lon="3.151470">
        <ele>18.0</ele>
        <time>2019-01-13T22:27:05Z</time>
      </trkpt>
      <trkpt lat="41.977840" lon="3.152020">
        <ele>12.0</ele>
        <time>2019-01-13T22:27:30Z</time>
      </trkpt>
      <trkpt lat="41.979640" lon="3.152670">
        <ele>12.0</ele>
        <time>2019-01-13T22:28:00Z</time>
      </trkpt>
      <trkpt lat="41.981440" lon="3.153310">
        <ele>9.0</ele>
        <time>2019-01-13T22:28:30Z</time>
      </trkpt>
      <trkpt lat="41.983220" lon="3.153930">
        <ele>12.0</ele>
        <time>2019-01-13T22:28:59Z</time>
      </trkpt>
      <trkpt lat="41.984980" lon="3.154560">
        <ele>13.0</ele>
        <time>2019-01-13T22:29:28Z</time>
      </trkpt>
      <trkpt lat="41.986060" lon="3.154790">
        <ele>10.0</ele>
        <time>2019-01-13T22:29:46Z</time>
      </trkpt>
      <trkpt lat="41.987020" lon="3.154580">
        <ele>8.0</ele>
        <time>2019-01-13T22:30:02Z</time>
      </trkpt>
      <trkpt lat="41.987990" lon="3.153980">
        <ele>7.0</ele>
        <time>2019-01-13T22:30:19Z</time>
      </trkpt>
      <trkpt lat="41.989490" lon="3.153050">
        <ele>7.0</ele>
        <time>2019-01-13T22:30:45Z</time>
      </trkpt>
      <trkpt lat="41.991230" lon="3.151980">
        <ele>5.0</ele>
        <time>2019-01-13T22:31:16Z</time>
      </trkpt>
      <trkpt lat="41.992580" lon="3.151140">
        <ele>3.0</ele>
        <time>2019-01-13T22:31:39Z</time>
      </trkpt>
      <trkpt lat="41.993870" lon="3.150350">
        <ele>5.0</ele>
        <time>2019-01-13T22:32:02Z</time>
      </trkpt>
      <trkpt lat="41.995200" lon="3.149540">
        <ele>4.0</ele>
        <time>2019-01-13T22:32:26Z</time>
      </trkpt>
      <trkpt lat="41.996360" lon="3.149090">
        <ele>3.0</ele>
        <time>2019-01-13T22:32:45Z</time>
      </trkpt>
      <trkpt lat="41.998110" lon="3.148510">
        <ele>4.0</ele>
        <time>2019-01-13T22:33:14Z</time>
      </trkpt>
      <trkpt lat="42.000070" lon="3.147840">
        <ele>5.0</ele>
        <time>2019-01-13T22:33:46Z</time>
      </trkpt>
      <trkpt lat="42.001550" lon="3.147350">
        <ele>4.0</ele>
        <time>2019-01-13T22:34:11Z</time>
      </trkpt>
      <trkpt lat="42.003200" lon="3.146810">
        <ele>2.0</ele>
        <time>2019-01-13T22:34:38Z</time>
      </trkpt>
      <trkpt lat="42.005170" lon="3.146150">
        <ele>0.0</ele>
        <time>2019-01-13T22:35:10Z</time>
      </trkpt>
      <trkpt lat="42.007000" lon="3.145540">
        <ele>2.0</ele>
        <time>2019-01-13T22:35:40Z</time>
      </trkpt>
      <trkpt lat="42.008820" lon="3.144920">
        <ele>1.0</ele>
        <time>2019-01-13T22:36:10Z</time>
      </trkpt>
      <trkpt lat="42.010650" lon="3.144300">
        <ele>2.0</ele>
        <time>2019-01-13T22:36:41Z</time>
      </trkpt>
      <trkpt lat="42.012060" lon="3.143830">
        <ele>2.0</ele>
        <time>2019-01-13T22:37:04Z</time>
      </trkpt>
      <trkpt lat="42.013650" lon="3.143310">
        <ele>2.0</ele>
        <time>2019-01-13T22:37:30Z</time>
      </trkpt>
      <trkpt lat="42.015170" lon="3.142800">
        <ele>1.0</ele>
        <time>2019-01-13T22:37:55Z</time>
      </trkpt>
      <trkpt lat="42.016590" lon="3.142330">
        <ele>2.0</ele>
        <time>2019-01-13T22:38:19Z</time>
      </trkpt>
      <trkpt lat="42.017940" lon="3.141880">
        <ele>3.0</ele>
        <time>2019-01-13T22:38:41Z</time>
      </trkpt>
      <trkpt lat="42.018950" lon="3.141400">
        <ele>5.0</ele>
        <time>2019-01-13T22:38:58Z</time>
      </trkpt>
      <trkpt lat="42.019660" lon="3.140700">
        <ele>6.0</ele>
        <time>2019-01-13T22:39:12Z</time>
      </trkpt>
      <trkpt lat="42.020470" lon="3.139690">
        <ele>8.0</ele>
        <time>2019-01-13T22:39:30Z</time>
      </trkpt>
      <trkpt lat="42.021180" lon="3.138810">
        <ele>10.0</ele>
        <time>2019-01-13T22:39:45Z</time>
      </trkpt>
      <trkpt lat="42.022300" lon="3.137430">
        <ele>8.0</ele>
        <time>2019-01-13T22:40:10Z</time>
      </trkpt>
      <trkpt lat="42.023310" lon="3.136190">
        <ele>10.0</ele>
        <time>2019-01-13T22:40:31Z</time>
      </trkpt>
      <trkpt lat="42.024160" lon="3.135140">
        <ele>10.0</ele>
        <time>2019-01-13T22:40:50Z</time>
      </trkpt>
      <trkpt lat="42.025040" lon="3.134040">
        <ele>10.0</ele>
        <time>2019-01-13T22:41:09Z</time>
      </trkpt>
      <trkpt lat="42.025880" lon="3.132990">
        <ele>8.0</ele>
        <time>2019-01-13T22:41:28Z</time>
      </trkpt>
      <trkpt lat="42.026980" lon="3.131660">
        <ele>7.0</ele>
        <time>2019-01-13T22:41:51Z</time>
      </trkpt>
      <trkpt lat="42.028130" lon="3.130250">
        <ele>7.0</ele>
        <time>2019-01-13T22:42:16Z</time>
      </trkpt>
      <trkpt lat="42.029100" lon="3.129040">
        <ele>7.0</ele>
        <time>2019-01-13T22:42:37Z</time>
      </trkpt>
      <trkpt lat="42.030220" lon="3.127650">
        <ele>5.0</ele>
        <time>2019-01-13T22:43:02Z</time>
      </trkpt>
      <trkpt lat="42.031400" lon="3.126190">
        <ele>6.0</ele>
        <time>2019-01-13T22:43:27Z</time>
      </trkpt>
      <trkpt lat="42.032300" lon="3.125140">
        <ele>6.0</ele>
        <time>2019-01-13T22:43:46Z</time>
      </trkpt>
      <trkpt lat="42.032980" lon="3.124690">
        <ele>7.0</ele>
        <time>2019-01-13T22:43:59Z</time>
      </trkpt>
      <trkpt lat="42.033310" lon="3.124620">
        <ele>8.0</ele>
        <time>2019-01-13T22:44:04Z</time>
      </trkpt>
      <trkpt lat="42.033630" lon="3.124860">
        <ele>7.0</ele>
        <time>2019-01-13T22:44:10Z</time>
      </trkpt>
      <trkpt lat="42.033910" lon="3.124770">
        <ele>7.0</ele>
        <time>2019-01-13T22:44:14Z</time>
      </trkpt>
      <trkpt lat="42.034250" lon="3.124750">
        <ele>5.0</ele>
        <time>2019-01-13T22:44:20Z</time>
      </trkpt>
      <trkpt lat="42.034870" lon="3.125140">
        <ele>4.0</ele>
        <time>2019-01-13T22:44:31Z</time>
      </trkpt>
      <trkpt lat="42.035820" lon="3.125850">
        <ele>5.0</ele>
        <time>2019-01-13T22:44:48Z</time>
        <cmt>RIO TER</cmt>
        <sym>C:\Users\Runseru\Desktop\gps\CompeGPS\CompeGPS Land 711\App\CompeGPS\symbols\DEFAULT.ZIP\WAYPOINT.bmp</sym>
      </trkpt>
      <trkpt lat="42.036930" lon="3.126660">
        <ele>9.0</ele>
        <time>2019-01-13T22:45:08Z</time>
      </trkpt>
      <trkpt lat="42.037660" lon="3.127220">
        <ele>10.0</ele>
        <time>2019-01-13T22:45:22Z</time>
      </trkpt>
      <trkpt lat="42.038220" lon="3.127610">
        <ele>12.0</ele>
        <time>2019-01-13T22:45:32Z</time>
      </trkpt>
      <trkpt lat="42.038350" lon="3.127780">
        <ele>13.0</ele>
        <time>2019-01-13T22:45:35Z</time>
      </trkpt>
      <trkpt lat="42.038630" lon="3.127860">
        <ele>14.0</ele>
        <time>2019-01-13T22:45:39Z</time>
      </trkpt>
      <trkpt lat="42.039510" lon="3.127880">
        <ele>17.0</ele>
        <time>2019-01-13T22:45:54Z</time>
      </trkpt>
      <trkpt lat="42.040280" lon="3.127910">
        <ele>20.0</ele>
        <time>2019-01-13T22:46:06Z</time>
      </trkpt>
      <trkpt lat="42.041270" lon="3.127930">
        <ele>24.0</ele>
        <time>2019-01-13T22:46:22Z</time>
      </trkpt>
      <trkpt lat="42.042020" lon="3.127950">
        <ele>27.0</ele>
        <time>2019-01-13T22:46:34Z</time>
      </trkpt>
      <trkpt lat="42.042360" lon="3.128120">
        <ele>27.0</ele>
        <time>2019-01-13T22:46:40Z</time>
      </trkpt>
      <trkpt lat="42.042510" lon="3.128040">
        <ele>28.0</ele>
        <time>2019-01-13T22:46:42Z</time>
      </trkpt>
      <trkpt lat="42.043330" lon="3.127240">
        <ele>32.0</ele>
        <time>2019-01-13T22:46:58Z</time>
      </trkpt>
      <trkpt lat="42.044010" lon="3.126580">
        <ele>36.0</ele>
        <time>2019-01-13T22:47:12Z</time>
      </trkpt>
      <trkpt lat="42.044180" lon="3.126080">
        <ele>36.0</ele>
        <time>2019-01-13T22:47:18Z</time>
      </trkpt>
      <trkpt lat="42.044120" lon="3.125670">
        <ele>34.0</ele>
        <time>2019-01-13T22:47:23Z</time>
      </trkpt>
      <trkpt lat="42.043480" lon="3.124370">
        <ele>30.0</ele>
        <time>2019-01-13T22:47:42Z</time>
      </trkpt>
      <trkpt lat="42.043280" lon="3.123890">
        <ele>29.0</ele>
        <time>2019-01-13T22:47:48Z</time>
      </trkpt>
      <trkpt lat="42.043240" lon="3.123460">
        <ele>28.0</ele>
        <time>2019-01-13T22:47:53Z</time>
      </trkpt>
      <trkpt lat="42.043480" lon="3.122710">
        <ele>25.0</ele>
        <time>2019-01-13T22:48:03Z</time>
      </trkpt>
      <trkpt lat="42.044080" lon="3.121020">
        <ele>20.0</ele>
        <time>2019-01-13T22:48:25Z</time>
      </trkpt>
      <trkpt lat="42.044570" lon="3.119580">
        <ele>18.0</ele>
        <time>2019-01-13T22:48:44Z</time>
      </trkpt>
      <trkpt lat="42.045320" lon="3.117610">
        <ele>15.0</ele>
        <time>2019-01-13T22:49:11Z</time>
      </trkpt>
      <trkpt lat="42.045770" lon="3.116380">
        <ele>15.0</ele>
        <time>2019-01-13T22:49:27Z</time>
      </trkpt>
      <trkpt lat="42.045880" lon="3.115740">
        <ele>15.0</ele>
        <time>2019-01-13T22:49:35Z</time>
      </trkpt>
      <trkpt lat="42.046200" lon="3.115400">
        <ele>17.0</ele>
        <time>2019-01-13T22:49:41Z</time>
      </trkpt>
      <trkpt lat="42.046370" lon="3.115420">
        <ele>19.0</ele>
        <time>2019-01-13T22:49:44Z</time>
      </trkpt>
      <trkpt lat="42.046630" lon="3.115180">
        <ele>20.0</ele>
        <time>2019-01-13T22:49:49Z</time>
      </trkpt>
      <trkpt lat="42.046670" lon="3.114970">
        <ele>20.0</ele>
        <time>2019-01-13T22:49:52Z</time>
      </trkpt>
      <trkpt lat="42.046760" lon="3.114770">
        <ele>20.0</ele>
        <time>2019-01-13T22:49:54Z</time>
      </trkpt>
      <trkpt lat="42.047080" lon="3.114520">
        <ele>20.0</ele>
        <time>2019-01-13T22:50:00Z</time>
      </trkpt>
      <trkpt lat="42.047720" lon="3.114150">
        <ele>22.0</ele>
        <time>2019-01-13T22:50:11Z</time>
      </trkpt>
      <trkpt lat="42.048280" lon="3.113550">
        <ele>23.0</ele>
        <time>2019-01-13T22:50:23Z</time>
      </trkpt>
      <trkpt lat="42.048410" lon="3.113470">
        <ele>23.0</ele>
        <time>2019-01-13T22:50:25Z</time>
      </trkpt>
      <trkpt lat="42.049180" lon="3.113010">
        <ele>24.0</ele>
        <time>2019-01-13T22:50:39Z</time>
      </trkpt>
      <trkpt lat="42.049910" lon="3.112050">
        <ele>23.0</ele>
        <time>2019-01-13T22:50:55Z</time>
      </trkpt>
      <trkpt lat="42.049960" lon="3.111940">
        <ele>23.0</ele>
        <time>2019-01-13T22:50:57Z</time>
      </trkpt>
      <trkpt lat="42.050190" lon="3.111060">
        <ele>22.0</ele>
        <time>2019-01-13T22:51:08Z</time>
      </trkpt>
      <trkpt lat="42.050600" lon="3.110480">
        <ele>22.0</ele>
        <time>2019-01-13T22:51:17Z</time>
      </trkpt>
      <trkpt lat="42.051310" lon="3.109770">
        <ele>23.0</ele>
        <time>2019-01-13T22:51:31Z</time>
      </trkpt>
      <trkpt lat="42.051780" lon="3.109690">
        <ele>24.0</ele>
        <time>2019-01-13T22:51:39Z</time>
      </trkpt>
      <trkpt lat="42.052120" lon="3.109520">
        <ele>25.0</ele>
        <time>2019-01-13T22:51:45Z</time>
      </trkpt>
      <trkpt lat="42.052550" lon="3.108890">
        <ele>26.0</ele>
        <time>2019-01-13T22:51:55Z</time>
      </trkpt>
      <trkpt lat="42.052660" lon="3.108340">
        <ele>24.0</ele>
        <time>2019-01-13T22:52:02Z</time>
      </trkpt>
      <trkpt lat="42.052850" lon="3.107860">
        <ele>23.0</ele>
        <time>2019-01-13T22:52:08Z</time>
      </trkpt>
      <trkpt lat="42.053110" lon="3.107630">
        <ele>24.0</ele>
        <time>2019-01-13T22:52:13Z</time>
      </trkpt>
      <trkpt lat="42.053580" lon="3.106940">
        <ele>22.0</ele>
        <time>2019-01-13T22:52:24Z</time>
      </trkpt>
      <trkpt lat="42.054010" lon="3.106580">
        <ele>19.0</ele>
        <time>2019-01-13T22:52:32Z</time>
      </trkpt>
      <trkpt lat="42.054400" lon="3.106410">
        <ele>17.0</ele>
        <time>2019-01-13T22:52:39Z</time>
      </trkpt>
      <trkpt lat="42.054740" lon="3.106060">
        <ele>17.0</ele>
        <time>2019-01-13T22:52:46Z</time>
      </trkpt>
      <trkpt lat="42.054890" lon="3.105830">
        <ele>17.0</ele>
        <time>2019-01-13T22:52:49Z</time>
      </trkpt>
      <trkpt lat="42.055150" lon="3.105350">
        <ele>15.0</ele>
        <time>2019-01-13T22:52:56Z</time>
      </trkpt>
      <trkpt lat="42.055640" lon="3.104620">
        <ele>13.0</ele>
        <time>2019-01-13T22:53:08Z</time>
      </trkpt>
      <trkpt lat="42.056140" lon="3.103680">
        <ele>9.0</ele>
        <time>2019-01-13T22:53:22Z</time>
      </trkpt>
      <trkpt lat="42.056630" lon="3.103170">
        <ele>8.0</ele>
        <time>2019-01-13T22:53:32Z</time>
      </trkpt>
      <trkpt lat="42.057020" lon="3.103020">
        <ele>8.0</ele>
        <time>2019-01-13T22:53:38Z</time>
      </trkpt>
      <trkpt lat="42.057940" lon="3.102930">
        <ele>8.0</ele>
        <time>2019-01-13T22:53:53Z</time>
      </trkpt>
      <trkpt lat="42.058970" lon="3.102760">
        <ele>8.0</ele>
        <time>2019-01-13T22:54:10Z</time>
      </trkpt>
      <trkpt lat="42.059850" lon="3.102310">
        <ele>8.0</ele>
        <time>2019-01-13T22:54:25Z</time>
      </trkpt>
      <trkpt lat="42.060730" lon="3.101790">
        <ele>9.0</ele>
        <time>2019-01-13T22:54:40Z</time>
      </trkpt>
      <trkpt lat="42.061780" lon="3.101150">
        <ele>9.0</ele>
        <time>2019-01-13T22:54:59Z</time>
      </trkpt>
      <trkpt lat="42.062570" lon="3.100760">
        <ele>10.0</ele>
        <time>2019-01-13T22:55:12Z</time>
      </trkpt>
      <trkpt lat="42.063500" lon="3.100350">
        <ele>10.0</ele>
        <time>2019-01-13T22:55:28Z</time>
      </trkpt>
      <trkpt lat="42.064590" lon="3.099930">
        <ele>11.0</ele>
        <time>2019-01-13T22:55:46Z</time>
      </trkpt>
      <trkpt lat="42.065530" lon="3.099450">
        <ele>12.0</ele>
        <time>2019-01-13T22:56:02Z</time>
      </trkpt>
      <trkpt lat="42.066520" lon="3.099020">
        <ele>13.0</ele>
        <time>2019-01-13T22:56:19Z</time>
      </trkpt>
      <trkpt lat="42.067790" lon="3.098750">
        <ele>15.0</ele>
        <time>2019-01-13T22:56:39Z</time>
      </trkpt>
      <trkpt lat="42.068900" lon="3.098600">
        <ele>16.0</ele>
        <time>2019-01-13T22:56:57Z</time>
      </trkpt>
      <trkpt lat="42.070210" lon="3.098320">
        <ele>15.0</ele>
        <time>2019-01-13T22:57:18Z</time>
      </trkpt>
      <trkpt lat="42.071310" lon="3.098020">
        <ele>13.0</ele>
        <time>2019-01-13T22:57:36Z</time>
      </trkpt>
      <trkpt lat="42.072620" lon="3.097760">
        <ele>12.0</ele>
        <time>2019-01-13T22:57:58Z</time>
      </trkpt>
      <trkpt lat="42.073670" lon="3.097670">
        <ele>12.0</ele>
        <time>2019-01-13T22:58:14Z</time>
      </trkpt>
      <trkpt lat="42.075210" lon="3.097440">
        <ele>12.0</ele>
        <time>2019-01-13T22:58:39Z</time>
      </trkpt>
      <trkpt lat="42.076390" lon="3.097390">
        <ele>12.0</ele>
        <time>2019-01-13T22:58:58Z</time>
      </trkpt>
      <trkpt lat="42.077080" lon="3.097350">
        <ele>12.0</ele>
        <time>2019-01-13T22:59:09Z</time>
      </trkpt>
      <trkpt lat="42.077210" lon="3.097330">
        <ele>12.0</ele>
        <time>2019-01-13T22:59:11Z</time>
      </trkpt>
      <trkpt lat="42.077590" lon="3.097260">
        <ele>12.0</ele>
        <time>2019-01-13T22:59:17Z</time>
      </trkpt>
      <trkpt lat="42.078220" lon="3.097160">
        <ele>13.0</ele>
        <time>2019-01-13T22:59:28Z</time>
      </trkpt>
      <trkpt lat="42.078410" lon="3.097030">
        <ele>14.0</ele>
        <time>2019-01-13T22:59:31Z</time>
      </trkpt>
      <trkpt lat="42.078920" lon="3.096430">
        <ele>16.0</ele>
        <time>2019-01-13T22:59:42Z</time>
      </trkpt>
      <trkpt lat="42.079400" lon="3.095740">
        <ele>19.0</ele>
        <time>2019-01-13T22:59:53Z</time>
      </trkpt>
      <trkpt lat="42.079870" lon="3.095080">
        <ele>23.0</ele>
        <time>2019-01-13T23:00:04Z</time>
      </trkpt>
      <trkpt lat="42.080100" lon="3.095010">
        <ele>25.0</ele>
        <time>2019-01-13T23:00:08Z</time>
      </trkpt>
      <trkpt lat="42.080920" lon="3.095250">
        <ele>23.0</ele>
        <time>2019-01-13T23:00:21Z</time>
      </trkpt>
      <trkpt lat="42.081650" lon="3.095480">
        <ele>18.0</ele>
        <time>2019-01-13T23:00:33Z</time>
      </trkpt>
      <trkpt lat="42.082340" lon="3.095700">
        <ele>17.0</ele>
        <time>2019-01-13T23:00:44Z</time>
      </trkpt>
      <trkpt lat="42.083130" lon="3.095460">
        <ele>18.0</ele>
        <time>2019-01-13T23:00:57Z</time>
      </trkpt>
      <trkpt lat="42.083410" lon="3.095330">
        <ele>19.0</ele>
        <time>2019-01-13T23:01:02Z</time>
      </trkpt>
      <trkpt lat="42.083640" lon="3.094800">
        <ele>18.0</ele>
        <time>2019-01-13T23:01:09Z</time>
      </trkpt>
      <trkpt lat="42.083710" lon="3.094390">
        <ele>16.0</ele>
        <time>2019-01-13T23:01:14Z</time>
      </trkpt>
      <trkpt lat="42.083880" lon="3.093870">
        <ele>14.0</ele>
        <time>2019-01-13T23:01:21Z</time>
      </trkpt>
      <trkpt lat="42.084010" lon="3.092610">
        <ele>9.0</ele>
        <time>2019-01-13T23:01:36Z</time>
      </trkpt>
      <trkpt lat="42.084030" lon="3.092180">
        <ele>8.0</ele>
        <time>2019-01-13T23:01:41Z</time>
      </trkpt>
      <trkpt lat="42.084330" lon="3.091730">
        <ele>7.0</ele>
        <time>2019-01-13T23:01:49Z</time>
      </trkpt>
      <trkpt lat="42.084630" lon="3.091730">
        <ele>6.0</ele>
        <time>2019-01-13T23:01:53Z</time>
      </trkpt>
      <trkpt lat="42.084830" lon="3.091770">
        <ele>6.0</ele>
        <time>2019-01-13T23:01:57Z</time>
      </trkpt>
      <trkpt lat="42.085550" lon="3.091710">
        <ele>6.0</ele>
        <time>2019-01-13T23:02:08Z</time>
      </trkpt>
      <trkpt lat="42.086030" lon="3.091620">
        <ele>6.0</ele>
        <time>2019-01-13T23:02:16Z</time>
      </trkpt>
      <trkpt lat="42.086310" lon="3.091430">
        <ele>6.0</ele>
        <time>2019-01-13T23:02:21Z</time>
      </trkpt>
      <trkpt lat="42.086990" lon="3.090780">
        <ele>6.0</ele>
        <time>2019-01-13T23:02:34Z</time>
      </trkpt>
      <trkpt lat="42.087680" lon="3.090630">
        <ele>6.0</ele>
        <time>2019-01-13T23:02:46Z</time>
      </trkpt>
      <trkpt lat="42.088820" lon="3.090400">
        <ele>6.0</ele>
        <time>2019-01-13T23:03:04Z</time>
      </trkpt>
      <trkpt lat="42.089100" lon="3.090230">
        <ele>6.0</ele>
        <time>2019-01-13T23:03:09Z</time>
      </trkpt>
      <trkpt lat="42.089290" lon="3.090030">
        <ele>6.0</ele>
        <time>2019-01-13T23:03:13Z</time>
      </trkpt>
      <trkpt lat="42.090150" lon="3.089730">
        <ele>6.0</ele>
        <time>2019-01-13T23:03:27Z</time>
      </trkpt>
      <trkpt lat="42.091220" lon="3.089480">
        <ele>7.0</ele>
        <time>2019-01-13T23:03:44Z</time>
      </trkpt>
      <trkpt lat="42.091970" lon="3.089030">
        <ele>7.0</ele>
        <time>2019-01-13T23:03:58Z</time>
      </trkpt>
      <trkpt lat="42.093150" lon="3.088360">
        <ele>6.0</ele>
        <time>2019-01-13T23:04:18Z</time>
      </trkpt>
      <trkpt lat="42.094630" lon="3.087840">
        <ele>7.0</ele>
        <time>2019-01-13T23:04:43Z</time>
      </trkpt>
      <trkpt lat="42.096390" lon="3.087220">
        <ele>7.0</ele>
        <time>2019-01-13T23:05:12Z</time>
      </trkpt>
      <trkpt lat="42.097060" lon="3.086750">
        <ele>7.0</ele>
        <time>2019-01-13T23:05:24Z</time>
      </trkpt>
      <trkpt lat="42.097680" lon="3.086410">
        <ele>7.0</ele>
        <time>2019-01-13T23:05:34Z</time>
      </trkpt>
      <trkpt lat="42.098790" lon="3.086190">
        <ele>7.0</ele>
        <time>2019-01-13T23:05:52Z</time>
      </trkpt>
      <trkpt lat="42.099220" lon="3.086320">
        <ele>7.0</ele>
        <time>2019-01-13T23:06:00Z</time>
      </trkpt>
      <trkpt lat="42.099370" lon="3.086410">
        <ele>6.0</ele>
        <time>2019-01-13T23:06:02Z</time>
      </trkpt>
      <trkpt lat="42.099950" lon="3.086360">
        <ele>7.0</ele>
        <time>2019-01-13T23:06:11Z</time>
      </trkpt>
      <trkpt lat="42.101110" lon="3.085910">
        <ele>6.0</ele>
        <time>2019-01-13T23:06:31Z</time>
      </trkpt>
      <trkpt lat="42.102060" lon="3.085810">
        <ele>8.0</ele>
        <time>2019-01-13T23:06:46Z</time>
      </trkpt>
      <trkpt lat="42.102720" lon="3.085460">
        <ele>12.0</ele>
        <time>2019-01-13T23:06:57Z</time>
      </trkpt>
      <trkpt lat="42.102910" lon="3.085630">
        <ele>12.0</ele>
        <time>2019-01-13T23:07:01Z</time>
      </trkpt>
      <trkpt lat="42.102890" lon="3.085780">
        <ele>12.0</ele>
        <time>2019-01-13T23:07:03Z</time>
      </trkpt>
      <trkpt lat="42.102890" lon="3.086920">
        <ele>10.0</ele>
        <time>2019-01-13T23:07:16Z</time>
      </trkpt>
      <trkpt lat="42.103130" lon="3.087160">
        <ele>10.0</ele>
        <time>2019-01-13T23:07:21Z</time>
      </trkpt>
      <trkpt lat="42.104270" lon="3.087420">
        <ele>10.0</ele>
        <time>2019-01-13T23:07:40Z</time>
      </trkpt>
      <trkpt lat="42.105040" lon="3.087290">
        <ele>11.0</ele>
        <time>2019-01-13T23:07:52Z</time>
      </trkpt>
      <trkpt lat="42.105300" lon="3.087160">
        <ele>11.0</ele>
        <time>2019-01-13T23:07:57Z</time>
      </trkpt>
      <trkpt lat="42.105510" lon="3.087270">
        <ele>10.0</ele>
        <time>2019-01-13T23:08:00Z</time>
      </trkpt>
      <trkpt lat="42.105810" lon="3.088770">
        <ele>6.0</ele>
        <time>2019-01-13T23:08:19Z</time>
      </trkpt>
      <trkpt lat="42.106000" lon="3.090050">
        <ele>5.0</ele>
        <time>2019-01-13T23:08:34Z</time>
      </trkpt>
      <trkpt lat="42.106370" lon="3.090890">
        <ele>5.0</ele>
        <time>2019-01-13T23:08:46Z</time>
      </trkpt>
      <trkpt lat="42.106970" lon="3.091510">
        <ele>5.0</ele>
        <time>2019-01-13T23:08:58Z</time>
      </trkpt>
      <trkpt lat="42.107550" lon="3.091960">
        <ele>5.0</ele>
        <time>2019-01-13T23:09:09Z</time>
      </trkpt>
      <trkpt lat="42.108240" lon="3.092520">
        <ele>5.0</ele>
        <time>2019-01-13T23:09:21Z</time>
      </trkpt>
      <trkpt lat="42.108640" lon="3.092780">
        <ele>5.0</ele>
        <time>2019-01-13T23:09:29Z</time>
      </trkpt>
      <trkpt lat="42.109390" lon="3.093660">
        <ele>5.0</ele>
        <time>2019-01-13T23:09:44Z</time>
      </trkpt>
      <trkpt lat="42.110060" lon="3.094820">
        <ele>5.0</ele>
        <time>2019-01-13T23:10:02Z</time>
      </trkpt>
      <trkpt lat="42.110570" lon="3.095810">
        <ele>5.0</ele>
        <time>2019-01-13T23:10:16Z</time>
      </trkpt>
      <trkpt lat="42.111350" lon="3.096660">
        <ele>4.0</ele>
        <time>2019-01-13T23:10:32Z</time>
      </trkpt>
      <trkpt lat="42.112510" lon="3.098060">
        <ele>4.0</ele>
        <time>2019-01-13T23:10:57Z</time>
      </trkpt>
      <trkpt lat="42.113230" lon="3.099390">
        <ele>3.0</ele>
        <time>2019-01-13T23:11:17Z</time>
      </trkpt>
      <trkpt lat="42.113960" lon="3.100960">
        <ele>2.0</ele>
        <time>2019-01-13T23:11:39Z</time>
      </trkpt>
      <trkpt lat="42.114800" lon="3.102440">
        <ele>2.0</ele>
        <time>2019-01-13T23:12:01Z</time>
      </trkpt>
      <trkpt lat="42.115420" lon="3.103620">
        <ele>1.0</ele>
        <time>2019-01-13T23:12:18Z</time>
      </trkpt>
      <trkpt lat="42.116220" lon="3.104670">
        <ele>1.0</ele>
        <time>2019-01-13T23:12:36Z</time>
      </trkpt>
      <trkpt lat="42.117140" lon="3.105910">
        <ele>2.0</ele>
        <time>2019-01-13T23:12:57Z</time>
      </trkpt>
      <trkpt lat="42.117630" lon="3.106300">
        <ele>2.0</ele>
        <time>2019-01-13T23:13:06Z</time>
      </trkpt>
      <trkpt lat="42.117890" lon="3.106680">
        <ele>2.0</ele>
        <time>2019-01-13T23:13:12Z</time>
      </trkpt>
      <trkpt lat="42.118450" lon="3.107990">
        <ele>1.0</ele>
        <time>2019-01-13T23:13:30Z</time>
      </trkpt>
      <trkpt lat="42.118900" lon="3.109820">
        <ele>2.0</ele>
        <time>2019-01-13T23:13:53Z</time>
      </trkpt>
      <trkpt lat="42.119200" lon="3.111020">
        <ele>4.0</ele>
        <time>2019-01-13T23:14:08Z</time>
      </trkpt>
      <trkpt lat="42.119610" lon="3.111530">
        <ele>5.0</ele>
        <time>2019-01-13T23:14:17Z</time>
      </trkpt>
      <trkpt lat="42.119910" lon="3.111620">
        <ele>6.0</ele>
        <time>2019-01-13T23:14:22Z</time>
      </trkpt>
      <trkpt lat="42.120590" lon="3.111920">
        <ele>11.0</ele>
        <time>2019-01-13T23:14:33Z</time>
      </trkpt>
      <trkpt lat="42.121020" lon="3.112590">
        <ele>12.0</ele>
        <time>2019-01-13T23:14:44Z</time>
      </trkpt>
      <trkpt lat="42.121500" lon="3.113440">
        <ele>10.0</ele>
        <time>2019-01-13T23:14:56Z</time>
      </trkpt>
      <trkpt lat="42.122080" lon="3.114770">
        <ele>8.0</ele>
        <time>2019-01-13T23:15:15Z</time>
      </trkpt>
      <trkpt lat="42.122630" lon="3.115910">
        <ele>4.0</ele>
        <time>2019-01-13T23:15:31Z</time>
      </trkpt>
      <trkpt lat="42.123040" lon="3.117160">
        <ele>3.0</ele>
        <time>2019-01-13T23:15:47Z</time>
      </trkpt>
      <trkpt lat="42.123490" lon="3.118620">
        <ele>4.0</ele>
        <time>2019-01-13T23:16:06Z</time>
      </trkpt>
      <trkpt lat="42.123860" lon="3.119690">
        <ele>4.0</ele>
        <time>2019-01-13T23:16:20Z</time>
      </trkpt>
      <trkpt lat="42.123900" lon="3.119840">
        <ele>4.0</ele>
        <time>2019-01-13T23:16:22Z</time>
      </trkpt>
      <trkpt lat="42.124070" lon="3.120400">
        <ele>3.0</ele>
        <time>2019-01-13T23:16:29Z</time>
      </trkpt>
      <trkpt lat="42.124330" lon="3.120400">
        <ele>3.0</ele>
        <time>2019-01-13T23:16:33Z</time>
      </trkpt>
      <trkpt lat="42.124500" lon="3.120100">
        <ele>4.0</ele>
        <time>2019-01-13T23:16:38Z</time>
      </trkpt>
      <trkpt lat="42.124500" lon="3.119900">
        <ele>4.0</ele>
        <time>2019-01-13T23:16:40Z</time>
      </trkpt>
      <trkpt lat="42.124610" lon="3.119340">
        <ele>3.0</ele>
        <time>2019-01-13T23:16:47Z</time>
      </trkpt>
      <trkpt lat="42.125340" lon="3.118250">
        <ele>3.0</ele>
        <time>2019-01-13T23:17:04Z</time>
      </trkpt>
      <trkpt lat="42.126370" lon="3.116920">
        <ele>7.0</ele>
        <time>2019-01-13T23:17:27Z</time>
      </trkpt>
      <trkpt lat="42.127630" lon="3.115220">
        <ele>13.0</ele>
        <time>2019-01-13T23:17:56Z</time>
      </trkpt>
      <trkpt lat="42.128430" lon="3.113920">
        <ele>12.0</ele>
        <time>2019-01-13T23:18:16Z</time>
      </trkpt>
      <trkpt lat="42.128900" lon="3.112610">
        <ele>7.0</ele>
        <time>2019-01-13T23:18:33Z</time>
      </trkpt>
      <trkpt lat="42.129090" lon="3.112070">
        <ele>6.0</ele>
        <time>2019-01-13T23:18:40Z</time>
      </trkpt>
      <trkpt lat="42.129480" lon="3.111790">
        <ele>5.0</ele>
        <time>2019-01-13T23:18:47Z</time>
      </trkpt>
      <trkpt lat="42.129740" lon="3.111900">
        <ele>5.0</ele>
        <time>2019-01-13T23:18:52Z</time>
      </trkpt>
      <trkpt lat="42.130380" lon="3.111860">
        <ele>7.0</ele>
        <time>2019-01-13T23:19:02Z</time>
      </trkpt>
      <trkpt lat="42.131690" lon="3.111080">
        <ele>6.0</ele>
        <time>2019-01-13T23:19:25Z</time>
      </trkpt>
      <trkpt lat="42.132950" lon="3.110650">
        <ele>6.0</ele>
        <time>2019-01-13T23:19:46Z</time>
      </trkpt>
      <trkpt lat="42.134480" lon="3.110250">
        <ele>5.0</ele>
        <time>2019-01-13T23:20:11Z</time>
      </trkpt>
      <trkpt lat="42.134930" lon="3.110380">
        <ele>4.0</ele>
        <time>2019-01-13T23:20:18Z</time>
      </trkpt>
      <trkpt lat="42.135230" lon="3.110850">
        <ele>4.0</ele>
        <time>2019-01-13T23:20:25Z</time>
      </trkpt>
      <trkpt lat="42.135290" lon="3.111430">
        <ele>5.0</ele>
        <time>2019-01-13T23:20:32Z</time>
      </trkpt>
      <trkpt lat="42.135440" lon="3.111710">
        <ele>5.0</ele>
        <time>2019-01-13T23:20:36Z</time>
      </trkpt>
      <trkpt lat="42.136220" lon="3.112500">
        <ele>6.0</ele>
        <time>2019-01-13T23:20:52Z</time>
      </trkpt>
      <trkpt lat="42.137010" lon="3.113010">
        <ele>6.0</ele>
        <time>2019-01-13T23:21:06Z</time>
      </trkpt>
      <trkpt lat="42.137330" lon="3.113530">
        <ele>6.0</ele>
        <time>2019-01-13T23:21:14Z</time>
      </trkpt>
      <trkpt lat="42.137850" lon="3.115030">
        <ele>6.0</ele>
        <time>2019-01-13T23:21:34Z</time>
      </trkpt>
      <trkpt lat="42.138560" lon="3.116170">
        <ele>4.0</ele>
        <time>2019-01-13T23:21:51Z</time>
      </trkpt>
      <trkpt lat="42.138710" lon="3.116300">
        <ele>4.0</ele>
        <time>2019-01-13T23:21:54Z</time>
      </trkpt>
      <trkpt lat="42.139090" lon="3.116510">
        <ele>3.0</ele>
        <time>2019-01-13T23:22:01Z</time>
      </trkpt>
      <trkpt lat="42.139540" lon="3.116450">
        <ele>3.0</ele>
        <time>2019-01-13T23:22:08Z</time>
      </trkpt>
      <trkpt lat="42.139930" lon="3.116150">
        <ele>3.0</ele>
        <time>2019-01-13T23:22:15Z</time>
      </trkpt>
      <trkpt lat="42.140190" lon="3.115680">
        <ele>2.0</ele>
        <time>2019-01-13T23:22:22Z</time>
      </trkpt>
      <trkpt lat="42.140510" lon="3.114900">
        <ele>2.0</ele>
        <time>2019-01-13T23:22:33Z</time>
      </trkpt>
      <trkpt lat="42.140770" lon="3.114580">
        <ele>2.0</ele>
        <time>2019-01-13T23:22:38Z</time>
      </trkpt>
      <trkpt lat="42.141820" lon="3.113570">
        <ele>1.0</ele>
        <time>2019-01-13T23:22:59Z</time>
      </trkpt>
      <trkpt lat="42.141900" lon="3.113490">
        <ele>1.0</ele>
        <time>2019-01-13T23:23:01Z</time>
      </trkpt>
      <trkpt lat="42.142070" lon="3.113010">
        <ele>0.0</ele>
        <time>2019-01-13T23:23:07Z</time>
      </trkpt>
      <trkpt lat="42.141900" lon="3.112440">
        <ele>0.0</ele>
        <time>2019-01-13T23:23:14Z</time>
      </trkpt>
      <trkpt lat="42.141640" lon="3.111920">
        <ele>0.0</ele>
        <time>2019-01-13T23:23:22Z</time>
      </trkpt>
      <trkpt lat="42.141580" lon="3.111170">
        <ele>0.0</ele>
        <time>2019-01-13T23:23:31Z</time>
      </trkpt>
      <trkpt lat="42.141750" lon="3.109920">
        <ele>0.0</ele>
        <time>2019-01-13T23:23:46Z</time>
      </trkpt>
      <trkpt lat="42.142120" lon="3.109220">
        <ele>0.0</ele>
        <time>2019-01-13T23:23:56Z</time>
      </trkpt>
      <trkpt lat="42.142460" lon="3.109000">
        <ele>0.0</ele>
        <time>2019-01-13T23:24:02Z</time>
      </trkpt>
      <trkpt lat="42.144160" lon="3.108400">
        <ele>0.0</ele>
        <time>2019-01-13T23:24:30Z</time>
      </trkpt>
      <trkpt lat="42.145610" lon="3.107910">
        <ele>0.0</ele>
        <time>2019-01-13T23:24:54Z</time>
      </trkpt>
      <trkpt lat="42.146020" lon="3.108100">
        <ele>0.0</ele>
        <time>2019-01-13T23:25:01Z</time>
      </trkpt>
      <trkpt lat="42.147160" lon="3.109350">
        <ele>0.0</ele>
        <time>2019-01-13T23:25:25Z</time>
      </trkpt>
      <trkpt lat="42.148250" lon="3.110200">
        <ele>1.0</ele>
        <time>2019-01-13T23:25:45Z</time>
      </trkpt>
      <trkpt lat="42.149540" lon="3.111000">
        <ele>1.0</ele>
        <time>2019-01-13T23:26:07Z</time>
      </trkpt>
      <trkpt lat="42.150510" lon="3.111230">
        <ele>1.0</ele>
        <time>2019-01-13T23:26:23Z</time>
      </trkpt>
      <trkpt lat="42.151940" lon="3.111490">
        <ele>1.0</ele>
        <time>2019-01-13T23:26:46Z</time>
      </trkpt>
      <trkpt lat="42.153040" lon="3.111510">
        <ele>1.0</ele>
        <time>2019-01-13T23:27:04Z</time>
      </trkpt>
      <trkpt lat="42.154460" lon="3.111490">
        <ele>3.0</ele>
        <time>2019-01-13T23:27:27Z</time>
      </trkpt>
      <trkpt lat="42.156060" lon="3.111470">
        <ele>3.0</ele>
        <time>2019-01-13T23:27:52Z</time>
      </trkpt>
      <trkpt lat="42.157420" lon="3.111340">
        <ele>3.0</ele>
        <time>2019-01-13T23:28:14Z</time>
      </trkpt>
      <trkpt lat="42.158550" lon="3.110890">
        <ele>3.0</ele>
        <time>2019-01-13T23:28:33Z</time>
      </trkpt>
      <trkpt lat="42.159300" lon="3.110180">
        <ele>3.0</ele>
        <time>2019-01-13T23:28:48Z</time>
      </trkpt>
      <trkpt lat="42.160270" lon="3.108890">
        <ele>3.0</ele>
        <time>2019-01-13T23:29:09Z</time>
      </trkpt>
      <trkpt lat="42.160610" lon="3.108040">
        <ele>3.0</ele>
        <time>2019-01-13T23:29:21Z</time>
      </trkpt>
      <trkpt lat="42.160960" lon="3.106750">
        <ele>2.0</ele>
        <time>2019-01-13T23:29:37Z</time>
      </trkpt>
      <trkpt lat="42.161060" lon="3.105760">
        <ele>2.0</ele>
        <time>2019-01-13T23:29:49Z</time>
      </trkpt>
      <trkpt lat="42.161390" lon="3.105200">
        <ele>2.0</ele>
        <time>2019-01-13T23:29:58Z</time>
      </trkpt>
      <trkpt lat="42.161470" lon="3.105140">
        <ele>2.0</ele>
        <time>2019-01-13T23:29:59Z</time>
      </trkpt>
      <trkpt lat="42.162440" lon="3.104750">
        <ele>2.0</ele>
        <time>2019-01-13T23:30:15Z</time>
      </trkpt>
      <trkpt lat="42.162630" lon="3.104710">
        <ele>2.0</ele>
        <time>2019-01-13T23:30:18Z</time>
      </trkpt>
      <trkpt lat="42.163360" lon="3.104200">
        <ele>2.0</ele>
        <time>2019-01-13T23:30:32Z</time>
      </trkpt>
      <trkpt lat="42.164410" lon="3.103230">
        <ele>2.0</ele>
        <time>2019-01-13T23:30:52Z</time>
      </trkpt>
      <trkpt lat="42.165270" lon="3.102330">
        <ele>2.0</ele>
        <time>2019-01-13T23:31:09Z</time>
      </trkpt>
      <trkpt lat="42.165480" lon="3.102140">
        <ele>2.0</ele>
        <time>2019-01-13T23:31:13Z</time>
      </trkpt>
      <trkpt lat="42.165630" lon="3.101600">
        <ele>2.0</ele>
        <time>2019-01-13T23:31:20Z</time>
      </trkpt>
      <trkpt lat="42.165510" lon="3.101150">
        <ele>2.0</ele>
        <time>2019-01-13T23:31:26Z</time>
      </trkpt>
      <trkpt lat="42.165530" lon="3.100440">
        <ele>3.0</ele>
        <time>2019-01-13T23:31:34Z</time>
      </trkpt>
      <trkpt lat="42.165570" lon="3.099930">
        <ele>3.0</ele>
        <time>2019-01-13T23:31:40Z</time>
      </trkpt>
      <trkpt lat="42.165550" lon="3.097840">
        <ele>3.0</ele>
        <time>2019-01-13T23:32:05Z</time>
      </trkpt>
      <trkpt lat="42.165610" lon="3.096560">
        <ele>3.0</ele>
        <time>2019-01-13T23:32:20Z</time>
      </trkpt>
      <trkpt lat="42.165630" lon="3.096190">
        <ele>3.0</ele>
        <time>2019-01-13T23:32:25Z</time>
      </trkpt>
      <trkpt lat="42.165890" lon="3.095760">
        <ele>3.0</ele>
        <time>2019-01-13T23:32:31Z</time>
      </trkpt>
      <trkpt lat="42.166000" lon="3.095760">
        <ele>3.0</ele>
        <time>2019-01-13T23:32:33Z</time>
      </trkpt>
      <trkpt lat="42.167330" lon="3.095610">
        <ele>4.0</ele>
        <time>2019-01-13T23:32:55Z</time>
      </trkpt>
      <trkpt lat="42.168830" lon="3.095380">
        <ele>3.0</ele>
        <time>2019-01-13T23:33:19Z</time>
      </trkpt>
      <trkpt lat="42.169840" lon="3.094950">
        <ele>3.0</ele>
        <time>2019-01-13T23:33:36Z</time>
      </trkpt>
      <trkpt lat="42.171190" lon="3.094200">
        <ele>4.0</ele>
        <time>2019-01-13T23:33:59Z</time>
      </trkpt>
      <trkpt lat="42.172050" lon="3.094000">
        <ele>4.0</ele>
        <time>2019-01-13T23:34:13Z</time>
      </trkpt>
      <trkpt lat="42.173020" lon="3.094090">
        <ele>5.0</ele>
        <time>2019-01-13T23:34:29Z</time>
      </trkpt>
      <trkpt lat="42.173770" lon="3.093850">
        <ele>4.0</ele>
        <time>2019-01-13T23:34:41Z</time>
      </trkpt>
      <trkpt lat="42.174800" lon="3.093450">
        <ele>4.0</ele>
        <time>2019-01-13T23:34:58Z</time>
      </trkpt>
      <trkpt lat="42.174900" lon="3.093420">
        <ele>4.0</ele>
        <time>2019-01-13T23:35:00Z</time>
      </trkpt>
      <trkpt lat="42.175850" lon="3.093700">
        <ele>4.0</ele>
        <time>2019-01-13T23:35:15Z</time>
      </trkpt>
      <trkpt lat="42.177370" lon="3.094240">
        <ele>4.0</ele>
        <time>2019-01-13T23:35:40Z</time>
      </trkpt>
      <trkpt lat="42.178900" lon="3.094800">
        <ele>4.0</ele>
        <time>2019-01-13T23:36:06Z</time>
      </trkpt>
      <trkpt lat="42.179860" lon="3.094710">
        <ele>4.0</ele>
        <time>2019-01-13T23:36:21Z</time>
      </trkpt>
      <trkpt lat="42.181060" lon="3.094070">
        <ele>4.0</ele>
        <time>2019-01-13T23:36:42Z</time>
      </trkpt>
      <trkpt lat="42.181920" lon="3.093530">
        <ele>5.0</ele>
        <time>2019-01-13T23:36:57Z</time>
      </trkpt>
      <trkpt lat="42.182950" lon="3.093380">
        <ele>5.0</ele>
        <time>2019-01-13T23:37:14Z</time>
      </trkpt>
      <trkpt lat="42.183680" lon="3.093450">
        <ele>4.0</ele>
        <time>2019-01-13T23:37:25Z</time>
      </trkpt>
      <trkpt lat="42.184390" lon="3.093140">
        <ele>5.0</ele>
        <time>2019-01-13T23:37:37Z</time>
      </trkpt>
      <trkpt lat="42.185120" lon="3.092540">
        <ele>4.0</ele>
        <time>2019-01-13T23:37:51Z</time>
      </trkpt>
      <trkpt lat="42.185890" lon="3.092200">
        <ele>4.0</ele>
        <time>2019-01-13T23:38:04Z</time>
      </trkpt>
      <trkpt lat="42.185980" lon="3.092160">
        <ele>4.0</ele>
        <time>2019-01-13T23:38:06Z</time>
      </trkpt>
      <trkpt lat="42.186300" lon="3.091840">
        <ele>4.0</ele>
        <time>2019-01-13T23:38:12Z</time>
      </trkpt>
      <trkpt lat="42.186410" lon="3.091470">
        <ele>4.0</ele>
        <time>2019-01-13T23:38:17Z</time>
      </trkpt>
      <trkpt lat="42.186380" lon="3.090780">
        <ele>5.0</ele>
        <time>2019-01-13T23:38:25Z</time>
      </trkpt>
      <trkpt lat="42.186620" lon="3.090360">
        <ele>6.0</ele>
        <time>2019-01-13T23:38:31Z</time>
      </trkpt>
      <trkpt lat="42.186770" lon="3.090270">
        <ele>6.0</ele>
        <time>2019-01-13T23:38:34Z</time>
      </trkpt>
      <trkpt lat="42.186940" lon="3.090160">
        <ele>6.0</ele>
        <time>2019-01-13T23:38:37Z</time>
      </trkpt>
      <trkpt lat="42.187290" lon="3.089730">
        <ele>6.0</ele>
        <time>2019-01-13T23:38:44Z</time>
      </trkpt>
      <trkpt lat="42.187390" lon="3.089280">
        <ele>6.0</ele>
        <time>2019-01-13T23:38:50Z</time>
      </trkpt>
      <trkpt lat="42.187260" lon="3.088170">
        <ele>5.0</ele>
        <time>2019-01-13T23:39:03Z</time>
      </trkpt>
      <trkpt lat="42.187200" lon="3.087780">
        <ele>4.0</ele>
        <time>2019-01-13T23:39:08Z</time>
      </trkpt>
      <trkpt lat="42.186900" lon="3.087030">
        <ele>3.0</ele>
        <time>2019-01-13T23:39:18Z</time>
      </trkpt>
      <trkpt lat="42.186880" lon="3.086940">
        <ele>3.0</ele>
        <time>2019-01-13T23:39:19Z</time>
      </trkpt>
      <trkpt lat="42.186990" lon="3.086210">
        <ele>1.0</ele>
        <time>2019-01-13T23:39:28Z</time>
      </trkpt>
      <trkpt lat="42.187630" lon="3.084880">
        <ele>3.0</ele>
        <time>2019-01-13T23:39:47Z</time>
      </trkpt>
      <trkpt lat="42.188040" lon="3.084580">
        <ele>4.0</ele>
        <time>2019-01-13T23:39:54Z</time>
      </trkpt>
      <trkpt lat="42.188290" lon="3.084630">
        <ele>4.0</ele>
        <time>2019-01-13T23:39:58Z</time>
      </trkpt>
      <trkpt lat="42.188810" lon="3.084730">
        <ele>3.0</ele>
        <time>2019-01-13T23:40:07Z</time>
      </trkpt>
      <trkpt lat="42.189350" lon="3.084990">
        <ele>3.0</ele>
        <time>2019-01-13T23:40:16Z</time>
      </trkpt>
      <trkpt lat="42.190010" lon="3.085740">
        <ele>3.0</ele>
        <time>2019-01-13T23:40:30Z</time>
      </trkpt>
      <trkpt lat="42.190850" lon="3.086430">
        <ele>3.0</ele>
        <time>2019-01-13T23:40:46Z</time>
      </trkpt>
      <trkpt lat="42.190910" lon="3.086470">
        <ele>3.0</ele>
        <time>2019-01-13T23:40:47Z</time>
      </trkpt>
      <trkpt lat="42.191190" lon="3.086450">
        <ele>3.0</ele>
        <time>2019-01-13T23:40:51Z</time>
      </trkpt>
      <trkpt lat="42.191580" lon="3.086130">
        <ele>3.0</ele>
        <time>2019-01-13T23:40:58Z</time>
      </trkpt>
      <trkpt lat="42.191750" lon="3.085590">
        <ele>4.0</ele>
        <time>2019-01-13T23:41:05Z</time>
      </trkpt>
      <trkpt lat="42.191730" lon="3.085330">
        <ele>4.0</ele>
        <time>2019-01-13T23:41:08Z</time>
      </trkpt>
      <trkpt lat="42.191600" lon="3.083720">
        <ele>4.0</ele>
        <time>2019-01-13T23:41:28Z</time>
      </trkpt>
      <trkpt lat="42.191490" lon="3.082650">
        <ele>3.0</ele>
        <time>2019-01-13T23:41:40Z</time>
      </trkpt>
      <trkpt lat="42.191710" lon="3.082350">
        <ele>3.0</ele>
        <time>2019-01-13T23:41:45Z</time>
      </trkpt>
      <trkpt lat="42.191790" lon="3.082370">
        <ele>3.0</ele>
        <time>2019-01-13T23:41:47Z</time>
      </trkpt>
      <trkpt lat="42.192820" lon="3.082570">
        <ele>5.0</ele>
        <time>2019-01-13T23:42:03Z</time>
      </trkpt>
      <trkpt lat="42.193720" lon="3.082720">
        <ele>3.0</ele>
        <time>2019-01-13T23:42:18Z</time>
      </trkpt>
      <trkpt lat="42.194650" lon="3.082820">
        <ele>2.0</ele>
        <time>2019-01-13T23:42:33Z</time>
      </trkpt>
      <trkpt lat="42.195870" lon="3.082970">
        <ele>2.0</ele>
        <time>2019-01-13T23:42:53Z</time>
      </trkpt>
      <trkpt lat="42.197090" lon="3.083190">
        <ele>2.0</ele>
        <time>2019-01-13T23:43:12Z</time>
      </trkpt>
      <trkpt lat="42.198380" lon="3.083400">
        <ele>2.0</ele>
        <time>2019-01-13T23:43:33Z</time>
      </trkpt>
      <trkpt lat="42.199820" lon="3.083660">
        <ele>2.0</ele>
        <time>2019-01-13T23:43:56Z</time>
      </trkpt>
      <trkpt lat="42.201580" lon="3.083940">
        <ele>2.0</ele>
        <time>2019-01-13T23:44:25Z</time>
      </trkpt>
      <trkpt lat="42.202990" lon="3.084200">
        <ele>2.0</ele>
        <time>2019-01-13T23:44:47Z</time>
      </trkpt>
      <trkpt lat="42.204470" lon="3.084430">
        <ele>1.0</ele>
        <time>2019-01-13T23:45:11Z</time>
      </trkpt>
      <trkpt lat="42.205850" lon="3.084670">
        <ele>1.0</ele>
        <time>2019-01-13T23:45:34Z</time>
      </trkpt>
      <trkpt lat="42.206900" lon="3.084840">
        <ele>1.0</ele>
        <time>2019-01-13T23:45:51Z</time>
      </trkpt>
      <trkpt lat="42.208660" lon="3.085140">
        <ele>1.0</ele>
        <time>2019-01-13T23:46:19Z</time>
      </trkpt>
      <trkpt lat="42.210070" lon="3.085380">
        <ele>1.0</ele>
        <time>2019-01-13T23:46:42Z</time>
      </trkpt>
      <trkpt lat="42.211620" lon="3.085680">
        <ele>1.0</ele>
        <time>2019-01-13T23:47:07Z</time>
      </trkpt>
      <trkpt lat="42.212390" lon="3.086090">
        <ele>1.0</ele>
        <time>2019-01-13T23:47:20Z</time>
      </trkpt>
      <trkpt lat="42.213340" lon="3.086730">
        <ele>1.0</ele>
        <time>2019-01-13T23:47:37Z</time>
      </trkpt>
      <trkpt lat="42.214770" lon="3.087690">
        <ele>1.0</ele>
        <time>2019-01-13T23:48:03Z</time>
      </trkpt>
      <trkpt lat="42.216020" lon="3.088510">
        <ele>1.0</ele>
        <time>2019-01-13T23:48:25Z</time>
      </trkpt>
      <trkpt lat="42.216730" lon="3.088750">
        <ele>1.0</ele>
        <time>2019-01-13T23:48:37Z</time>
      </trkpt>
      <trkpt lat="42.217670" lon="3.088510">
        <ele>1.0</ele>
        <time>2019-01-13T23:48:52Z</time>
      </trkpt>
      <trkpt lat="42.218610" lon="3.088510">
        <ele>1.0</ele>
        <time>2019-01-13T23:49:07Z</time>
      </trkpt>
      <trkpt lat="42.220050" lon="3.088600">
        <ele>1.0</ele>
        <time>2019-01-13T23:49:30Z</time>
      </trkpt>
      <trkpt lat="42.220220" lon="3.088550">
        <ele>1.0</ele>
        <time>2019-01-13T23:49:33Z</time>
      </trkpt>
      <trkpt lat="42.221300" lon="3.087930">
        <ele>1.0</ele>
        <time>2019-01-13T23:49:52Z</time>
      </trkpt>
      <trkpt lat="42.222280" lon="3.087440">
        <ele>1.0</ele>
        <time>2019-01-13T23:50:08Z</time>
      </trkpt>
      <trkpt lat="42.223180" lon="3.087520">
        <ele>1.0</ele>
        <time>2019-01-13T23:50:23Z</time>
      </trkpt>
      <trkpt lat="42.224340" lon="3.087740">
        <ele>1.0</ele>
        <time>2019-01-13T23:50:42Z</time>
      </trkpt>
      <trkpt lat="42.225070" lon="3.087500">
        <ele>1.0</ele>
        <time>2019-01-13T23:50:54Z</time>
      </trkpt>
      <trkpt lat="42.225840" lon="3.086970">
        <ele>2.0</ele>
        <time>2019-01-13T23:51:07Z</time>
      </trkpt>
      <trkpt lat="42.227200" lon="3.086280">
        <ele>1.0</ele>
        <time>2019-01-13T23:51:31Z</time>
      </trkpt>
      <trkpt lat="42.228420" lon="3.085440">
        <ele>1.0</ele>
        <time>2019-01-13T23:51:53Z</time>
      </trkpt>
      <trkpt lat="42.229900" lon="3.084410">
        <ele>0.0</ele>
        <time>2019-01-13T23:52:19Z</time>
      </trkpt>
      <trkpt lat="42.231380" lon="3.083660">
        <ele>1.0</ele>
        <time>2019-01-13T23:52:45Z</time>
      </trkpt>
      <trkpt lat="42.232430" lon="3.083490">
        <ele>1.0</ele>
        <time>2019-01-13T23:53:01Z</time>
      </trkpt>
      <trkpt lat="42.234000" lon="3.083360">
        <ele>1.0</ele>
        <time>2019-01-13T23:53:27Z</time>
      </trkpt>
      <trkpt lat="42.235090" lon="3.082850">
        <ele>2.0</ele>
        <time>2019-01-13T23:53:45Z</time>
      </trkpt>
      <trkpt lat="42.236290" lon="3.082120">
        <ele>3.0</ele>
        <time>2019-01-13T23:54:06Z</time>
      </trkpt>
      <trkpt lat="42.237410" lon="3.081340">
        <ele>3.0</ele>
        <time>2019-01-13T23:54:26Z</time>
      </trkpt>
      <trkpt lat="42.238380" lon="3.080680">
        <ele>3.0</ele>
        <time>2019-01-13T23:54:44Z</time>
      </trkpt>
      <trkpt lat="42.239790" lon="3.079690">
        <ele>4.0</ele>
        <time>2019-01-13T23:55:09Z</time>
      </trkpt>
      <trkpt lat="42.241320" lon="3.078920">
        <ele>4.0</ele>
        <time>2019-01-13T23:55:35Z</time>
      </trkpt>
      <trkpt lat="42.243010" lon="3.078040">
        <ele>3.0</ele>
        <time>2019-01-13T23:56:04Z</time>
      </trkpt>
      <trkpt lat="42.244380" lon="3.077160">
        <ele>3.0</ele>
        <time>2019-01-13T23:56:29Z</time>
      </trkpt>
      <trkpt lat="42.245610" lon="3.076260">
        <ele>3.0</ele>
        <time>2019-01-13T23:56:51Z</time>
      </trkpt>
      <trkpt lat="42.246420" lon="3.075420">
        <ele>5.0</ele>
        <time>2019-01-13T23:57:07Z</time>
      </trkpt>
      <trkpt lat="42.247260" lon="3.075030">
        <ele>5.0</ele>
        <time>2019-01-13T23:57:22Z</time>
      </trkpt>
      <trkpt lat="42.248290" lon="3.075030">
        <ele>4.0</ele>
        <time>2019-01-13T23:57:38Z</time>
      </trkpt>
      <trkpt lat="42.249580" lon="3.075290">
        <ele>5.0</ele>
        <time>2019-01-13T23:57:59Z</time>
      </trkpt>
      <trkpt lat="42.250540" lon="3.075660">
        <ele>7.0</ele>
        <time>2019-01-13T23:58:15Z</time>
      </trkpt>
      <trkpt lat="42.250890" lon="3.075940">
        <ele>8.0</ele>
        <time>2019-01-13T23:58:21Z</time>
      </trkpt>
      <trkpt lat="42.251010" lon="3.076240">
        <ele>8.0</ele>
        <time>2019-01-13T23:58:26Z</time>
      </trkpt>
      <trkpt lat="42.251320" lon="3.076560">
        <ele>9.0</ele>
        <time>2019-01-13T23:58:32Z</time>
      </trkpt>
      <trkpt lat="42.251590" lon="3.076430">
        <ele>8.0</ele>
        <time>2019-01-13T23:58:36Z</time>
      </trkpt>
      <trkpt lat="42.251700" lon="3.076020">
        <ele>8.0</ele>
        <time>2019-01-13T23:58:42Z</time>
      </trkpt>
      <trkpt lat="42.251490" lon="3.075700">
        <ele>8.0</ele>
        <time>2019-01-13T23:58:47Z</time>
      </trkpt>
      <trkpt lat="42.251160" lon="3.075340">
        <ele>8.0</ele>
        <time>2019-01-13T23:58:53Z</time>
      </trkpt>
      <trkpt lat="42.250860" lon="3.074350">
        <ele>8.0</ele>
        <time>2019-01-13T23:59:06Z</time>
      </trkpt>
      <trkpt lat="42.250610" lon="3.073210">
        <ele>7.0</ele>
        <time>2019-01-13T23:59:20Z</time>
      </trkpt>
      <trkpt lat="42.250760" lon="3.072870">
        <ele>7.0</ele>
        <time>2019-01-13T23:59:25Z</time>
      </trkpt>
      <trkpt lat="42.250820" lon="3.072850">
        <ele>8.0</ele>
        <time>2019-01-13T23:59:26Z</time>
      </trkpt>
      <trkpt lat="42.251770" lon="3.072420">
        <ele>8.0</ele>
        <time>2019-01-13T23:59:42Z</time>
      </trkpt>
      <trkpt lat="42.252000" lon="3.072310">
        <ele>8.0</ele>
        <time>2019-01-13T23:59:46Z</time>
      </trkpt>
      <trkpt lat="42.252170" lon="3.071860">
        <ele>9.0</ele>
        <time>2019-01-13T23:59:52Z</time>
      </trkpt>
      <trkpt lat="42.252240" lon="3.071410">
        <ele>9.0</ele>
        <time>2019-01-13T23:59:57Z</time>
      </trkpt>
      <trkpt lat="42.252450" lon="3.070460">
        <ele>9.0</ele>
        <time>2019-01-14T00:00:09Z</time>
      </trkpt>
      <trkpt lat="42.252500" lon="3.070290">
        <ele>8.0</ele>
        <time>2019-01-14T00:00:11Z</time>
      </trkpt>
      <trkpt lat="42.253030" lon="3.069390">
        <ele>8.0</ele>
        <time>2019-01-14T00:00:25Z</time>
      </trkpt>
      <trkpt lat="42.253760" lon="3.068700">
        <ele>8.0</ele>
        <time>2019-01-14T00:00:39Z</time>
      </trkpt>
      <trkpt lat="42.254360" lon="3.068170">
        <ele>7.0</ele>
        <time>2019-01-14T00:00:51Z</time>
      </trkpt>
      <trkpt lat="42.254430" lon="3.067670">
        <ele>7.0</ele>
        <time>2019-01-14T00:00:57Z</time>
      </trkpt>
      <trkpt lat="42.254320" lon="3.067570">
        <ele>7.0</ele>
        <time>2019-01-14T00:00:59Z</time>
      </trkpt>
      <trkpt lat="42.253890" lon="3.067220">
        <ele>7.0</ele>
        <time>2019-01-14T00:01:07Z</time>
      </trkpt>
      <trkpt lat="42.253980" lon="3.067120">
        <ele>7.0</ele>
        <time>2019-01-14T00:01:09Z</time>
      </trkpt>
      <trkpt lat="42.254600" lon="3.067400">
        <ele>7.0</ele>
        <time>2019-01-14T00:01:19Z</time>
      </trkpt>
      <trkpt lat="42.254860" lon="3.067180">
        <ele>7.0</ele>
        <time>2019-01-14T00:01:24Z</time>
      </trkpt>
      <trkpt lat="42.255180" lon="3.066370">
        <ele>7.0</ele>
        <time>2019-01-14T00:01:35Z</time>
      </trkpt>
      <trkpt lat="42.255460" lon="3.065100">
        <ele>6.0</ele>
        <time>2019-01-14T00:01:51Z</time>
      </trkpt>
      <trkpt lat="42.255820" lon="3.063450">
        <ele>6.0</ele>
        <time>2019-01-14T00:02:11Z</time>
      </trkpt>
      <trkpt lat="42.256160" lon="3.061990">
        <ele>7.0</ele>
        <time>2019-01-14T00:02:29Z</time>
      </trkpt>
      <trkpt lat="42.256510" lon="3.060360">
        <ele>7.0</ele>
        <time>2019-01-14T00:02:49Z</time>
      </trkpt>
      <trkpt lat="42.256940" lon="3.058510">
        <ele>8.0</ele>
        <time>2019-01-14T00:03:12Z</time>
      </trkpt>
      <trkpt lat="42.257070" lon="3.057890">
        <ele>7.0</ele>
        <time>2019-01-14T00:03:20Z</time>
      </trkpt>
      <trkpt lat="42.257020" lon="3.057500">
        <ele>7.0</ele>
        <time>2019-01-14T00:03:24Z</time>
      </trkpt>
      <trkpt lat="42.257040" lon="3.057120">
        <ele>7.0</ele>
        <time>2019-01-14T00:03:29Z</time>
      </trkpt>
      <trkpt lat="42.256940" lon="3.056770">
        <ele>6.0</ele>
        <time>2019-01-14T00:03:33Z</time>
      </trkpt>
      <trkpt lat="42.256790" lon="3.056690">
        <ele>6.0</ele>
        <time>2019-01-14T00:03:36Z</time>
      </trkpt>
      <trkpt lat="42.255820" lon="3.056190">
        <ele>5.0</ele>
        <time>2019-01-14T00:03:53Z</time>
      </trkpt>
      <trkpt lat="42.255330" lon="3.055550">
        <ele>5.0</ele>
        <time>2019-01-14T00:04:04Z</time>
      </trkpt>
      <trkpt lat="42.254530" lon="3.054390">
        <ele>5.0</ele>
        <time>2019-01-14T00:04:22Z</time>
      </trkpt>
      <trkpt lat="42.253550" lon="3.052930">
        <ele>6.0</ele>
        <time>2019-01-14T00:04:46Z</time>
      </trkpt>
      <trkpt lat="42.252620" lon="3.051470">
        <ele>6.0</ele>
        <time>2019-01-14T00:05:09Z</time>
      </trkpt>
      <trkpt lat="42.252350" lon="3.050320">
        <ele>6.0</ele>
        <time>2019-01-14T00:05:23Z</time>
      </trkpt>
      <trkpt lat="42.251920" lon="3.049370">
        <ele>6.0</ele>
        <time>2019-01-14T00:05:36Z</time>
      </trkpt>
      <trkpt lat="42.251010" lon="3.048000">
        <ele>6.0</ele>
        <time>2019-01-14T00:05:58Z</time>
      </trkpt>
      <trkpt lat="42.249920" lon="3.046690">
        <ele>5.0</ele>
        <time>2019-01-14T00:06:21Z</time>
      </trkpt>
      <trkpt lat="42.248530" lon="3.045700">
        <ele>5.0</ele>
        <time>2019-01-14T00:06:46Z</time>
      </trkpt>
      <trkpt lat="42.247670" lon="3.044840">
        <ele>4.0</ele>
        <time>2019-01-14T00:07:03Z</time>
      </trkpt>
      <trkpt lat="42.246700" lon="3.043600">
        <ele>5.0</ele>
        <time>2019-01-14T00:07:25Z</time>
      </trkpt>
      <trkpt lat="42.246140" lon="3.042570">
        <ele>6.0</ele>
        <time>2019-01-14T00:07:40Z</time>
      </trkpt>
      <trkpt lat="42.245860" lon="3.041840">
        <ele>6.0</ele>
        <time>2019-01-14T00:07:50Z</time>
      </trkpt>
      <trkpt lat="42.245690" lon="3.041560">
        <ele>7.0</ele>
        <time>2019-01-14T00:07:54Z</time>
      </trkpt>
      <trkpt lat="42.245220" lon="3.040700">
        <ele>6.0</ele>
        <time>2019-01-14T00:08:07Z</time>
      </trkpt>
      <trkpt lat="42.244880" lon="3.039890">
        <ele>6.0</ele>
        <time>2019-01-14T00:08:18Z</time>
      </trkpt>
      <trkpt lat="42.244660" lon="3.039350">
        <ele>6.0</ele>
        <time>2019-01-14T00:08:25Z</time>
      </trkpt>
      <trkpt lat="42.244110" lon="3.038470">
        <ele>5.0</ele>
        <time>2019-01-14T00:08:39Z</time>
      </trkpt>
      <trkpt lat="42.243830" lon="3.038040">
        <ele>6.0</ele>
        <time>2019-01-14T00:08:46Z</time>
      </trkpt>
      <trkpt lat="42.243480" lon="3.037460">
        <ele>6.0</ele>
        <time>2019-01-14T00:08:54Z</time>
      </trkpt>
      <trkpt lat="42.243460" lon="3.037440">
        <ele>6.0</ele>
        <time>2019-01-14T00:08:55Z</time>
      </trkpt>
      <trkpt lat="42.243480" lon="3.037550">
        <ele>6.0</ele>
        <time>2019-01-14T00:08:56Z</time>
      </trkpt>
      <trkpt lat="42.243680" lon="3.037870">
        <ele>6.0</ele>
        <time>2019-01-14T00:09:01Z</time>
      </trkpt>
      <trkpt lat="42.243960" lon="3.038280">
        <ele>5.0</ele>
        <time>2019-01-14T00:09:08Z</time>
      </trkpt>
      <trkpt lat="42.244060" lon="3.038430">
        <ele>5.0</ele>
        <time>2019-01-14T00:09:10Z</time>
      </trkpt>
      <trkpt lat="42.244060" lon="3.038710">
        <ele>6.0</ele>
        <time>2019-01-14T00:09:13Z</time>
      </trkpt>
      <trkpt lat="42.243800" lon="3.039740">
        <ele>7.0</ele>
        <time>2019-01-14T00:09:26Z</time>
      </trkpt>
      <trkpt lat="42.243760" lon="3.039820">
        <ele>7.0</ele>
        <time>2019-01-14T00:09:27Z</time>
      </trkpt>
      <trkpt lat="42.243440" lon="3.040080">
        <ele>6.0</ele>
        <time>2019-01-14T00:09:33Z</time>
      </trkpt>
      <trkpt lat="42.242750" lon="3.040290">
        <ele>7.0</ele>
        <time>2019-01-14T00:09:45Z</time>
      </trkpt>
      <trkpt lat="42.242670" lon="3.040290">
        <ele>7.0</ele>
        <time>2019-01-14T00:09:46Z</time>
      </trkpt>
      <trkpt lat="42.242350" lon="3.040210">
        <ele>7.0</ele>
        <time>2019-01-14T00:09:51Z</time>
      </trkpt>
      <trkpt lat="42.242110" lon="3.040320">
        <ele>7.0</ele>
        <time>2019-01-14T00:09:55Z</time>
      </trkpt>
      <trkpt lat="42.241420" lon="3.040810">
        <ele>6.0</ele>
        <time>2019-01-14T00:10:08Z</time>
      </trkpt>
      <trkpt lat="42.241230" lon="3.040980">
        <ele>6.0</ele>
        <time>2019-01-14T00:10:11Z</time>
      </trkpt>
      <trkpt lat="42.240780" lon="3.041170">
        <ele>5.0</ele>
        <time>2019-01-14T00:10:19Z</time>
      </trkpt>
      <trkpt lat="42.240330" lon="3.041050">
        <ele>5.0</ele>
        <time>2019-01-14T00:10:26Z</time>
      </trkpt>
      <trkpt lat="42.239960" lon="3.040720">
        <ele>5.0</ele>
        <time>2019-01-14T00:10:33Z</time>
      </trkpt>
      <trkpt lat="42.239530" lon="3.040570">
        <ele>4.0</ele>
        <time>2019-01-14T00:10:41Z</time>
      </trkpt>
      <trkpt lat="42.239360" lon="3.040550">
        <ele>3.0</ele>
        <time>2019-01-14T00:10:43Z</time>
      </trkpt>
      <trkpt lat="42.238720" lon="3.040470">
        <ele>3.0</ele>
        <time>2019-01-14T00:10:54Z</time>
      </trkpt>
      <trkpt lat="42.238550" lon="3.040550">
        <ele>4.0</ele>
        <time>2019-01-14T00:10:56Z</time>
      </trkpt>
      <trkpt lat="42.237540" lon="3.041070">
        <ele>4.0</ele>
        <time>2019-01-14T00:11:14Z</time>
      </trkpt>
      <trkpt lat="42.236530" lon="3.041450">
        <ele>4.0</ele>
        <time>2019-01-14T00:11:31Z</time>
      </trkpt>
      <trkpt lat="42.235610" lon="3.041520">
        <ele>4.0</ele>
        <time>2019-01-14T00:11:45Z</time>
      </trkpt>
      <trkpt lat="42.234300" lon="3.041470">
        <ele>4.0</ele>
        <time>2019-01-14T00:12:06Z</time>
      </trkpt>
      <trkpt lat="42.233180" lon="3.041560">
        <ele>4.0</ele>
        <time>2019-01-14T00:12:24Z</time>
      </trkpt>
      <trkpt lat="42.232020" lon="3.041690">
        <ele>5.0</ele>
        <time>2019-01-14T00:12:43Z</time>
      </trkpt>
      <trkpt lat="42.230800" lon="3.041390">
        <ele>5.0</ele>
        <time>2019-01-14T00:13:03Z</time>
      </trkpt>
      <trkpt lat="42.230590" lon="3.041150">
        <ele>5.0</ele>
        <time>2019-01-14T00:13:07Z</time>
      </trkpt>
      <trkpt lat="42.230370" lon="3.041200">
        <ele>5.0</ele>
        <time>2019-01-14T00:13:11Z</time>
      </trkpt>
      <trkpt lat="42.229470" lon="3.041800">
        <ele>7.0</ele>
        <time>2019-01-14T00:13:27Z</time>
      </trkpt>
      <trkpt lat="42.228550" lon="3.042290">
        <ele>5.0</ele>
        <time>2019-01-14T00:13:43Z</time>
      </trkpt>
      <trkpt lat="42.228480" lon="3.042310">
        <ele>5.0</ele>
        <time>2019-01-14T00:13:44Z</time>
      </trkpt>
      <trkpt lat="42.227730" lon="3.042310">
        <ele>6.0</ele>
        <time>2019-01-14T00:13:56Z</time>
      </trkpt>
      <trkpt lat="42.227560" lon="3.042140">
        <ele>6.0</ele>
        <time>2019-01-14T00:13:59Z</time>
      </trkpt>
      <trkpt lat="42.227260" lon="3.041970">
        <ele>5.0</ele>
        <time>2019-01-14T00:14:04Z</time>
      </trkpt>
      <trkpt lat="42.227030" lon="3.041880">
        <ele>5.0</ele>
        <time>2019-01-14T00:14:08Z</time>
      </trkpt>
      <trkpt lat="42.226550" lon="3.041900">
        <ele>5.0</ele>
        <time>2019-01-14T00:14:16Z</time>
      </trkpt>
      <trkpt lat="42.226210" lon="3.041600">
        <ele>5.0</ele>
        <time>2019-01-14T00:14:22Z</time>
      </trkpt>
      <trkpt lat="42.226150" lon="3.041520">
        <ele>5.0</ele>
        <time>2019-01-14T00:14:24Z</time>
      </trkpt>
      <trkpt lat="42.225720" lon="3.040770">
        <ele>4.0</ele>
        <time>2019-01-14T00:14:35Z</time>
      </trkpt>
      <trkpt lat="42.224860" lon="3.039670">
        <ele>3.0</ele>
        <time>2019-01-14T00:14:54Z</time>
      </trkpt>
      <trkpt lat="42.224040" lon="3.038560">
        <ele>3.0</ele>
        <time>2019-01-14T00:15:13Z</time>
      </trkpt>
      <trkpt lat="42.223180" lon="3.037100">
        <ele>3.0</ele>
        <time>2019-01-14T00:15:35Z</time>
      </trkpt>
      <trkpt lat="42.222670" lon="3.035980">
        <ele>5.0</ele>
        <time>2019-01-14T00:15:50Z</time>
      </trkpt>
      <trkpt lat="42.222430" lon="3.035450">
        <ele>5.0</ele>
        <time>2019-01-14T00:15:58Z</time>
      </trkpt>
      <trkpt lat="42.222070" lon="3.035100">
        <ele>3.0</ele>
        <time>2019-01-14T00:16:05Z</time>
      </trkpt>
      <trkpt lat="42.220440" lon="3.034390">
        <ele>2.0</ele>
        <time>2019-01-14T00:16:32Z</time>
      </trkpt>
      <trkpt lat="42.219150" lon="3.034110">
        <ele>4.0</ele>
        <time>2019-01-14T00:16:53Z</time>
      </trkpt>
      <trkpt lat="42.217930" lon="3.033840">
        <ele>4.0</ele>
        <time>2019-01-14T00:17:13Z</time>
      </trkpt>
      <trkpt lat="42.216620" lon="3.033560">
        <ele>4.0</ele>
        <time>2019-01-14T00:17:34Z</time>
      </trkpt>
      <trkpt lat="42.216470" lon="3.033490">
        <ele>4.0</ele>
        <time>2019-01-14T00:17:37Z</time>
      </trkpt>
      <trkpt lat="42.215630" lon="3.032870">
        <ele>5.0</ele>
        <time>2019-01-14T00:17:52Z</time>
      </trkpt>
      <trkpt lat="42.214450" lon="3.031880">
        <ele>4.0</ele>
        <time>2019-01-14T00:18:14Z</time>
      </trkpt>
      <trkpt lat="42.213250" lon="3.030920">
        <ele>5.0</ele>
        <time>2019-01-14T00:18:37Z</time>
      </trkpt>
      <trkpt lat="42.212910" lon="3.030640">
        <ele>5.0</ele>
        <time>2019-01-14T00:18:43Z</time>
      </trkpt>
      <trkpt lat="42.212760" lon="3.030080">
        <ele>4.0</ele>
        <time>2019-01-14T00:18:50Z</time>
      </trkpt>
      <trkpt lat="42.212930" lon="3.029650">
        <ele>5.0</ele>
        <time>2019-01-14T00:18:56Z</time>
      </trkpt>
      <trkpt lat="42.213610" lon="3.028190">
        <ele>5.0</ele>
        <time>2019-01-14T00:19:16Z</time>
      </trkpt>
      <trkpt lat="42.214490" lon="3.026260">
        <ele>6.0</ele>
        <time>2019-01-14T00:19:43Z</time>
      </trkpt>
      <trkpt lat="42.215180" lon="3.024800">
        <ele>6.0</ele>
        <time>2019-01-14T00:20:04Z</time>
      </trkpt>
      <trkpt lat="42.216080" lon="3.022890">
        <ele>7.0</ele>
        <time>2019-01-14T00:20:30Z</time>
      </trkpt>
      <trkpt lat="42.217030" lon="3.020940">
        <ele>8.0</ele>
        <time>2019-01-14T00:20:58Z</time>
      </trkpt>
      <trkpt lat="42.217970" lon="3.018940">
        <ele>9.0</ele>
        <time>2019-01-14T00:21:26Z</time>
      </trkpt>
      <trkpt lat="42.218510" lon="3.017740">
        <ele>11.0</ele>
        <time>2019-01-14T00:21:43Z</time>
      </trkpt>
      <trkpt lat="42.219300" lon="3.016090">
        <ele>11.0</ele>
        <time>2019-01-14T00:22:06Z</time>
      </trkpt>
      <trkpt lat="42.219860" lon="3.014780">
        <ele>11.0</ele>
        <time>2019-01-14T00:22:24Z</time>
      </trkpt>
      <trkpt lat="42.220220" lon="3.013990">
        <ele>12.0</ele>
        <time>2019-01-14T00:22:35Z</time>
      </trkpt>
      <trkpt lat="42.220160" lon="3.013620">
        <ele>12.0</ele>
        <time>2019-01-14T00:22:40Z</time>
      </trkpt>
      <trkpt lat="42.219970" lon="3.013580">
        <ele>12.0</ele>
        <time>2019-01-14T00:22:43Z</time>
      </trkpt>
      <trkpt lat="42.219790" lon="3.013600">
        <ele>12.0</ele>
        <time>2019-01-14T00:22:46Z</time>
      </trkpt>
      <trkpt lat="42.219320" lon="3.013940">
        <ele>13.0</ele>
        <time>2019-01-14T00:22:54Z</time>
      </trkpt>
      <trkpt lat="42.219000" lon="3.014400">
        <ele>12.0</ele>
        <time>2019-01-14T00:23:02Z</time>
      </trkpt>
      <trkpt lat="42.218420" lon="3.014650">
        <ele>11.0</ele>
        <time>2019-01-14T00:23:11Z</time>
      </trkpt>
      <trkpt lat="42.217990" lon="3.014310">
        <ele>12.0</ele>
        <time>2019-01-14T00:23:19Z</time>
      </trkpt>
      <trkpt lat="42.217950" lon="3.014220">
        <ele>12.0</ele>
        <time>2019-01-14T00:23:21Z</time>
      </trkpt>
      <trkpt lat="42.217220" lon="3.012590">
        <ele>15.0</ele>
        <time>2019-01-14T00:23:43Z</time>
      </trkpt>
      <trkpt lat="42.216620" lon="3.011070">
        <ele>13.0</ele>
        <time>2019-01-14T00:24:04Z</time>
      </trkpt>
      <trkpt lat="42.216100" lon="3.009570">
        <ele>15.0</ele>
        <time>2019-01-14T00:24:23Z</time>
      </trkpt>
      <trkpt lat="42.215460" lon="3.007890">
        <ele>12.0</ele>
        <time>2019-01-14T00:24:46Z</time>
      </trkpt>
      <trkpt lat="42.214820" lon="3.006610">
        <ele>12.0</ele>
        <time>2019-01-14T00:25:04Z</time>
      </trkpt>
      <trkpt lat="42.214450" lon="3.006070">
        <ele>12.0</ele>
        <time>2019-01-14T00:25:13Z</time>
      </trkpt>
      <trkpt lat="42.213700" lon="3.005580">
        <ele>12.0</ele>
        <time>2019-01-14T00:25:26Z</time>
      </trkpt>
      <trkpt lat="42.212710" lon="3.004980">
        <ele>11.0</ele>
        <time>2019-01-14T00:25:43Z</time>
      </trkpt>
      <trkpt lat="42.212280" lon="3.004910">
        <ele>11.0</ele>
        <time>2019-01-14T00:25:50Z</time>
      </trkpt>
      <trkpt lat="42.211320" lon="3.005280">
        <ele>11.0</ele>
        <time>2019-01-14T00:26:06Z</time>
      </trkpt>
      <trkpt lat="42.210120" lon="3.005960">
        <ele>11.0</ele>
        <time>2019-01-14T00:26:27Z</time>
      </trkpt>
      <trkpt lat="42.209640" lon="3.005700">
        <ele>11.0</ele>
        <time>2019-01-14T00:26:35Z</time>
      </trkpt>
      <trkpt lat="42.209520" lon="3.005510">
        <ele>11.0</ele>
        <time>2019-01-14T00:26:38Z</time>
      </trkpt>
      <trkpt lat="42.208960" lon="3.004330">
        <ele>10.0</ele>
        <time>2019-01-14T00:26:55Z</time>
      </trkpt>
      <trkpt lat="42.208790" lon="3.003920">
        <ele>11.0</ele>
        <time>2019-01-14T00:27:01Z</time>
      </trkpt>
      <trkpt lat="42.208850" lon="3.003370">
        <ele>11.0</ele>
        <time>2019-01-14T00:27:07Z</time>
      </trkpt>
      <trkpt lat="42.209060" lon="3.002550">
        <ele>13.0</ele>
        <time>2019-01-14T00:27:17Z</time>
      </trkpt>
      <trkpt lat="42.209020" lon="3.001330">
        <ele>15.0</ele>
        <time>2019-01-14T00:27:32Z</time>
      </trkpt>
      <trkpt lat="42.208960" lon="3.000100">
        <ele>16.0</ele>
        <time>2019-01-14T00:27:47Z</time>
      </trkpt>
      <trkpt lat="42.208940" lon="2.998410">
        <ele>19.0</ele>
        <time>2019-01-14T00:28:07Z</time>
      </trkpt>
      <trkpt lat="42.208810" lon="2.997380">
        <ele>21.0</ele>
        <time>2019-01-14T00:28:19Z</time>
      </trkpt>
      <trkpt lat="42.209000" lon="2.996890">
        <ele>22.0</ele>
        <time>2019-01-14T00:28:26Z</time>
      </trkpt>
      <trkpt lat="42.209300" lon="2.996280">
        <ele>24.0</ele>
        <time>2019-01-14T00:28:34Z</time>
      </trkpt>
      <trkpt lat="42.209300" lon="2.996200">
        <ele>24.0</ele>
        <time>2019-01-14T00:28:35Z</time>
      </trkpt>
      <trkpt lat="42.209240" lon="2.995380">
        <ele>28.0</ele>
        <time>2019-01-14T00:28:45Z</time>
      </trkpt>
      <trkpt lat="42.209170" lon="2.994610">
        <ele>31.0</ele>
        <time>2019-01-14T00:28:54Z</time>
      </trkpt>
      <trkpt lat="42.209060" lon="2.994550">
        <ele>31.0</ele>
        <time>2019-01-14T00:28:56Z</time>
      </trkpt>
      <trkpt lat="42.208530" lon="2.994890">
        <ele>33.0</ele>
        <time>2019-01-14T00:29:05Z</time>
      </trkpt>
      <trkpt lat="42.207480" lon="2.995170">
        <ele>31.0</ele>
        <time>2019-01-14T00:29:23Z</time>
      </trkpt>
      <trkpt lat="42.206640" lon="2.995360">
        <ele>32.0</ele>
        <time>2019-01-14T00:29:36Z</time>
      </trkpt>
      <trkpt lat="42.205820" lon="2.995230">
        <ele>34.0</ele>
        <time>2019-01-14T00:29:49Z</time>
      </trkpt>
      <trkpt lat="42.205520" lon="2.995190">
        <ele>35.0</ele>
        <time>2019-01-14T00:29:54Z</time>
      </trkpt>
      <trkpt lat="42.204860" lon="2.995490">
        <ele>36.0</ele>
        <time>2019-01-14T00:30:05Z</time>
      </trkpt>
      <trkpt lat="42.203870" lon="2.996010">
        <ele>40.0</ele>
        <time>2019-01-14T00:30:22Z</time>
      </trkpt>
      <trkpt lat="42.202970" lon="2.996630">
        <ele>41.0</ele>
        <time>2019-01-14T00:30:39Z</time>
      </trkpt>
      <trkpt lat="42.202160" lon="2.997120">
        <ele>42.0</ele>
        <time>2019-01-14T00:30:53Z</time>
      </trkpt>
      <trkpt lat="42.201190" lon="2.997550">
        <ele>42.0</ele>
        <time>2019-01-14T00:31:09Z</time>
      </trkpt>
      <trkpt lat="42.200590" lon="2.998090">
        <ele>43.0</ele>
        <time>2019-01-14T00:31:21Z</time>
      </trkpt>
      <trkpt lat="42.199730" lon="2.999050">
        <ele>43.0</ele>
        <time>2019-01-14T00:31:39Z</time>
      </trkpt>
      <trkpt lat="42.199300" lon="2.999420">
        <ele>42.0</ele>
        <time>2019-01-14T00:31:47Z</time>
      </trkpt>
      <trkpt lat="42.198640" lon="3.000380">
        <ele>42.0</ele>
        <time>2019-01-14T00:32:02Z</time>
      </trkpt>
      <trkpt lat="42.197890" lon="3.001460">
        <ele>41.0</ele>
        <time>2019-01-14T00:32:20Z</time>
      </trkpt>
      <trkpt lat="42.196980" lon="3.002590">
        <ele>45.0</ele>
        <time>2019-01-14T00:32:40Z</time>
      </trkpt>
      <trkpt lat="42.196230" lon="3.003450">
        <ele>47.0</ele>
        <time>2019-01-14T00:32:55Z</time>
      </trkpt>
      <trkpt lat="42.195680" lon="3.004160">
        <ele>47.0</ele>
        <time>2019-01-14T00:33:08Z</time>
      </trkpt>
      <trkpt lat="42.194860" lon="3.005300">
        <ele>44.0</ele>
        <time>2019-01-14T00:33:26Z</time>
      </trkpt>
      <trkpt lat="42.194620" lon="3.005750">
        <ele>44.0</ele>
        <time>2019-01-14T00:33:33Z</time>
      </trkpt>
      <trkpt lat="42.194280" lon="3.006110">
        <ele>44.0</ele>
        <time>2019-01-14T00:33:40Z</time>
      </trkpt>
      <trkpt lat="42.193550" lon="3.006610">
        <ele>45.0</ele>
        <time>2019-01-14T00:33:53Z</time>
      </trkpt>
      <trkpt lat="42.192440" lon="3.007460">
        <ele>45.0</ele>
        <time>2019-01-14T00:34:13Z</time>
      </trkpt>
      <trkpt lat="42.191360" lon="3.008190">
        <ele>44.0</ele>
        <time>2019-01-14T00:34:33Z</time>
      </trkpt>
      <trkpt lat="42.190350" lon="3.008840">
        <ele>45.0</ele>
        <time>2019-01-14T00:34:51Z</time>
      </trkpt>
      <trkpt lat="42.189220" lon="3.009420">
        <ele>46.0</ele>
        <time>2019-01-14T00:35:10Z</time>
      </trkpt>
      <trkpt lat="42.188080" lon="3.009910">
        <ele>44.0</ele>
        <time>2019-01-14T00:35:29Z</time>
      </trkpt>
      <trkpt lat="42.187010" lon="3.010100">
        <ele>47.0</ele>
        <time>2019-01-14T00:35:47Z</time>
      </trkpt>
      <trkpt lat="42.185350" lon="3.010060">
        <ele>49.0</ele>
        <time>2019-01-14T00:36:13Z</time>
      </trkpt>
      <trkpt lat="42.183980" lon="3.010020">
        <ele>49.0</ele>
        <time>2019-01-14T00:36:35Z</time>
      </trkpt>
      <trkpt lat="42.183270" lon="3.010020">
        <ele>44.0</ele>
        <time>2019-01-14T00:36:46Z</time>
      </trkpt>
      <trkpt lat="42.182330" lon="3.010060">
        <ele>39.0</ele>
        <time>2019-01-14T00:37:01Z</time>
      </trkpt>
      <trkpt lat="42.182110" lon="3.010080">
        <ele>39.0</ele>
        <time>2019-01-14T00:37:05Z</time>
      </trkpt>
      <trkpt lat="42.181990" lon="3.009930">
        <ele>38.0</ele>
        <time>2019-01-14T00:37:08Z</time>
      </trkpt>
      <trkpt lat="42.182010" lon="3.009590">
        <ele>38.0</ele>
        <time>2019-01-14T00:37:12Z</time>
      </trkpt>
      <trkpt lat="42.181960" lon="3.009310">
        <ele>36.0</ele>
        <time>2019-01-14T00:37:15Z</time>
      </trkpt>
      <trkpt lat="42.181710" lon="3.008640">
        <ele>31.0</ele>
        <time>2019-01-14T00:37:24Z</time>
      </trkpt>
      <trkpt lat="42.181410" lon="3.007870">
        <ele>29.0</ele>
        <time>2019-01-14T00:37:34Z</time>
      </trkpt>
      <trkpt lat="42.180930" lon="3.006990">
        <ele>29.0</ele>
        <time>2019-01-14T00:37:47Z</time>
      </trkpt>
      <trkpt lat="42.180740" lon="3.006330">
        <ele>29.0</ele>
        <time>2019-01-14T00:37:56Z</time>
      </trkpt>
      <trkpt lat="42.180380" lon="3.006090">
        <ele>29.0</ele>
        <time>2019-01-14T00:38:02Z</time>
      </trkpt>
      <trkpt lat="42.180100" lon="3.006070">
        <ele>28.0</ele>
        <time>2019-01-14T00:38:07Z</time>
      </trkpt>
      <trkpt lat="42.179690" lon="3.005730">
        <ele>27.0</ele>
        <time>2019-01-14T00:38:14Z</time>
      </trkpt>
      <trkpt lat="42.179280" lon="3.005150">
        <ele>26.0</ele>
        <time>2019-01-14T00:38:24Z</time>
      </trkpt>
      <trkpt lat="42.179150" lon="3.004610">
        <ele>26.0</ele>
        <time>2019-01-14T00:38:31Z</time>
      </trkpt>
      <trkpt lat="42.179130" lon="3.004310">
        <ele>25.0</ele>
        <time>2019-01-14T00:38:34Z</time>
      </trkpt>
      <trkpt lat="42.179000" lon="3.003770">
        <ele>25.0</ele>
        <time>2019-01-14T00:38:41Z</time>
      </trkpt>
      <trkpt lat="42.178420" lon="3.002490">
        <ele>25.0</ele>
        <time>2019-01-14T00:38:59Z</time>
      </trkpt>
      <trkpt lat="42.177720" lon="3.000940">
        <ele>26.0</ele>
        <time>2019-01-14T00:39:20Z</time>
      </trkpt>
      <trkpt lat="42.177260" lon="2.999910">
        <ele>29.0</ele>
        <time>2019-01-14T00:39:34Z</time>
      </trkpt>
      <trkpt lat="42.177240" lon="2.999830">
        <ele>29.0</ele>
        <time>2019-01-14T00:39:35Z</time>
      </trkpt>
      <trkpt lat="42.177200" lon="2.999680">
        <ele>29.0</ele>
        <time>2019-01-14T00:39:37Z</time>
      </trkpt>
      <trkpt lat="42.177160" lon="2.999370">
        <ele>30.0</ele>
        <time>2019-01-14T00:39:41Z</time>
      </trkpt>
      <trkpt lat="42.177180" lon="2.998710">
        <ele>29.0</ele>
        <time>2019-01-14T00:39:49Z</time>
      </trkpt>
      <trkpt lat="42.177050" lon="2.998300">
        <ele>29.0</ele>
        <time>2019-01-14T00:39:54Z</time>
      </trkpt>
      <trkpt lat="42.176690" lon="2.997270">
        <ele>28.0</ele>
        <time>2019-01-14T00:40:08Z</time>
      </trkpt>
      <trkpt lat="42.176380" lon="2.996220">
        <ele>26.0</ele>
        <time>2019-01-14T00:40:21Z</time>
      </trkpt>
      <trkpt lat="42.176340" lon="2.996130">
        <ele>26.0</ele>
        <time>2019-01-14T00:40:22Z</time>
      </trkpt>
      <trkpt lat="42.176110" lon="2.996010">
        <ele>25.0</ele>
        <time>2019-01-14T00:40:26Z</time>
      </trkpt>
      <trkpt lat="42.175870" lon="2.995620">
        <ele>24.0</ele>
        <time>2019-01-14T00:40:32Z</time>
      </trkpt>
      <trkpt lat="42.175400" lon="2.994290">
        <ele>25.0</ele>
        <time>2019-01-14T00:40:50Z</time>
      </trkpt>
      <trkpt lat="42.174930" lon="2.993130">
        <ele>27.0</ele>
        <time>2019-01-14T00:41:06Z</time>
      </trkpt>
      <trkpt lat="42.174320" lon="2.991860">
        <ele>31.0</ele>
        <time>2019-01-14T00:41:23Z</time>
      </trkpt>
      <trkpt lat="42.173920" lon="2.990940">
        <ele>31.0</ele>
        <time>2019-01-14T00:41:36Z</time>
      </trkpt>
      <trkpt lat="42.173510" lon="2.990110">
        <ele>33.0</ele>
        <time>2019-01-14T00:41:48Z</time>
      </trkpt>
      <trkpt lat="42.172990" lon="2.989380">
        <ele>34.0</ele>
        <time>2019-01-14T00:42:00Z</time>
      </trkpt>
      <trkpt lat="42.172820" lon="2.989230">
        <ele>34.0</ele>
        <time>2019-01-14T00:42:03Z</time>
      </trkpt>
      <trkpt lat="42.172420" lon="2.989330">
        <ele>35.0</ele>
        <time>2019-01-14T00:42:10Z</time>
      </trkpt>
      <trkpt lat="42.171790" lon="2.989700">
        <ele>36.0</ele>
        <time>2019-01-14T00:42:21Z</time>
      </trkpt>
      <trkpt lat="42.171040" lon="2.990300">
        <ele>38.0</ele>
        <time>2019-01-14T00:42:35Z</time>
      </trkpt>
      <trkpt lat="42.170440" lon="2.990770">
        <ele>40.0</ele>
        <time>2019-01-14T00:42:46Z</time>
      </trkpt>
      <trkpt lat="42.169580" lon="2.991010">
        <ele>37.0</ele>
        <time>2019-01-14T00:43:00Z</time>
      </trkpt>
      <trkpt lat="42.168720" lon="2.991160">
        <ele>28.0</ele>
        <time>2019-01-14T00:43:14Z</time>
      </trkpt>
      <trkpt lat="42.167610" lon="2.991350">
        <ele>23.0</ele>
        <time>2019-01-14T00:43:32Z</time>
      </trkpt>
      <trkpt lat="42.166130" lon="2.991630">
        <ele>27.0</ele>
        <time>2019-01-14T00:43:56Z</time>
      </trkpt>
      <trkpt lat="42.164520" lon="2.991930">
        <ele>32.0</ele>
        <time>2019-01-14T00:44:22Z</time>
      </trkpt>
      <trkpt lat="42.164430" lon="2.991950">
        <ele>33.0</ele>
        <time>2019-01-14T00:44:23Z</time>
      </trkpt>
      <trkpt lat="42.164280" lon="2.991950">
        <ele>33.0</ele>
        <time>2019-01-14T00:44:26Z</time>
      </trkpt>
      <trkpt lat="42.164030" lon="2.991760">
        <ele>35.0</ele>
        <time>2019-01-14T00:44:30Z</time>
      </trkpt>
      <trkpt lat="42.163790" lon="2.991140">
        <ele>39.0</ele>
        <time>2019-01-14T00:44:38Z</time>
      </trkpt>
      <trkpt lat="42.163720" lon="2.990960">
        <ele>40.0</ele>
        <time>2019-01-14T00:44:41Z</time>
      </trkpt>
      <trkpt lat="42.163490" lon="2.990680">
        <ele>43.0</ele>
        <time>2019-01-14T00:44:46Z</time>
      </trkpt>
      <trkpt lat="42.162590" lon="2.990210">
        <ele>49.0</ele>
        <time>2019-01-14T00:45:01Z</time>
      </trkpt>
      <trkpt lat="42.161280" lon="2.989650">
        <ele>47.0</ele>
        <time>2019-01-14T00:45:23Z</time>
      </trkpt>
      <trkpt lat="42.160230" lon="2.989200">
        <ele>41.0</ele>
        <time>2019-01-14T00:45:41Z</time>
      </trkpt>
      <trkpt lat="42.159180" lon="2.988730">
        <ele>39.0</ele>
        <time>2019-01-14T00:45:59Z</time>
      </trkpt>
      <trkpt lat="42.158080" lon="2.988500">
        <ele>38.0</ele>
        <time>2019-01-14T00:46:16Z</time>
      </trkpt>
      <trkpt lat="42.156790" lon="2.988280">
        <ele>38.0</ele>
        <time>2019-01-14T00:46:37Z</time>
      </trkpt>
      <trkpt lat="42.156710" lon="2.988260">
        <ele>38.0</ele>
        <time>2019-01-14T00:46:39Z</time>
      </trkpt>
      <trkpt lat="42.156320" lon="2.988470">
        <ele>40.0</ele>
        <time>2019-01-14T00:46:45Z</time>
      </trkpt>
      <trkpt lat="42.155700" lon="2.988990">
        <ele>46.0</ele>
        <time>2019-01-14T00:46:57Z</time>
      </trkpt>
      <trkpt lat="42.155010" lon="2.989400">
        <ele>47.0</ele>
        <time>2019-01-14T00:47:09Z</time>
      </trkpt>
      <trkpt lat="42.154330" lon="2.989800">
        <ele>48.0</ele>
        <time>2019-01-14T00:47:21Z</time>
      </trkpt>
      <trkpt lat="42.153360" lon="2.990360">
        <ele>49.0</ele>
        <time>2019-01-14T00:47:38Z</time>
      </trkpt>
      <trkpt lat="42.152480" lon="2.990900">
        <ele>50.0</ele>
        <time>2019-01-14T00:47:53Z</time>
      </trkpt>
      <trkpt lat="42.152070" lon="2.990900">
        <ele>49.0</ele>
        <time>2019-01-14T00:48:00Z</time>
      </trkpt>
      <trkpt lat="42.150910" lon="2.990600">
        <ele>50.0</ele>
        <time>2019-01-14T00:48:19Z</time>
      </trkpt>
      <trkpt lat="42.149710" lon="2.990300">
        <ele>54.0</ele>
        <time>2019-01-14T00:48:38Z</time>
      </trkpt>
      <trkpt lat="42.148960" lon="2.990210">
        <ele>56.0</ele>
        <time>2019-01-14T00:48:50Z</time>
      </trkpt>
      <trkpt lat="42.147890" lon="2.990080">
        <ele>60.0</ele>
        <time>2019-01-14T00:49:08Z</time>
      </trkpt>
      <trkpt lat="42.146620" lon="2.989980">
        <ele>64.0</ele>
        <time>2019-01-14T00:49:28Z</time>
      </trkpt>
      <trkpt lat="42.146430" lon="2.990040">
        <ele>65.0</ele>
        <time>2019-01-14T00:49:31Z</time>
      </trkpt>
      <trkpt lat="42.146190" lon="2.990210">
        <ele>66.0</ele>
        <time>2019-01-14T00:49:35Z</time>
      </trkpt>
      <trkpt lat="42.146110" lon="2.990380">
        <ele>66.0</ele>
        <time>2019-01-14T00:49:38Z</time>
      </trkpt>
      <trkpt lat="42.145740" lon="2.990660">
        <ele>68.0</ele>
        <time>2019-01-14T00:49:45Z</time>
      </trkpt>
      <trkpt lat="42.145680" lon="2.990660">
        <ele>68.0</ele>
        <time>2019-01-14T00:49:46Z</time>
      </trkpt>
      <trkpt lat="42.144760" lon="2.990680">
        <ele>69.0</ele>
        <time>2019-01-14T00:50:00Z</time>
      </trkpt>
      <trkpt lat="42.144520" lon="2.990830">
        <ele>70.0</ele>
        <time>2019-01-14T00:50:04Z</time>
      </trkpt>
      <trkpt lat="42.143900" lon="2.991560">
        <ele>73.0</ele>
        <time>2019-01-14T00:50:18Z</time>
      </trkpt>
      <trkpt lat="42.142930" lon="2.992250">
        <ele>77.0</ele>
        <time>2019-01-14T00:50:35Z</time>
      </trkpt>
      <trkpt lat="42.141950" lon="2.992770">
        <ele>80.0</ele>
        <time>2019-01-14T00:50:52Z</time>
      </trkpt>
      <trkpt lat="42.140980" lon="2.992960">
        <ele>82.0</ele>
        <time>2019-01-14T00:51:08Z</time>
      </trkpt>
      <trkpt lat="42.139740" lon="2.993110">
        <ele>87.0</ele>
        <time>2019-01-14T00:51:28Z</time>
      </trkpt>
      <trkpt lat="42.138680" lon="2.993390">
        <ele>90.0</ele>
        <time>2019-01-14T00:51:45Z</time>
      </trkpt>
      <trkpt lat="42.137740" lon="2.993990">
        <ele>91.0</ele>
        <time>2019-01-14T00:52:02Z</time>
      </trkpt>
      <trkpt lat="42.137050" lon="2.994420">
        <ele>92.0</ele>
        <time>2019-01-14T00:52:14Z</time>
      </trkpt>
      <trkpt lat="42.135980" lon="2.994570">
        <ele>94.0</ele>
        <time>2019-01-14T00:52:31Z</time>
      </trkpt>
      <trkpt lat="42.135290" lon="2.994680">
        <ele>95.0</ele>
        <time>2019-01-14T00:52:42Z</time>
      </trkpt>
      <trkpt lat="42.134220" lon="2.995170">
        <ele>97.0</ele>
        <time>2019-01-14T00:53:00Z</time>
      </trkpt>
      <trkpt lat="42.132930" lon="2.995750">
        <ele>98.0</ele>
        <time>2019-01-14T00:53:22Z</time>
      </trkpt>
      <trkpt lat="42.131620" lon="2.996350">
        <ele>101.0</ele>
        <time>2019-01-14T00:53:44Z</time>
      </trkpt>
      <trkpt lat="42.131040" lon="2.996610">
        <ele>103.0</ele>
        <time>2019-01-14T00:53:54Z</time>
      </trkpt>
      <trkpt lat="42.130790" lon="2.996670">
        <ele>104.0</ele>
        <time>2019-01-14T00:53:58Z</time>
      </trkpt>
      <trkpt lat="42.130590" lon="2.996560">
        <ele>105.0</ele>
        <time>2019-01-14T00:54:02Z</time>
      </trkpt>
      <trkpt lat="42.130470" lon="2.996560">
        <ele>105.0</ele>
        <time>2019-01-14T00:54:03Z</time>
      </trkpt>
      <trkpt lat="42.130230" lon="2.996800">
        <ele>106.0</ele>
        <time>2019-01-14T00:54:08Z</time>
      </trkpt>
      <trkpt lat="42.129990" lon="2.997080">
        <ele>108.0</ele>
        <time>2019-01-14T00:54:13Z</time>
      </trkpt>
      <trkpt lat="42.129330" lon="2.997420">
        <ele>112.0</ele>
        <time>2019-01-14T00:54:25Z</time>
      </trkpt>
      <trkpt lat="42.129110" lon="2.997530">
        <ele>113.0</ele>
        <time>2019-01-14T00:54:28Z</time>
      </trkpt>
      <trkpt lat="42.128530" lon="2.997810">
        <ele>116.0</ele>
        <time>2019-01-14T00:54:38Z</time>
      </trkpt>
      <trkpt lat="42.128020" lon="2.998040">
        <ele>117.0</ele>
        <time>2019-01-14T00:54:47Z</time>
      </trkpt>
      <trkpt lat="42.127500" lon="2.998280">
        <ele>115.0</ele>
        <time>2019-01-14T00:54:56Z</time>
      </trkpt>
      <trkpt lat="42.126800" lon="2.998600">
        <ele>113.0</ele>
        <time>2019-01-14T00:55:07Z</time>
      </trkpt>
      <trkpt lat="42.125940" lon="2.998990">
        <ele>112.0</ele>
        <time>2019-01-14T00:55:22Z</time>
      </trkpt>
      <trkpt lat="42.125170" lon="2.999310">
        <ele>112.0</ele>
        <time>2019-01-14T00:55:35Z</time>
      </trkpt>
      <trkpt lat="42.124520" lon="2.999220">
        <ele>112.0</ele>
        <time>2019-01-14T00:55:45Z</time>
      </trkpt>
      <trkpt lat="42.124410" lon="2.999250">
        <ele>112.0</ele>
        <time>2019-01-14T00:55:47Z</time>
      </trkpt>
      <trkpt lat="42.124200" lon="2.999610">
        <ele>112.0</ele>
        <time>2019-01-14T00:55:53Z</time>
      </trkpt>
      <trkpt lat="42.124070" lon="3.000190">
        <ele>111.0</ele>
        <time>2019-01-14T00:56:00Z</time>
      </trkpt>
      <trkpt lat="42.123900" lon="3.000400">
        <ele>112.0</ele>
        <time>2019-01-14T00:56:03Z</time>
      </trkpt>
      <trkpt lat="42.123130" lon="3.000860">
        <ele>114.0</ele>
        <time>2019-01-14T00:56:17Z</time>
      </trkpt>
      <trkpt lat="42.122050" lon="3.001480">
        <ele>110.0</ele>
        <time>2019-01-14T00:56:36Z</time>
      </trkpt>
      <trkpt lat="42.121560" lon="3.001780">
        <ele>111.0</ele>
        <time>2019-01-14T00:56:44Z</time>
      </trkpt>
      <trkpt lat="42.121110" lon="3.001760">
        <ele>112.0</ele>
        <time>2019-01-14T00:56:52Z</time>
      </trkpt>
      <trkpt lat="42.120940" lon="3.001650">
        <ele>113.0</ele>
        <time>2019-01-14T00:56:55Z</time>
      </trkpt>
      <trkpt lat="42.120420" lon="3.001030">
        <ele>115.0</ele>
        <time>2019-01-14T00:57:06Z</time>
      </trkpt>
      <trkpt lat="42.119820" lon="3.000250">
        <ele>117.0</ele>
        <time>2019-01-14T00:57:19Z</time>
      </trkpt>
      <trkpt lat="42.119760" lon="3.000210">
        <ele>117.0</ele>
        <time>2019-01-14T00:57:20Z</time>
      </trkpt>
      <trkpt lat="42.119090" lon="3.000000">
        <ele>119.0</ele>
        <time>2019-01-14T00:57:31Z</time>
      </trkpt>
      <trkpt lat="42.118210" lon="2.999800">
        <ele>127.0</ele>
        <time>2019-01-14T00:57:45Z</time>
      </trkpt>
      <trkpt lat="42.118110" lon="2.999760">
        <ele>129.0</ele>
        <time>2019-01-14T00:57:47Z</time>
      </trkpt>
      <trkpt lat="42.117890" lon="2.999800">
        <ele>129.0</ele>
        <time>2019-01-14T00:57:51Z</time>
      </trkpt>
      <trkpt lat="42.117140" lon="3.000170">
        <ele>129.0</ele>
        <time>2019-01-14T00:58:03Z</time>
      </trkpt>
      <trkpt lat="42.116390" lon="3.000400">
        <ele>128.0</ele>
        <time>2019-01-14T00:58:16Z</time>
      </trkpt>
      <trkpt lat="42.115290" lon="3.000380">
        <ele>127.0</ele>
        <time>2019-01-14T00:58:33Z</time>
      </trkpt>
      <trkpt lat="42.114590" lon="3.000320">
        <ele>127.0</ele>
        <time>2019-01-14T00:58:45Z</time>
      </trkpt>
      <trkpt lat="42.113640" lon="3.000020">
        <ele>127.0</ele>
        <time>2019-01-14T00:59:00Z</time>
      </trkpt>
      <trkpt lat="42.112100" lon="2.999590">
        <ele>128.0</ele>
        <time>2019-01-14T00:59:25Z</time>
      </trkpt>
      <trkpt lat="42.111130" lon="2.999290">
        <ele>123.0</ele>
        <time>2019-01-14T00:59:41Z</time>
      </trkpt>
      <trkpt lat="42.109780" lon="2.998950">
        <ele>115.0</ele>
        <time>2019-01-14T01:00:03Z</time>
      </trkpt>
      <trkpt lat="42.109440" lon="2.998840">
        <ele>113.0</ele>
        <time>2019-01-14T01:00:09Z</time>
      </trkpt>
      <trkpt lat="42.109120" lon="2.998300">
        <ele>110.0</ele>
        <time>2019-01-14T01:00:17Z</time>
      </trkpt>
      <trkpt lat="42.109050" lon="2.997380">
        <ele>107.0</ele>
        <time>2019-01-14T01:00:28Z</time>
      </trkpt>
      <trkpt lat="42.109240" lon="2.996440">
        <ele>104.0</ele>
        <time>2019-01-14T01:00:40Z</time>
      </trkpt>
      <trkpt lat="42.109290" lon="2.996180">
        <ele>103.0</ele>
        <time>2019-01-14T01:00:43Z</time>
      </trkpt>
      <trkpt lat="42.109200" lon="2.995320">
        <ele>102.0</ele>
        <time>2019-01-14T01:00:53Z</time>
      </trkpt>
      <trkpt lat="42.108810" lon="2.994930">
        <ele>100.0</ele>
        <time>2019-01-14T01:01:01Z</time>
      </trkpt>
      <trkpt lat="42.107550" lon="2.994760">
        <ele>97.0</ele>
        <time>2019-01-14T01:01:21Z</time>
      </trkpt>
      <trkpt lat="42.105900" lon="2.994550">
        <ele>86.0</ele>
        <time>2019-01-14T01:01:48Z</time>
      </trkpt>
      <trkpt lat="42.105660" lon="2.994480">
        <ele>84.0</ele>
        <time>2019-01-14T01:01:52Z</time>
      </trkpt>
      <trkpt lat="42.104500" lon="2.993690">
        <ele>74.0</ele>
        <time>2019-01-14T01:02:13Z</time>
      </trkpt>
      <trkpt lat="42.104290" lon="2.993520">
        <ele>73.0</ele>
        <time>2019-01-14T01:02:16Z</time>
      </trkpt>
      <trkpt lat="42.103770" lon="2.992770">
        <ele>71.0</ele>
        <time>2019-01-14T01:02:29Z</time>
      </trkpt>
      <trkpt lat="42.102980" lon="2.991520">
        <ele>66.0</ele>
        <time>2019-01-14T01:02:48Z</time>
      </trkpt>
      <trkpt lat="42.102810" lon="2.991240">
        <ele>64.0</ele>
        <time>2019-01-14T01:02:52Z</time>
      </trkpt>
      <trkpt lat="42.101280" lon="2.989780">
        <ele>57.0</ele>
        <time>2019-01-14T01:03:22Z</time>
      </trkpt>
      <trkpt lat="42.100620" lon="2.989100">
        <ele>57.0</ele>
        <time>2019-01-14T01:03:36Z</time>
      </trkpt>
      <trkpt lat="42.099610" lon="2.987700">
        <ele>54.0</ele>
        <time>2019-01-14T01:03:59Z</time>
      </trkpt>
      <trkpt lat="42.098840" lon="2.986890">
        <ele>49.0</ele>
        <time>2019-01-14T01:04:15Z</time>
      </trkpt>
      <trkpt lat="42.097830" lon="2.986290">
        <ele>47.0</ele>
        <time>2019-01-14T01:04:32Z</time>
      </trkpt>
      <trkpt lat="42.096200" lon="2.985300">
        <ele>40.0</ele>
        <time>2019-01-14T01:05:01Z</time>
      </trkpt>
      <trkpt lat="42.094870" lon="2.984460">
        <ele>33.0</ele>
        <time>2019-01-14T01:05:24Z</time>
      </trkpt>
      <trkpt lat="42.093320" lon="2.983520">
        <ele>32.0</ele>
        <time>2019-01-14T01:05:52Z</time>
      </trkpt>
      <trkpt lat="42.093210" lon="2.983450">
        <ele>32.0</ele>
        <time>2019-01-14T01:05:54Z</time>
      </trkpt>
      <trkpt lat="42.092380" lon="2.983350">
        <ele>32.0</ele>
        <time>2019-01-14T01:06:07Z</time>
      </trkpt>
      <trkpt lat="42.091030" lon="2.983280">
        <ele>31.0</ele>
        <time>2019-01-14T01:06:29Z</time>
      </trkpt>
      <trkpt lat="42.089570" lon="2.983240">
        <ele>31.0</ele>
        <time>2019-01-14T01:06:52Z</time>
      </trkpt>
      <trkpt lat="42.087850" lon="2.983150">
        <ele>29.0</ele>
        <time>2019-01-14T01:07:20Z</time>
      </trkpt>
      <trkpt lat="42.086460" lon="2.983110">
        <ele>28.0</ele>
        <time>2019-01-14T01:07:42Z</time>
      </trkpt>
      <trkpt lat="42.085450" lon="2.983070">
        <ele>27.0</ele>
        <time>2019-01-14T01:07:58Z</time>
      </trkpt>
      <trkpt lat="42.084370" lon="2.983050">
        <ele>26.0</ele>
        <time>2019-01-14T01:08:15Z</time>
      </trkpt>
      <trkpt lat="42.084310" lon="2.983050">
        <ele>26.0</ele>
        <time>2019-01-14T01:08:16Z</time>
      </trkpt>
      <trkpt lat="42.084200" lon="2.982810">
        <ele>27.0</ele>
        <time>2019-01-14T01:08:20Z</time>
      </trkpt>
      <trkpt lat="42.084200" lon="2.982750">
        <ele>27.0</ele>
        <time>2019-01-14T01:08:20Z</time>
      </trkpt>
      <trkpt lat="42.084420" lon="2.981540">
        <ele>35.0</ele>
        <time>2019-01-14T01:08:35Z</time>
      </trkpt>
      <trkpt lat="42.084720" lon="2.980450">
        <ele>35.0</ele>
        <time>2019-01-14T01:08:49Z</time>
      </trkpt>
      <trkpt lat="42.085130" lon="2.979350">
        <ele>35.0</ele>
        <time>2019-01-14T01:09:04Z</time>
      </trkpt>
      <trkpt lat="42.085640" lon="2.978150">
        <ele>34.0</ele>
        <time>2019-01-14T01:09:20Z</time>
      </trkpt>
      <trkpt lat="42.085680" lon="2.977490">
        <ele>35.0</ele>
        <time>2019-01-14T01:09:28Z</time>
      </trkpt>
      <trkpt lat="42.085360" lon="2.975840">
        <ele>31.0</ele>
        <time>2019-01-14T01:09:48Z</time>
      </trkpt>
      <trkpt lat="42.085170" lon="2.974290">
        <ele>28.0</ele>
        <time>2019-01-14T01:10:07Z</time>
      </trkpt>
      <trkpt lat="42.084890" lon="2.972920">
        <ele>28.0</ele>
        <time>2019-01-14T01:10:24Z</time>
      </trkpt>
      <trkpt lat="42.084350" lon="2.972080">
        <ele>28.0</ele>
        <time>2019-01-14T01:10:37Z</time>
      </trkpt>
      <trkpt lat="42.083580" lon="2.971390">
        <ele>26.0</ele>
        <time>2019-01-14T01:10:52Z</time>
      </trkpt>
      <trkpt lat="42.083040" lon="2.970860">
        <ele>25.0</ele>
        <time>2019-01-14T01:11:02Z</time>
      </trkpt>
      <trkpt lat="42.082980" lon="2.970770">
        <ele>25.0</ele>
        <time>2019-01-14T01:11:04Z</time>
      </trkpt>
      <trkpt lat="42.082960" lon="2.970750">
        <ele>25.0</ele>
        <time>2019-01-14T01:11:04Z</time>
      </trkpt>
      <trkpt lat="42.082810" lon="2.970840">
        <ele>25.0</ele>
        <time>2019-01-14T01:11:07Z</time>
      </trkpt>
      <trkpt lat="42.082610" lon="2.971010">
        <ele>25.0</ele>
        <time>2019-01-14T01:11:11Z</time>
      </trkpt>
      <trkpt lat="42.082140" lon="2.971050">
        <ele>24.0</ele>
        <time>2019-01-14T01:11:18Z</time>
      </trkpt>
      <trkpt lat="42.081200" lon="2.970640">
        <ele>25.0</ele>
        <time>2019-01-14T01:11:34Z</time>
      </trkpt>
      <trkpt lat="42.080400" lon="2.970280">
        <ele>26.0</ele>
        <time>2019-01-14T01:11:47Z</time>
      </trkpt>
      <trkpt lat="42.079070" lon="2.969680">
        <ele>26.0</ele>
        <time>2019-01-14T01:12:10Z</time>
      </trkpt>
      <trkpt lat="42.078170" lon="2.969290">
        <ele>26.0</ele>
        <time>2019-01-14T01:12:25Z</time>
      </trkpt>
      <trkpt lat="42.077310" lon="2.968880">
        <ele>26.0</ele>
        <time>2019-01-14T01:12:40Z</time>
      </trkpt>
      <trkpt lat="42.075680" lon="2.968150">
        <ele>27.0</ele>
        <time>2019-01-14T01:13:07Z</time>
      </trkpt>
      <trkpt lat="42.074760" lon="2.967750">
        <ele>29.0</ele>
        <time>2019-01-14T01:13:23Z</time>
      </trkpt>
      <trkpt lat="42.074610" lon="2.967470">
        <ele>29.0</ele>
        <time>2019-01-14T01:13:27Z</time>
      </trkpt>
      <trkpt lat="42.074270" lon="2.965820">
        <ele>31.0</ele>
        <time>2019-01-14T01:13:47Z</time>
      </trkpt>
      <trkpt lat="42.073920" lon="2.964270">
        <ele>31.0</ele>
        <time>2019-01-14T01:14:06Z</time>
      </trkpt>
      <trkpt lat="42.073770" lon="2.963580">
        <ele>31.0</ele>
        <time>2019-01-14T01:14:15Z</time>
      </trkpt>
      <trkpt lat="42.073670" lon="2.962400">
        <ele>32.0</ele>
        <time>2019-01-14T01:14:29Z</time>
      </trkpt>
      <trkpt lat="42.073470" lon="2.961480">
        <ele>32.0</ele>
        <time>2019-01-14T01:14:40Z</time>
      </trkpt>
      <trkpt lat="42.073070" lon="2.960340">
        <ele>35.0</ele>
        <time>2019-01-14T01:14:55Z</time>
      </trkpt>
      <trkpt lat="42.072770" lon="2.959210">
        <ele>36.0</ele>
        <time>2019-01-14T01:15:10Z</time>
      </trkpt>
      <trkpt lat="42.072740" lon="2.959060">
        <ele>37.0</ele>
        <time>2019-01-14T01:15:12Z</time>
      </trkpt>
      <trkpt lat="42.072550" lon="2.958860">
        <ele>37.0</ele>
        <time>2019-01-14T01:15:15Z</time>
      </trkpt>
      <trkpt lat="42.071820" lon="2.958950">
        <ele>37.0</ele>
        <time>2019-01-14T01:15:27Z</time>
      </trkpt>
      <trkpt lat="42.071160" lon="2.959060">
        <ele>39.0</ele>
        <time>2019-01-14T01:15:38Z</time>
      </trkpt>
      <trkpt lat="42.070940" lon="2.959100">
        <ele>39.0</ele>
        <time>2019-01-14T01:15:41Z</time>
      </trkpt>
      <trkpt lat="42.070470" lon="2.959100">
        <ele>41.0</ele>
        <time>2019-01-14T01:15:49Z</time>
      </trkpt>
      <trkpt lat="42.070560" lon="2.958840">
        <ele>42.0</ele>
        <time>2019-01-14T01:15:52Z</time>
      </trkpt>
      <trkpt lat="42.070750" lon="2.958540">
        <ele>42.0</ele>
        <time>2019-01-14T01:15:57Z</time>
      </trkpt>
      <trkpt lat="42.070750" lon="2.958560">
        <ele>42.0</ele>
        <time>2019-01-14T01:15:57Z</time>
      </trkpt>
      <trkpt lat="42.070470" lon="2.958780">
        <ele>42.0</ele>
        <time>2019-01-14T01:16:02Z</time>
      </trkpt>
      <trkpt lat="42.070680" lon="2.958670">
        <ele>42.0</ele>
        <time>2019-01-14T01:16:06Z</time>
      </trkpt>
      <trkpt lat="42.070680" lon="2.958650">
        <ele>42.0</ele>
        <time>2019-01-14T01:16:06Z</time>
      </trkpt>
      <trkpt lat="42.070580" lon="2.958760">
        <ele>42.0</ele>
        <time>2019-01-14T01:16:08Z</time>
      </trkpt>
      <trkpt lat="42.070430" lon="2.959100">
        <ele>41.0</ele>
        <time>2019-01-14T01:16:13Z</time>
      </trkpt>
      <trkpt lat="42.070410" lon="2.959810">
        <ele>39.0</ele>
        <time>2019-01-14T01:16:21Z</time>
      </trkpt>
      <trkpt lat="42.070410" lon="2.960360">
        <ele>39.0</ele>
        <time>2019-01-14T01:16:28Z</time>
      </trkpt>
      <trkpt lat="42.070410" lon="2.960490">
        <ele>39.0</ele>
        <time>2019-01-14T01:16:30Z</time>
      </trkpt>
      <trkpt lat="42.070360" lon="2.960840">
        <ele>39.0</ele>
        <time>2019-01-14T01:16:34Z</time>
      </trkpt>
      <trkpt lat="42.070320" lon="2.961780">
        <ele>39.0</ele>
        <time>2019-01-14T01:16:45Z</time>
      </trkpt>
      <trkpt lat="42.070300" lon="2.962340">
        <ele>39.0</ele>
        <time>2019-01-14T01:16:52Z</time>
      </trkpt>
      <trkpt lat="42.070300" lon="2.962450">
        <ele>40.0</ele>
        <time>2019-01-14T01:16:53Z</time>
      </trkpt>
      <trkpt lat="42.069980" lon="2.962600">
        <ele>41.0</ele>
        <time>2019-01-14T01:16:58Z</time>
      </trkpt>
      <trkpt lat="42.069590" lon="2.962640">
        <ele>42.0</ele>
        <time>2019-01-14T01:17:05Z</time>
      </trkpt>
      <trkpt lat="42.069160" lon="2.962680">
        <ele>42.0</ele>
        <time>2019-01-14T01:17:11Z</time>
      </trkpt>
      <trkpt lat="42.068600" lon="2.962770">
        <ele>43.0</ele>
        <time>2019-01-14T01:17:21Z</time>
      </trkpt>
      <trkpt lat="42.068020" lon="2.962850">
        <ele>45.0</ele>
        <time>2019-01-14T01:17:30Z</time>
      </trkpt>
      <trkpt lat="42.067380" lon="2.962940">
        <ele>46.0</ele>
        <time>2019-01-14T01:17:40Z</time>
      </trkpt>
      <trkpt lat="42.066890" lon="2.963110">
        <ele>47.0</ele>
        <time>2019-01-14T01:17:48Z</time>
      </trkpt>
      <trkpt lat="42.066160" lon="2.963430">
        <ele>46.0</ele>
        <time>2019-01-14T01:18:01Z</time>
      </trkpt>
      <trkpt lat="42.065340" lon="2.963600">
        <ele>44.0</ele>
        <time>2019-01-14T01:18:14Z</time>
      </trkpt>
      <trkpt lat="42.064440" lon="2.963760">
        <ele>43.0</ele>
        <time>2019-01-14T01:18:28Z</time>
      </trkpt>
      <trkpt lat="42.064080" lon="2.963760">
        <ele>43.0</ele>
        <time>2019-01-14T01:18:34Z</time>
      </trkpt>
      <trkpt lat="42.063300" lon="2.963560">
        <ele>43.0</ele>
        <time>2019-01-14T01:18:47Z</time>
      </trkpt>
      <trkpt lat="42.062490" lon="2.963670">
        <ele>45.0</ele>
        <time>2019-01-14T01:19:00Z</time>
      </trkpt>
      <trkpt lat="42.061690" lon="2.963650">
        <ele>46.0</ele>
        <time>2019-01-14T01:19:13Z</time>
      </trkpt>
      <trkpt lat="42.060770" lon="2.963540">
        <ele>48.0</ele>
        <time>2019-01-14T01:19:27Z</time>
      </trkpt>
      <trkpt lat="42.060600" lon="2.963430">
        <ele>49.0</ele>
        <time>2019-01-14T01:19:31Z</time>
      </trkpt>
      <trkpt lat="42.060470" lon="2.963090">
        <ele>50.0</ele>
        <time>2019-01-14T01:19:35Z</time>
      </trkpt>
      <trkpt lat="42.060450" lon="2.962770">
        <ele>51.0</ele>
        <time>2019-01-14T01:19:39Z</time>
      </trkpt>
      <trkpt lat="42.060300" lon="2.962450">
        <ele>50.0</ele>
        <time>2019-01-14T01:19:43Z</time>
      </trkpt>
      <trkpt lat="42.060110" lon="2.962100">
        <ele>46.0</ele>
        <time>2019-01-14T01:19:49Z</time>
      </trkpt>
      <trkpt lat="42.059930" lon="2.961780">
        <ele>41.0</ele>
        <time>2019-01-14T01:19:53Z</time>
      </trkpt>
      <trkpt lat="42.059910" lon="2.961290">
        <ele>36.0</ele>
        <time>2019-01-14T01:19:59Z</time>
      </trkpt>
      <trkpt lat="42.060580" lon="2.960860">
        <ele>28.0</ele>
        <time>2019-01-14T01:20:11Z</time>
      </trkpt>
      <trkpt lat="42.060770" lon="2.960340">
        <ele>27.0</ele>
        <time>2019-01-14T01:20:18Z</time>
      </trkpt>
      <trkpt lat="42.060600" lon="2.960040">
        <ele>27.0</ele>
        <time>2019-01-14T01:20:22Z</time>
      </trkpt>
      <trkpt lat="42.060410" lon="2.959790">
        <ele>27.0</ele>
        <time>2019-01-14T01:20:27Z</time>
      </trkpt>
      <trkpt lat="42.060020" lon="2.959680">
        <ele>27.0</ele>
        <time>2019-01-14T01:20:33Z</time>
      </trkpt>
      <trkpt lat="42.059160" lon="2.959890">
        <ele>25.0</ele>
        <time>2019-01-14T01:20:47Z</time>
      </trkpt>
      <trkpt lat="42.058730" lon="2.959760">
        <ele>29.0</ele>
        <time>2019-01-14T01:20:54Z</time>
      </trkpt>
      <trkpt lat="42.058110" lon="2.959490">
        <ele>31.0</ele>
        <time>2019-01-14T01:21:04Z</time>
      </trkpt>
      <trkpt lat="42.057060" lon="2.959380">
        <ele>30.0</ele>
        <time>2019-01-14T01:21:21Z</time>
      </trkpt>
      <trkpt lat="42.056140" lon="2.959310">
        <ele>30.0</ele>
        <time>2019-01-14T01:21:36Z</time>
      </trkpt>
      <trkpt lat="42.055750" lon="2.959290">
        <ele>30.0</ele>
        <time>2019-01-14T01:21:42Z</time>
      </trkpt>
      <trkpt lat="42.055560" lon="2.959100">
        <ele>30.0</ele>
        <time>2019-01-14T01:21:46Z</time>
      </trkpt>
      <trkpt lat="42.055540" lon="2.959030">
        <ele>30.0</ele>
        <time>2019-01-14T01:21:47Z</time>
      </trkpt>
      <trkpt lat="42.055280" lon="2.958760">
        <ele>30.0</ele>
        <time>2019-01-14T01:21:52Z</time>
      </trkpt>
      <trkpt lat="42.054980" lon="2.958650">
        <ele>30.0</ele>
        <time>2019-01-14T01:21:57Z</time>
      </trkpt>
      <trkpt lat="42.054700" lon="2.958630">
        <ele>30.0</ele>
        <time>2019-01-14T01:22:02Z</time>
      </trkpt>
      <trkpt lat="42.054570" lon="2.958580">
        <ele>30.0</ele>
        <time>2019-01-14T01:22:04Z</time>
      </trkpt>
      <trkpt lat="42.054200" lon="2.958350">
        <ele>30.0</ele>
        <time>2019-01-14T01:22:10Z</time>
      </trkpt>
      <trkpt lat="42.053860" lon="2.958180">
        <ele>30.0</ele>
        <time>2019-01-14T01:22:16Z</time>
      </trkpt>
      <trkpt lat="42.052700" lon="2.958130">
        <ele>30.0</ele>
        <time>2019-01-14T01:22:35Z</time>
      </trkpt>
      <trkpt lat="42.052420" lon="2.958090">
        <ele>30.0</ele>
        <time>2019-01-14T01:22:39Z</time>
      </trkpt>
      <trkpt lat="42.051870" lon="2.957640">
        <ele>30.0</ele>
        <time>2019-01-14T01:22:50Z</time>
      </trkpt>
      <trkpt lat="42.051140" lon="2.956970">
        <ele>33.0</ele>
        <time>2019-01-14T01:23:04Z</time>
      </trkpt>
      <trkpt lat="42.050900" lon="2.956760">
        <ele>33.0</ele>
        <time>2019-01-14T01:23:08Z</time>
      </trkpt>
      <trkpt lat="42.050660" lon="2.956480">
        <ele>33.0</ele>
        <time>2019-01-14T01:23:13Z</time>
      </trkpt>
      <trkpt lat="42.050430" lon="2.956700">
        <ele>33.0</ele>
        <time>2019-01-14T01:23:18Z</time>
      </trkpt>
      <trkpt lat="42.049570" lon="2.956890">
        <ele>34.0</ele>
        <time>2019-01-14T01:23:32Z</time>
      </trkpt>
      <trkpt lat="42.048580" lon="2.957100">
        <ele>35.0</ele>
        <time>2019-01-14T01:23:48Z</time>
      </trkpt>
      <trkpt lat="42.048450" lon="2.957120">
        <ele>35.0</ele>
        <time>2019-01-14T01:23:50Z</time>
      </trkpt>
      <trkpt lat="42.048130" lon="2.956870">
        <ele>35.0</ele>
        <time>2019-01-14T01:23:56Z</time>
      </trkpt>
      <trkpt lat="42.047400" lon="2.955670">
        <ele>37.0</ele>
        <time>2019-01-14T01:24:14Z</time>
      </trkpt>
      <trkpt lat="42.046930" lon="2.954940">
        <ele>38.0</ele>
        <time>2019-01-14T01:24:26Z</time>
      </trkpt>
      <trkpt lat="42.046650" lon="2.954720">
        <ele>38.0</ele>
        <time>2019-01-14T01:24:31Z</time>
      </trkpt>
      <trkpt lat="42.046630" lon="2.954610">
        <ele>38.0</ele>
        <time>2019-01-14T01:24:32Z</time>
      </trkpt>
      <trkpt lat="42.046610" lon="2.953650">
        <ele>38.0</ele>
        <time>2019-01-14T01:24:44Z</time>
      </trkpt>
      <trkpt lat="42.046590" lon="2.952550">
        <ele>38.0</ele>
        <time>2019-01-14T01:24:57Z</time>
      </trkpt>
      <trkpt lat="42.046590" lon="2.951160">
        <ele>38.0</ele>
        <time>2019-01-14T01:25:13Z</time>
      </trkpt>
      <trkpt lat="42.046570" lon="2.949440">
        <ele>38.0</ele>
        <time>2019-01-14T01:25:34Z</time>
      </trkpt>
      <trkpt lat="42.046570" lon="2.947530">
        <ele>39.0</ele>
        <time>2019-01-14T01:25:57Z</time>
      </trkpt>
      <trkpt lat="42.046540" lon="2.945900">
        <ele>40.0</ele>
        <time>2019-01-14T01:26:16Z</time>
      </trkpt>
      <trkpt lat="42.046520" lon="2.944140">
        <ele>45.0</ele>
        <time>2019-01-14T01:26:37Z</time>
      </trkpt>
      <trkpt lat="42.046480" lon="2.942920">
        <ele>45.0</ele>
        <time>2019-01-14T01:26:51Z</time>
      </trkpt>
      <trkpt lat="42.046180" lon="2.941950">
        <ele>45.0</ele>
        <time>2019-01-14T01:27:04Z</time>
      </trkpt>
      <trkpt lat="42.045770" lon="2.940650">
        <ele>45.0</ele>
        <time>2019-01-14T01:27:21Z</time>
      </trkpt>
      <trkpt lat="42.045560" lon="2.938930">
        <ele>48.0</ele>
        <time>2019-01-14T01:27:42Z</time>
      </trkpt>
      <trkpt lat="42.045410" lon="2.937770">
        <ele>54.0</ele>
        <time>2019-01-14T01:27:56Z</time>
      </trkpt>
      <trkpt lat="42.045210" lon="2.936250">
        <ele>60.0</ele>
        <time>2019-01-14T01:28:14Z</time>
      </trkpt>
      <trkpt lat="42.044960" lon="2.935300">
        <ele>58.0</ele>
        <time>2019-01-14T01:28:26Z</time>
      </trkpt>
      <trkpt lat="42.044440" lon="2.934530">
        <ele>55.0</ele>
        <time>2019-01-14T01:28:38Z</time>
      </trkpt>
      <trkpt lat="42.043970" lon="2.934010">
        <ele>52.0</ele>
        <time>2019-01-14T01:28:48Z</time>
      </trkpt>
      <trkpt lat="42.043450" lon="2.933780">
        <ele>52.0</ele>
        <time>2019-01-14T01:28:57Z</time>
      </trkpt>
      <trkpt lat="42.043300" lon="2.933520">
        <ele>51.0</ele>
        <time>2019-01-14T01:29:01Z</time>
      </trkpt>
      <trkpt lat="42.042810" lon="2.932600">
        <ele>48.0</ele>
        <time>2019-01-14T01:29:14Z</time>
      </trkpt>
      <trkpt lat="42.041890" lon="2.931400">
        <ele>45.0</ele>
        <time>2019-01-14T01:29:35Z</time>
      </trkpt>
      <trkpt lat="42.041270" lon="2.930070">
        <ele>44.0</ele>
        <time>2019-01-14T01:29:53Z</time>
      </trkpt>
      <trkpt lat="42.040840" lon="2.928370">
        <ele>44.0</ele>
        <time>2019-01-14T01:30:15Z</time>
      </trkpt>
      <trkpt lat="42.040340" lon="2.926330">
        <ele>46.0</ele>
        <time>2019-01-14T01:30:40Z</time>
      </trkpt>
      <trkpt lat="42.039740" lon="2.923820">
        <ele>47.0</ele>
        <time>2019-01-14T01:31:12Z</time>
      </trkpt>
      <trkpt lat="42.039230" lon="2.921720">
        <ele>49.0</ele>
        <time>2019-01-14T01:31:38Z</time>
      </trkpt>
      <trkpt lat="42.038670" lon="2.919530">
        <ele>50.0</ele>
        <time>2019-01-14T01:32:05Z</time>
      </trkpt>
      <trkpt lat="42.038280" lon="2.918010">
        <ele>49.0</ele>
        <time>2019-01-14T01:32:24Z</time>
      </trkpt>
      <trkpt lat="42.038240" lon="2.917840">
        <ele>49.0</ele>
        <time>2019-01-14T01:32:27Z</time>
      </trkpt>
      <trkpt lat="42.038180" lon="2.917770">
        <ele>49.0</ele>
        <time>2019-01-14T01:32:28Z</time>
      </trkpt>
      <trkpt lat="42.038090" lon="2.917880">
        <ele>49.0</ele>
        <time>2019-01-14T01:32:30Z</time>
      </trkpt>
      <trkpt lat="42.037580" lon="2.918590">
        <ele>50.0</ele>
        <time>2019-01-14T01:32:42Z</time>
      </trkpt>
      <trkpt lat="42.036800" lon="2.919660">
        <ele>49.0</ele>
        <time>2019-01-14T01:32:59Z</time>
      </trkpt>
      <trkpt lat="42.036140" lon="2.920730">
        <ele>52.0</ele>
        <time>2019-01-14T01:33:16Z</time>
      </trkpt>
      <trkpt lat="42.035280" lon="2.922020">
        <ele>54.0</ele>
        <time>2019-01-14T01:33:37Z</time>
      </trkpt>
      <trkpt lat="42.034610" lon="2.923440">
        <ele>56.0</ele>
        <time>2019-01-14T01:33:57Z</time>
      </trkpt>
      <trkpt lat="42.034080" lon="2.924360">
        <ele>56.0</ele>
        <time>2019-01-14T01:34:10Z</time>
      </trkpt>
      <trkpt lat="42.033580" lon="2.924570">
        <ele>54.0</ele>
        <time>2019-01-14T01:34:19Z</time>
      </trkpt>
      <trkpt lat="42.033070" lon="2.924790">
        <ele>53.0</ele>
        <time>2019-01-14T01:34:27Z</time>
      </trkpt>
      <trkpt lat="42.032250" lon="2.925580">
        <ele>52.0</ele>
        <time>2019-01-14T01:34:44Z</time>
      </trkpt>
      <trkpt lat="42.031950" lon="2.925710">
        <ele>52.0</ele>
        <time>2019-01-14T01:34:49Z</time>
      </trkpt>
      <trkpt lat="42.030370" lon="2.926100">
        <ele>53.0</ele>
        <time>2019-01-14T01:35:14Z</time>
      </trkpt>
      <trkpt lat="42.028800" lon="2.926480">
        <ele>55.0</ele>
        <time>2019-01-14T01:35:40Z</time>
      </trkpt>
      <trkpt lat="42.027640" lon="2.926680">
        <ele>56.0</ele>
        <time>2019-01-14T01:35:59Z</time>
      </trkpt>
      <trkpt lat="42.027320" lon="2.926930">
        <ele>56.0</ele>
        <time>2019-01-14T01:36:04Z</time>
      </trkpt>
      <trkpt lat="42.027080" lon="2.927360">
        <ele>58.0</ele>
        <time>2019-01-14T01:36:11Z</time>
      </trkpt>
      <trkpt lat="42.026700" lon="2.927620">
        <ele>61.0</ele>
        <time>2019-01-14T01:36:18Z</time>
      </trkpt>
      <trkpt lat="42.025670" lon="2.928330">
        <ele>69.0</ele>
        <time>2019-01-14T01:36:36Z</time>
      </trkpt>
      <trkpt lat="42.024960" lon="2.929020">
        <ele>77.0</ele>
        <time>2019-01-14T01:36:50Z</time>
      </trkpt>
      <trkpt lat="42.024590" lon="2.929400">
        <ele>80.0</ele>
        <time>2019-01-14T01:36:58Z</time>
      </trkpt>
      <trkpt lat="42.024100" lon="2.929530">
        <ele>82.0</ele>
        <time>2019-01-14T01:37:06Z</time>
      </trkpt>
      <trkpt lat="42.023160" lon="2.929510">
        <ele>85.0</ele>
        <time>2019-01-14T01:37:21Z</time>
      </trkpt>
      <trkpt lat="42.022960" lon="2.929440">
        <ele>86.0</ele>
        <time>2019-01-14T01:37:24Z</time>
      </trkpt>
      <trkpt lat="42.022380" lon="2.929550">
        <ele>84.0</ele>
        <time>2019-01-14T01:37:33Z</time>
      </trkpt>
      <trkpt lat="42.022080" lon="2.929700">
        <ele>83.0</ele>
        <time>2019-01-14T01:37:39Z</time>
      </trkpt>
      <trkpt lat="42.021800" lon="2.929960">
        <ele>82.0</ele>
        <time>2019-01-14T01:37:44Z</time>
      </trkpt>
      <trkpt lat="42.021180" lon="2.930240">
        <ele>77.0</ele>
        <time>2019-01-14T01:37:54Z</time>
      </trkpt>
      <trkpt lat="42.021100" lon="2.930280">
        <ele>76.0</ele>
        <time>2019-01-14T01:37:56Z</time>
      </trkpt>
      <trkpt lat="42.020970" lon="2.930470">
        <ele>75.0</ele>
        <time>2019-01-14T01:37:59Z</time>
      </trkpt>
      <trkpt lat="42.020860" lon="2.930920">
        <ele>73.0</ele>
        <time>2019-01-14T01:38:05Z</time>
      </trkpt>
      <trkpt lat="42.021520" lon="2.932020">
        <ele>68.0</ele>
        <time>2019-01-14T01:38:21Z</time>
      </trkpt>
      <trkpt lat="42.022130" lon="2.932810">
        <ele>67.0</ele>
        <time>2019-01-14T01:38:35Z</time>
      </trkpt>
      <trkpt lat="42.022190" lon="2.933390">
        <ele>70.0</ele>
        <time>2019-01-14T01:38:42Z</time>
      </trkpt>
      <trkpt lat="42.022130" lon="2.933500">
        <ele>70.0</ele>
        <time>2019-01-14T01:38:43Z</time>
      </trkpt>
      <trkpt lat="42.021930" lon="2.933780">
        <ele>72.0</ele>
        <time>2019-01-14T01:38:48Z</time>
      </trkpt>
      <trkpt lat="42.021440" lon="2.934210">
        <ele>74.0</ele>
        <time>2019-01-14T01:38:57Z</time>
      </trkpt>
      <trkpt lat="42.020990" lon="2.935170">
        <ele>78.0</ele>
        <time>2019-01-14T01:39:11Z</time>
      </trkpt>
      <trkpt lat="42.020710" lon="2.935430">
        <ele>77.0</ele>
        <time>2019-01-14T01:39:16Z</time>
      </trkpt>
      <trkpt lat="42.020260" lon="2.935650">
        <ele>77.0</ele>
        <time>2019-01-14T01:39:24Z</time>
      </trkpt>
      <trkpt lat="42.019550" lon="2.936420">
        <ele>79.0</ele>
        <time>2019-01-14T01:39:39Z</time>
      </trkpt>
      <trkpt lat="42.018710" lon="2.937060">
        <ele>81.0</ele>
        <time>2019-01-14T01:39:54Z</time>
      </trkpt>
      <trkpt lat="42.018520" lon="2.937230">
        <ele>82.0</ele>
        <time>2019-01-14T01:39:58Z</time>
      </trkpt>
      <trkpt lat="42.017960" lon="2.938260">
        <ele>81.0</ele>
        <time>2019-01-14T01:40:13Z</time>
      </trkpt>
      <trkpt lat="42.017360" lon="2.939010">
        <ele>81.0</ele>
        <time>2019-01-14T01:40:26Z</time>
      </trkpt>
      <trkpt lat="42.016500" lon="2.939850">
        <ele>84.0</ele>
        <time>2019-01-14T01:40:43Z</time>
      </trkpt>
      <trkpt lat="42.015820" lon="2.940000">
        <ele>86.0</ele>
        <time>2019-01-14T01:40:54Z</time>
      </trkpt>
      <trkpt lat="42.014810" lon="2.940260">
        <ele>88.0</ele>
        <time>2019-01-14T01:41:11Z</time>
      </trkpt>
      <trkpt lat="42.013670" lon="2.940730">
        <ele>92.0</ele>
        <time>2019-01-14T01:41:30Z</time>
      </trkpt>
      <trkpt lat="42.012770" lon="2.940880">
        <ele>94.0</ele>
        <time>2019-01-14T01:41:44Z</time>
      </trkpt>
      <trkpt lat="42.011590" lon="2.941070">
        <ele>96.0</ele>
        <time>2019-01-14T01:42:03Z</time>
      </trkpt>
      <trkpt lat="42.010070" lon="2.941250">
        <ele>100.0</ele>
        <time>2019-01-14T01:42:28Z</time>
      </trkpt>
      <trkpt lat="42.009190" lon="2.941440">
        <ele>102.0</ele>
        <time>2019-01-14T01:42:42Z</time>
      </trkpt>
      <trkpt lat="42.007770" lon="2.941850">
        <ele>105.0</ele>
        <time>2019-01-14T01:43:05Z</time>
      </trkpt>
      <trkpt lat="42.006400" lon="2.942250">
        <ele>110.0</ele>
        <time>2019-01-14T01:43:28Z</time>
      </trkpt>
      <trkpt lat="42.005320" lon="2.942940">
        <ele>113.0</ele>
        <time>2019-01-14T01:43:47Z</time>
      </trkpt>
      <trkpt lat="42.004120" lon="2.943860">
        <ele>119.0</ele>
        <time>2019-01-14T01:44:09Z</time>
      </trkpt>
      <trkpt lat="42.003180" lon="2.944610">
        <ele>126.0</ele>
        <time>2019-01-14T01:44:26Z</time>
      </trkpt>
      <trkpt lat="42.001960" lon="2.945470">
        <ele>132.0</ele>
        <time>2019-01-14T01:44:48Z</time>
      </trkpt>
      <trkpt lat="42.001270" lon="2.945970">
        <ele>133.0</ele>
        <time>2019-01-14T01:45:01Z</time>
      </trkpt>
      <trkpt lat="42.000390" lon="2.947000">
        <ele>131.0</ele>
        <time>2019-01-14T01:45:20Z</time>
      </trkpt>
      <trkpt lat="41.999700" lon="2.947730">
        <ele>130.0</ele>
        <time>2019-01-14T01:45:34Z</time>
      </trkpt>
      <trkpt lat="41.998870" lon="2.948130">
        <ele>129.0</ele>
        <time>2019-01-14T01:45:48Z</time>
      </trkpt>
      <trkpt lat="41.998500" lon="2.948350">
        <ele>129.0</ele>
        <time>2019-01-14T01:45:54Z</time>
      </trkpt>
      <trkpt lat="41.997810" lon="2.949100">
        <ele>128.0</ele>
        <time>2019-01-14T01:46:09Z</time>
      </trkpt>
      <trkpt lat="41.997060" lon="2.949810">
        <ele>127.0</ele>
        <time>2019-01-14T01:46:23Z</time>
      </trkpt>
      <trkpt lat="41.996180" lon="2.950170">
        <ele>129.0</ele>
        <time>2019-01-14T01:46:38Z</time>
      </trkpt>
      <trkpt lat="41.995330" lon="2.950560">
        <ele>131.0</ele>
        <time>2019-01-14T01:46:52Z</time>
      </trkpt>
      <trkpt lat="41.994320" lon="2.951200">
        <ele>134.0</ele>
        <time>2019-01-14T01:47:10Z</time>
      </trkpt>
      <trkpt lat="41.993220" lon="2.951630">
        <ele>140.0</ele>
        <time>2019-01-14T01:47:29Z</time>
      </trkpt>
      <trkpt lat="41.992470" lon="2.952000">
        <ele>142.0</ele>
        <time>2019-01-14T01:47:41Z</time>
      </trkpt>
      <trkpt lat="41.991740" lon="2.952430">
        <ele>145.0</ele>
        <time>2019-01-14T01:47:54Z</time>
      </trkpt>
      <trkpt lat="41.990990" lon="2.952880">
        <ele>147.0</ele>
        <time>2019-01-14T01:48:07Z</time>
      </trkpt>
      <trkpt lat="41.990180" lon="2.953350">
        <ele>149.0</ele>
        <time>2019-01-14T01:48:21Z</time>
      </trkpt>
      <trkpt lat="41.989100" lon="2.953930">
        <ele>154.0</ele>
        <time>2019-01-14T01:48:40Z</time>
      </trkpt>
      <trkpt lat="41.988480" lon="2.954490">
        <ele>156.0</ele>
        <time>2019-01-14T01:48:52Z</time>
      </trkpt>
      <trkpt lat="41.988140" lon="2.955320">
        <ele>160.0</ele>
        <time>2019-01-14T01:49:03Z</time>
      </trkpt>
      <trkpt lat="41.987690" lon="2.956350">
        <ele>162.0</ele>
        <time>2019-01-14T01:49:17Z</time>
      </trkpt>
      <trkpt lat="41.987410" lon="2.957100">
        <ele>160.0</ele>
        <time>2019-01-14T01:49:27Z</time>
      </trkpt>
      <trkpt lat="41.987240" lon="2.957920">
        <ele>156.0</ele>
        <time>2019-01-14T01:49:38Z</time>
      </trkpt>
      <trkpt lat="41.987240" lon="2.958390">
        <ele>153.0</ele>
        <time>2019-01-14T01:49:43Z</time>
      </trkpt>
      <trkpt lat="41.987300" lon="2.958930">
        <ele>150.0</ele>
        <time>2019-01-14T01:49:50Z</time>
      </trkpt>
      <trkpt lat="41.987170" lon="2.959610">
        <ele>147.0</ele>
        <time>2019-01-14T01:49:58Z</time>
      </trkpt>
      <trkpt lat="41.986440" lon="2.961140">
        <ele>144.0</ele>
        <time>2019-01-14T01:50:20Z</time>
      </trkpt>
      <trkpt lat="41.985800" lon="2.962000">
        <ele>147.0</ele>
        <time>2019-01-14T01:50:34Z</time>
      </trkpt>
      <trkpt lat="41.985150" lon="2.962730">
        <ele>149.0</ele>
        <time>2019-01-14T01:50:48Z</time>
      </trkpt>
      <trkpt lat="41.985030" lon="2.962960">
        <ele>149.0</ele>
        <time>2019-01-14T01:50:51Z</time>
      </trkpt>
      <trkpt lat="41.984510" lon="2.964420">
        <ele>146.0</ele>
        <time>2019-01-14T01:51:10Z</time>
      </trkpt>
      <trkpt lat="41.984210" lon="2.965710">
        <ele>138.0</ele>
        <time>2019-01-14T01:51:26Z</time>
      </trkpt>
      <trkpt lat="41.983780" lon="2.967490">
        <ele>134.0</ele>
        <time>2019-01-14T01:51:49Z</time>
      </trkpt>
      <trkpt lat="41.983440" lon="2.969030">
        <ele>135.0</ele>
        <time>2019-01-14T01:52:08Z</time>
      </trkpt>
      <trkpt lat="41.983180" lon="2.970150">
        <ele>136.0</ele>
        <time>2019-01-14T01:52:22Z</time>
      </trkpt>
      <trkpt lat="41.983220" lon="2.970660">
        <ele>135.0</ele>
        <time>2019-01-14T01:52:28Z</time>
      </trkpt>
      <trkpt lat="41.983630" lon="2.972230">
        <ele>132.0</ele>
        <time>2019-01-14T01:52:48Z</time>
      </trkpt>
      <trkpt lat="41.983850" lon="2.973820">
        <ele>126.0</ele>
        <time>2019-01-14T01:53:07Z</time>
      </trkpt>
      <trkpt lat="41.984100" lon="2.975640">
        <ele>124.0</ele>
        <time>2019-01-14T01:53:29Z</time>
      </trkpt>
      <trkpt lat="41.984340" lon="2.977270">
        <ele>120.0</ele>
        <time>2019-01-14T01:53:49Z</time>
      </trkpt>
      <trkpt lat="41.984510" lon="2.977750">
        <ele>119.0</ele>
        <time>2019-01-14T01:53:55Z</time>
      </trkpt>
      <trkpt lat="41.984550" lon="2.978280">
        <ele>116.0</ele>
        <time>2019-01-14T01:54:01Z</time>
      </trkpt>
      <trkpt lat="41.984270" lon="2.980020">
        <ele>106.0</ele>
        <time>2019-01-14T01:54:23Z</time>
      </trkpt>
      <trkpt lat="41.983970" lon="2.981460">
        <ele>103.0</ele>
        <time>2019-01-14T01:54:40Z</time>
      </trkpt>
      <trkpt lat="41.983740" lon="2.981890">
        <ele>102.0</ele>
        <time>2019-01-14T01:54:47Z</time>
      </trkpt>
      <trkpt lat="41.983030" lon="2.982530">
        <ele>102.0</ele>
        <time>2019-01-14T01:55:00Z</time>
      </trkpt>
      <trkpt lat="41.981980" lon="2.983560">
        <ele>96.0</ele>
        <time>2019-01-14T01:55:21Z</time>
      </trkpt>
      <trkpt lat="41.981230" lon="2.984760">
        <ele>87.0</ele>
        <time>2019-01-14T01:55:40Z</time>
      </trkpt>
      <trkpt lat="41.980090" lon="2.986560">
        <ele>73.0</ele>
        <time>2019-01-14T01:56:08Z</time>
      </trkpt>
      <trkpt lat="41.979450" lon="2.987570">
        <ele>69.0</ele>
        <time>2019-01-14T01:56:24Z</time>
      </trkpt>
      <trkpt lat="41.979340" lon="2.988260">
        <ele>68.0</ele>
        <time>2019-01-14T01:56:32Z</time>
      </trkpt>
      <trkpt lat="41.979100" lon="2.988620">
        <ele>68.0</ele>
        <time>2019-01-14T01:56:38Z</time>
      </trkpt>
      <trkpt lat="41.978200" lon="2.989550">
        <ele>67.0</ele>
        <time>2019-01-14T01:56:56Z</time>
      </trkpt>
      <trkpt lat="41.977750" lon="2.990170">
        <ele>67.0</ele>
        <time>2019-01-14T01:57:06Z</time>
      </trkpt>
      <trkpt lat="41.977600" lon="2.990530">
        <ele>67.0</ele>
        <time>2019-01-14T01:57:11Z</time>
      </trkpt>
      <trkpt lat="41.977430" lon="2.991200">
        <ele>68.0</ele>
        <time>2019-01-14T01:57:20Z</time>
      </trkpt>
      <trkpt lat="41.977170" lon="2.991650">
        <ele>70.0</ele>
        <time>2019-01-14T01:57:27Z</time>
      </trkpt>
      <trkpt lat="41.976550" lon="2.992290">
        <ele>72.0</ele>
        <time>2019-01-14T01:57:39Z</time>
      </trkpt>
      <trkpt lat="41.976460" lon="2.992400">
        <ele>73.0</ele>
        <time>2019-01-14T01:57:41Z</time>
      </trkpt>
      <trkpt lat="41.976160" lon="2.993280">
        <ele>70.0</ele>
        <time>2019-01-14T01:57:52Z</time>
      </trkpt>
      <trkpt lat="41.975730" lon="2.994530">
        <ele>62.0</ele>
        <time>2019-01-14T01:58:09Z</time>
      </trkpt>
      <trkpt lat="41.975030" lon="2.996480">
        <ele>54.0</ele>
        <time>2019-01-14T01:58:35Z</time>
      </trkpt>
      <trkpt lat="41.975090" lon="2.997080">
        <ele>54.0</ele>
        <time>2019-01-14T01:58:42Z</time>
      </trkpt>
      <trkpt lat="41.975130" lon="2.997190">
        <ele>54.0</ele>
        <time>2019-01-14T01:58:43Z</time>
      </trkpt>
      <trkpt lat="41.975800" lon="2.998130">
        <ele>56.0</ele>
        <time>2019-01-14T01:58:59Z</time>
      </trkpt>
      <trkpt lat="41.976060" lon="2.998730">
        <ele>57.0</ele>
        <time>2019-01-14T01:59:07Z</time>
      </trkpt>
      <trkpt lat="41.976570" lon="2.999330">
        <ele>54.0</ele>
        <time>2019-01-14T01:59:18Z</time>
      </trkpt>
      <trkpt lat="41.976740" lon="3.000020">
        <ele>51.0</ele>
        <time>2019-01-14T01:59:27Z</time>
      </trkpt>
      <trkpt lat="41.976610" lon="3.000900">
        <ele>48.0</ele>
        <time>2019-01-14T01:59:37Z</time>
      </trkpt>
      <trkpt lat="41.976680" lon="3.001760">
        <ele>47.0</ele>
        <time>2019-01-14T01:59:48Z</time>
      </trkpt>
      <trkpt lat="41.976740" lon="3.002140">
        <ele>47.0</ele>
        <time>2019-01-14T01:59:52Z</time>
      </trkpt>
      <trkpt lat="41.976760" lon="3.002060">
        <ele>47.0</ele>
        <time>2019-01-14T01:59:53Z</time>
      </trkpt>
      <trkpt lat="41.976660" lon="3.001240">
        <ele>48.0</ele>
        <time>2019-01-14T02:00:03Z</time>
      </trkpt>
      <trkpt lat="41.976640" lon="3.001160">
        <ele>48.0</ele>
        <time>2019-01-14T02:00:04Z</time>
      </trkpt>
      <trkpt lat="41.976440" lon="3.000980">
        <ele>48.0</ele>
        <time>2019-01-14T02:00:08Z</time>
      </trkpt>
      <trkpt lat="41.976310" lon="3.001070">
        <ele>47.0</ele>
        <time>2019-01-14T02:00:10Z</time>
      </trkpt>
      <trkpt lat="41.975480" lon="3.001740">
        <ele>46.0</ele>
        <time>2019-01-14T02:00:26Z</time>
      </trkpt>
      <trkpt lat="41.974850" lon="3.001970">
        <ele>49.0</ele>
        <time>2019-01-14T02:00:36Z</time>
      </trkpt>
      <trkpt lat="41.974600" lon="3.001740">
        <ele>50.0</ele>
        <time>2019-01-14T02:00:41Z</time>
      </trkpt>
      <trkpt lat="41.974230" lon="3.000770">
        <ele>53.0</ele>
        <time>2019-01-14T02:00:54Z</time>
      </trkpt>
      <trkpt lat="41.974190" lon="3.000360">
        <ele>54.0</ele>
        <time>2019-01-14T02:00:59Z</time>
      </trkpt>
      <trkpt lat="41.973970" lon="3.000150">
        <ele>56.0</ele>
        <time>2019-01-14T02:01:03Z</time>
      </trkpt>
      <trkpt lat="41.973870" lon="3.000190">
        <ele>56.0</ele>
        <time>2019-01-14T02:01:05Z</time>
      </trkpt>
      <trkpt lat="41.973800" lon="3.000250">
        <ele>56.0</ele>
        <time>2019-01-14T02:01:06Z</time>
      </trkpt>
      <trkpt lat="41.973250" lon="3.000400">
        <ele>58.0</ele>
        <time>2019-01-14T02:01:15Z</time>
      </trkpt>
      <trkpt lat="41.972770" lon="3.000380">
        <ele>59.0</ele>
        <time>2019-01-14T02:01:23Z</time>
      </trkpt>
      <trkpt lat="41.972540" lon="3.000470">
        <ele>61.0</ele>
        <time>2019-01-14T02:01:27Z</time>
      </trkpt>
      <trkpt lat="41.971870" lon="3.001050">
        <ele>66.0</ele>
        <time>2019-01-14T02:01:40Z</time>
      </trkpt>
      <trkpt lat="41.971660" lon="3.001220">
        <ele>67.0</ele>
        <time>2019-01-14T02:01:44Z</time>
      </trkpt>
      <trkpt lat="41.971080" lon="3.001800">
        <ele>70.0</ele>
        <time>2019-01-14T02:01:55Z</time>
      </trkpt>
      <trkpt lat="41.970780" lon="3.002080">
        <ele>71.0</ele>
        <time>2019-01-14T02:02:01Z</time>
      </trkpt>
      <trkpt lat="41.970690" lon="3.002160">
        <ele>72.0</ele>
        <time>2019-01-14T02:02:03Z</time>
      </trkpt>
      <trkpt lat="41.970310" lon="3.002700">
        <ele>74.0</ele>
        <time>2019-01-14T02:02:12Z</time>
      </trkpt>
      <trkpt lat="41.970030" lon="3.002870">
        <ele>73.0</ele>
        <time>2019-01-14T02:02:16Z</time>
      </trkpt>
      <trkpt lat="41.969100" lon="3.002920">
        <ele>71.0</ele>
        <time>2019-01-14T02:02:31Z</time>
      </trkpt>
      <trkpt lat="41.968870" lon="3.002770">
        <ele>71.0</ele>
        <time>2019-01-14T02:02:35Z</time>
      </trkpt>
      <trkpt lat="41.968250" lon="3.002360">
        <ele>73.0</ele>
        <time>2019-01-14T02:02:46Z</time>
      </trkpt>
      <trkpt lat="41.967520" lon="3.002250">
        <ele>76.0</ele>
        <time>2019-01-14T02:02:58Z</time>
      </trkpt>
      <trkpt lat="41.967020" lon="3.002550">
        <ele>77.0</ele>
        <time>2019-01-14T02:03:07Z</time>
      </trkpt>
      <trkpt lat="41.966040" lon="3.003370">
        <ele>79.0</ele>
        <time>2019-01-14T02:03:25Z</time>
      </trkpt>
      <trkpt lat="41.965500" lon="3.004010">
        <ele>82.0</ele>
        <time>2019-01-14T02:03:37Z</time>
      </trkpt>
      <trkpt lat="41.965330" lon="3.004250">
        <ele>83.0</ele>
        <time>2019-01-14T02:03:41Z</time>
      </trkpt>
      <trkpt lat="41.964940" lon="3.004420">
        <ele>86.0</ele>
        <time>2019-01-14T02:03:48Z</time>
      </trkpt>
      <trkpt lat="41.964280" lon="3.004500">
        <ele>90.0</ele>
        <time>2019-01-14T02:03:58Z</time>
      </trkpt>
      <trkpt lat="41.963500" lon="3.005040">
        <ele>95.0</ele>
        <time>2019-01-14T02:04:12Z</time>
      </trkpt>
      <trkpt lat="41.962990" lon="3.005580">
        <ele>99.0</ele>
        <time>2019-01-14T02:04:23Z</time>
      </trkpt>
      <trkpt lat="41.962710" lon="3.006010">
        <ele>98.0</ele>
        <time>2019-01-14T02:04:29Z</time>
      </trkpt>
      <trkpt lat="41.962370" lon="3.006690">
        <ele>95.0</ele>
        <time>2019-01-14T02:04:39Z</time>
      </trkpt>
      <trkpt lat="41.961850" lon="3.007660">
        <ele>91.0</ele>
        <time>2019-01-14T02:04:53Z</time>
      </trkpt>
      <trkpt lat="41.961790" lon="3.007720">
        <ele>91.0</ele>
        <time>2019-01-14T02:04:55Z</time>
      </trkpt>
      <trkpt lat="41.961040" lon="3.008260">
        <ele>88.0</ele>
        <time>2019-01-14T02:05:08Z</time>
      </trkpt>
      <trkpt lat="41.959790" lon="3.009180">
        <ele>86.0</ele>
        <time>2019-01-14T02:05:31Z</time>
      </trkpt>
      <trkpt lat="41.958890" lon="3.009780">
        <ele>83.0</ele>
        <time>2019-01-14T02:05:47Z</time>
      </trkpt>
      <trkpt lat="41.958050" lon="3.010360">
        <ele>82.0</ele>
        <time>2019-01-14T02:06:02Z</time>
      </trkpt>
      <trkpt lat="41.957990" lon="3.010430">
        <ele>82.0</ele>
        <time>2019-01-14T02:06:03Z</time>
      </trkpt>
      <trkpt lat="41.957840" lon="3.010790">
        <ele>81.0</ele>
        <time>2019-01-14T02:06:08Z</time>
      </trkpt>
      <trkpt lat="41.957470" lon="3.011110">
        <ele>78.0</ele>
        <time>2019-01-14T02:06:15Z</time>
      </trkpt>
      <trkpt lat="41.956550" lon="3.011580">
        <ele>76.0</ele>
        <time>2019-01-14T02:06:31Z</time>
      </trkpt>
      <trkpt lat="41.956010" lon="3.012030">
        <ele>73.0</ele>
        <time>2019-01-14T02:06:41Z</time>
      </trkpt>
      <trkpt lat="41.955840" lon="3.012120">
        <ele>72.0</ele>
        <time>2019-01-14T02:06:44Z</time>
      </trkpt>
      <trkpt lat="41.955500" lon="3.012080">
        <ele>71.0</ele>
        <time>2019-01-14T02:06:50Z</time>
      </trkpt>
      <trkpt lat="41.955290" lon="3.011780">
        <ele>70.0</ele>
        <time>2019-01-14T02:06:55Z</time>
      </trkpt>
      <trkpt lat="41.955180" lon="3.011410">
        <ele>70.0</ele>
        <time>2019-01-14T02:06:59Z</time>
      </trkpt>
      <trkpt lat="41.955180" lon="3.011220">
        <ele>68.0</ele>
        <time>2019-01-14T02:07:02Z</time>
      </trkpt>
      <trkpt lat="41.954980" lon="3.010900">
        <ele>66.0</ele>
        <time>2019-01-14T02:07:07Z</time>
      </trkpt>
      <trkpt lat="41.954790" lon="3.010920">
        <ele>64.0</ele>
        <time>2019-01-14T02:07:10Z</time>
      </trkpt>
      <trkpt lat="41.954750" lon="3.010960">
        <ele>63.0</ele>
        <time>2019-01-14T02:07:10Z</time>
      </trkpt>
      <trkpt lat="41.954620" lon="3.011110">
        <ele>63.0</ele>
        <time>2019-01-14T02:07:13Z</time>
      </trkpt>
      <trkpt lat="41.954510" lon="3.011670">
        <ele>62.0</ele>
        <time>2019-01-14T02:07:20Z</time>
      </trkpt>
      <trkpt lat="41.954560" lon="3.011840">
        <ele>62.0</ele>
        <time>2019-01-14T02:07:22Z</time>
      </trkpt>
      <trkpt lat="41.955160" lon="3.013490">
        <ele>62.0</ele>
        <time>2019-01-14T02:07:44Z</time>
      </trkpt>
      <trkpt lat="41.955780" lon="3.015230">
        <ele>58.0</ele>
        <time>2019-01-14T02:08:07Z</time>
      </trkpt>
      <trkpt lat="41.956470" lon="3.017140">
        <ele>54.0</ele>
        <time>2019-01-14T02:08:32Z</time>
      </trkpt>
      <trkpt lat="41.957260" lon="3.019350">
        <ele>48.0</ele>
        <time>2019-01-14T02:09:02Z</time>
      </trkpt>
      <trkpt lat="41.957990" lon="3.021390">
        <ele>46.0</ele>
        <time>2019-01-14T02:09:29Z</time>
      </trkpt>
      <trkpt lat="41.958890" lon="3.023920">
        <ele>43.0</ele>
        <time>2019-01-14T02:10:02Z</time>
      </trkpt>
      <trkpt lat="41.959790" lon="3.026450">
        <ele>40.0</ele>
        <time>2019-01-14T02:10:35Z</time>
      </trkpt>
      <trkpt lat="41.960690" lon="3.028940">
        <ele>36.0</ele>
        <time>2019-01-14T02:11:08Z</time>
      </trkpt>
      <trkpt lat="41.961490" lon="3.031220">
        <ele>34.0</ele>
        <time>2019-01-14T02:11:38Z</time>
      </trkpt>
      <trkpt lat="41.961770" lon="3.031730">
        <ele>33.0</ele>
        <time>2019-01-14T02:11:46Z</time>
      </trkpt>
      <trkpt lat="41.961680" lon="3.032050">
        <ele>33.0</ele>
        <time>2019-01-14T02:11:50Z</time>
      </trkpt>
      <trkpt lat="41.961400" lon="3.032050">
        <ele>33.0</ele>
        <time>2019-01-14T02:11:54Z</time>
      </trkpt>
      <trkpt lat="41.960010" lon="3.031750">
        <ele>34.0</ele>
        <time>2019-01-14T02:12:17Z</time>
      </trkpt>
      <trkpt lat="41.958720" lon="3.031500">
        <ele>34.0</ele>
        <time>2019-01-14T02:12:38Z</time>
      </trkpt>
      <trkpt lat="41.957860" lon="3.031580">
        <ele>33.0</ele>
        <time>2019-01-14T02:12:52Z</time>
      </trkpt>
      <trkpt lat="41.957190" lon="3.032080">
        <ele>34.0</ele>
        <time>2019-01-14T02:13:04Z</time>
      </trkpt>
      <trkpt lat="41.956770" lon="3.032810">
        <ele>35.0</ele>
        <time>2019-01-14T02:13:15Z</time>
      </trkpt>
      <trkpt lat="41.956140" lon="3.034290">
        <ele>38.0</ele>
        <time>2019-01-14T02:13:35Z</time>
      </trkpt>
      <trkpt lat="41.956010" lon="3.034650">
        <ele>37.0</ele>
        <time>2019-01-14T02:13:40Z</time>
      </trkpt>
      <trkpt lat="41.955970" lon="3.035140">
        <ele>38.0</ele>
        <time>2019-01-14T02:13:46Z</time>
      </trkpt>
      <trkpt lat="41.956230" lon="3.036480">
        <ele>40.0</ele>
        <time>2019-01-14T02:14:02Z</time>
      </trkpt>
      <trkpt lat="41.956250" lon="3.036900">
        <ele>41.0</ele>
        <time>2019-01-14T02:14:07Z</time>
      </trkpt>
      <trkpt lat="41.956340" lon="3.036970">
        <ele>41.0</ele>
        <time>2019-01-14T02:14:09Z</time>
      </trkpt>
      <trkpt lat="41.956720" lon="3.036880">
        <ele>41.0</ele>
        <time>2019-01-14T02:14:15Z</time>
      </trkpt>
      <trkpt lat="41.957410" lon="3.036710">
        <ele>40.0</ele>
        <time>2019-01-14T02:14:26Z</time>
      </trkpt>
      <trkpt lat="41.957860" lon="3.036730">
        <ele>39.0</ele>
        <time>2019-01-14T02:14:34Z</time>
      </trkpt>
      <trkpt lat="41.958100" lon="3.036800">
        <ele>39.0</ele>
        <time>2019-01-14T02:14:38Z</time>
      </trkpt>
      <trkpt lat="41.958350" lon="3.036800">
        <ele>39.0</ele>
        <time>2019-01-14T02:14:42Z</time>
      </trkpt>
      <trkpt lat="41.958370" lon="3.036750">
        <ele>39.0</ele>
        <time>2019-01-14T02:14:42Z</time>
      </trkpt>
      <trkpt lat="41.958370" lon="3.036730">
        <ele>39.0</ele>
        <time>2019-01-14T02:14:43Z</time>
      </trkpt>
      <trkpt lat="41.958370" lon="3.036730">
        <ele>39.0</ele>
        <time>2019-01-14T02:14:43Z</time>
      </trkpt>
      <trkpt lat="41.958350" lon="3.036860">
        <ele>39.0</ele>
        <time>2019-01-14T02:14:44Z</time>
      </trkpt>
      <trkpt lat="41.958400" lon="3.036880">
        <ele>39.0</ele>
        <time>2019-01-14T02:14:45Z</time>
      </trkpt>
      <trkpt lat="41.958370" lon="3.036900">
        <ele>39.0</ele>
        <time>2019-01-14T02:14:45Z</time>
      </trkpt>
      <trkpt lat="41.958140" lon="3.036860">
        <ele>39.0</ele>
        <time>2019-01-14T02:14:49Z</time>
      </trkpt>
      <trkpt lat="41.957770" lon="3.036800">
        <ele>39.0</ele>
        <time>2019-01-14T02:14:55Z</time>
      </trkpt>
      <trkpt lat="41.957000" lon="3.036690">
        <ele>41.0</ele>
        <time>2019-01-14T02:15:08Z</time>
      </trkpt>
      <trkpt lat="41.956470" lon="3.036840">
        <ele>41.0</ele>
        <time>2019-01-14T02:15:16Z</time>
      </trkpt>
      <trkpt lat="41.956360" lon="3.036880">
        <ele>41.0</ele>
        <time>2019-01-14T02:15:18Z</time>
      </trkpt>
      <trkpt lat="41.956230" lon="3.036950">
        <ele>41.0</ele>
        <time>2019-01-14T02:15:20Z</time>
      </trkpt>
      <trkpt lat="41.955690" lon="3.037140">
        <ele>42.0</ele>
        <time>2019-01-14T02:15:29Z</time>
      </trkpt>
      <trkpt lat="41.955500" lon="3.037180">
        <ele>42.0</ele>
        <time>2019-01-14T02:15:32Z</time>
      </trkpt>
      <trkpt lat="41.954730" lon="3.036820">
        <ele>43.0</ele>
        <time>2019-01-14T02:15:45Z</time>
      </trkpt>
      <trkpt lat="41.954100" lon="3.036520">
        <ele>43.0</ele>
        <time>2019-01-14T02:15:56Z</time>
      </trkpt>
      <trkpt lat="41.953590" lon="3.035550">
        <ele>43.0</ele>
        <time>2019-01-14T02:16:10Z</time>
      </trkpt>
      <trkpt lat="41.953140" lon="3.034820">
        <ele>44.0</ele>
        <time>2019-01-14T02:16:21Z</time>
      </trkpt>
      <trkpt lat="41.952430" lon="3.033490">
        <ele>44.0</ele>
        <time>2019-01-14T02:16:41Z</time>
      </trkpt>
      <trkpt lat="41.951890" lon="3.032480">
        <ele>42.0</ele>
        <time>2019-01-14T02:16:56Z</time>
      </trkpt>
      <trkpt lat="41.951380" lon="3.031990">
        <ele>40.0</ele>
        <time>2019-01-14T02:17:06Z</time>
      </trkpt>
      <trkpt lat="41.950110" lon="3.031350">
        <ele>40.0</ele>
        <time>2019-01-14T02:17:28Z</time>
      </trkpt>
      <trkpt lat="41.949560" lon="3.031090">
        <ele>41.0</ele>
        <time>2019-01-14T02:17:37Z</time>
      </trkpt>
      <trkpt lat="41.948700" lon="3.030640">
        <ele>44.0</ele>
        <time>2019-01-14T02:17:52Z</time>
      </trkpt>
      <trkpt lat="41.947880" lon="3.030230">
        <ele>46.0</ele>
        <time>2019-01-14T02:18:06Z</time>
      </trkpt>
      <trkpt lat="41.946640" lon="3.029590">
        <ele>45.0</ele>
        <time>2019-01-14T02:18:27Z</time>
      </trkpt>
      <trkpt lat="41.945440" lon="3.028990">
        <ele>45.0</ele>
        <time>2019-01-14T02:18:47Z</time>
      </trkpt>
      <trkpt lat="41.944430" lon="3.028470">
        <ele>45.0</ele>
        <time>2019-01-14T02:19:05Z</time>
      </trkpt>
      <trkpt lat="41.943350" lon="3.027910">
        <ele>47.0</ele>
        <time>2019-01-14T02:19:23Z</time>
      </trkpt>
      <trkpt lat="41.942170" lon="3.027480">
        <ele>48.0</ele>
        <time>2019-01-14T02:19:43Z</time>
      </trkpt>
      <trkpt lat="41.941530" lon="3.027700">
        <ele>48.0</ele>
        <time>2019-01-14T02:19:53Z</time>
      </trkpt>
      <trkpt lat="41.941470" lon="3.027740">
        <ele>48.0</ele>
        <time>2019-01-14T02:19:54Z</time>
      </trkpt>
      <trkpt lat="41.940610" lon="3.028620">
        <ele>48.0</ele>
        <time>2019-01-14T02:20:12Z</time>
      </trkpt>
      <trkpt lat="41.939710" lon="3.029520">
        <ele>49.0</ele>
        <time>2019-01-14T02:20:30Z</time>
      </trkpt>
      <trkpt lat="41.939110" lon="3.029720">
        <ele>50.0</ele>
        <time>2019-01-14T02:20:40Z</time>
      </trkpt>
      <trkpt lat="41.938380" lon="3.029480">
        <ele>50.0</ele>
        <time>2019-01-14T02:20:52Z</time>
      </trkpt>
      <trkpt lat="41.937900" lon="3.029310">
        <ele>51.0</ele>
        <time>2019-01-14T02:21:00Z</time>
      </trkpt>
      <trkpt lat="41.937630" lon="3.029350">
        <ele>51.0</ele>
        <time>2019-01-14T02:21:04Z</time>
      </trkpt>
      <trkpt lat="41.936550" lon="3.029840">
        <ele>52.0</ele>
        <time>2019-01-14T02:21:22Z</time>
      </trkpt>
      <trkpt lat="41.935630" lon="3.030270">
        <ele>53.0</ele>
        <time>2019-01-14T02:21:38Z</time>
      </trkpt>
      <trkpt lat="41.935270" lon="3.030320">
        <ele>54.0</ele>
        <time>2019-01-14T02:21:44Z</time>
      </trkpt>
      <trkpt lat="41.934600" lon="3.030040">
        <ele>55.0</ele>
        <time>2019-01-14T02:21:55Z</time>
      </trkpt>
      <trkpt lat="41.933440" lon="3.029460">
        <ele>56.0</ele>
        <time>2019-01-14T02:22:15Z</time>
      </trkpt>
      <trkpt lat="41.932070" lon="3.028770">
        <ele>58.0</ele>
        <time>2019-01-14T02:22:38Z</time>
      </trkpt>
      <trkpt lat="41.931270" lon="3.028170">
        <ele>60.0</ele>
        <time>2019-01-14T02:22:53Z</time>
      </trkpt>
      <trkpt lat="41.930220" lon="3.027290">
        <ele>62.0</ele>
        <time>2019-01-14T02:23:13Z</time>
      </trkpt>
      <trkpt lat="41.929060" lon="3.026330">
        <ele>63.0</ele>
        <time>2019-01-14T02:23:34Z</time>
      </trkpt>
      <trkpt lat="41.927930" lon="3.025380">
        <ele>66.0</ele>
        <time>2019-01-14T02:23:56Z</time>
      </trkpt>
      <trkpt lat="41.926920" lon="3.024540">
        <ele>67.0</ele>
        <time>2019-01-14T02:24:15Z</time>
      </trkpt>
      <trkpt lat="41.925820" lon="3.023640">
        <ele>69.0</ele>
        <time>2019-01-14T02:24:35Z</time>
      </trkpt>
      <trkpt lat="41.924970" lon="3.022940">
        <ele>70.0</ele>
        <time>2019-01-14T02:24:51Z</time>
      </trkpt>
      <trkpt lat="41.923980" lon="3.022100">
        <ele>70.0</ele>
        <time>2019-01-14T02:25:10Z</time>
      </trkpt>
      <trkpt lat="41.923940" lon="3.021650">
        <ele>70.0</ele>
        <time>2019-01-14T02:25:15Z</time>
      </trkpt>
      <trkpt lat="41.924000" lon="3.021410">
        <ele>71.0</ele>
        <time>2019-01-14T02:25:18Z</time>
      </trkpt>
      <trkpt lat="41.923810" lon="3.021130">
        <ele>75.0</ele>
        <time>2019-01-14T02:25:23Z</time>
      </trkpt>
      <trkpt lat="41.923760" lon="3.021110">
        <ele>75.0</ele>
        <time>2019-01-14T02:25:24Z</time>
      </trkpt>
      <trkpt lat="41.922610" lon="3.020810">
        <ele>76.0</ele>
        <time>2019-01-14T02:25:43Z</time>
      </trkpt>
      <trkpt lat="41.922200" lon="3.021000">
        <ele>77.0</ele>
        <time>2019-01-14T02:25:50Z</time>
      </trkpt>
      <trkpt lat="41.921490" lon="3.021840">
        <ele>77.0</ele>
        <time>2019-01-14T02:26:05Z</time>
      </trkpt>
      <trkpt lat="41.920610" lon="3.022870">
        <ele>78.0</ele>
        <time>2019-01-14T02:26:23Z</time>
      </trkpt>
      <trkpt lat="41.919750" lon="3.023880">
        <ele>79.0</ele>
        <time>2019-01-14T02:26:42Z</time>
      </trkpt>
      <trkpt lat="41.919090" lon="3.024610">
        <ele>79.0</ele>
        <time>2019-01-14T02:26:55Z</time>
      </trkpt>
      <trkpt lat="41.918910" lon="3.024720">
        <ele>80.0</ele>
        <time>2019-01-14T02:26:59Z</time>
      </trkpt>
      <trkpt lat="41.918100" lon="3.024760">
        <ele>80.0</ele>
        <time>2019-01-14T02:27:11Z</time>
      </trkpt>
      <trkpt lat="41.917000" lon="3.024760">
        <ele>82.0</ele>
        <time>2019-01-14T02:27:29Z</time>
      </trkpt>
      <trkpt lat="41.916640" lon="3.024760">
        <ele>83.0</ele>
        <time>2019-01-14T02:27:35Z</time>
      </trkpt>
      <trkpt lat="41.916400" lon="3.024890">
        <ele>84.0</ele>
        <time>2019-01-14T02:27:39Z</time>
      </trkpt>
      <trkpt lat="41.915910" lon="3.025810">
        <ele>85.0</ele>
        <time>2019-01-14T02:27:52Z</time>
      </trkpt>
      <trkpt lat="41.915850" lon="3.025960">
        <ele>85.0</ele>
        <time>2019-01-14T02:27:55Z</time>
      </trkpt>
      <trkpt lat="41.915270" lon="3.026750">
        <ele>87.0</ele>
        <time>2019-01-14T02:28:08Z</time>
      </trkpt>
      <trkpt lat="41.914730" lon="3.027290">
        <ele>89.0</ele>
        <time>2019-01-14T02:28:19Z</time>
      </trkpt>
      <trkpt lat="41.914300" lon="3.027980">
        <ele>90.0</ele>
        <time>2019-01-14T02:28:29Z</time>
      </trkpt>
      <trkpt lat="41.913830" lon="3.029180">
        <ele>92.0</ele>
        <time>2019-01-14T02:28:45Z</time>
      </trkpt>
      <trkpt lat="41.913700" lon="3.029350">
        <ele>92.0</ele>
        <time>2019-01-14T02:28:48Z</time>
      </trkpt>
      <trkpt lat="41.912970" lon="3.029970">
        <ele>93.0</ele>
        <time>2019-01-14T02:29:02Z</time>
      </trkpt>
      <trkpt lat="41.912280" lon="3.030550">
        <ele>94.0</ele>
        <time>2019-01-14T02:29:15Z</time>
      </trkpt>
      <trkpt lat="41.912110" lon="3.030620">
        <ele>94.0</ele>
        <time>2019-01-14T02:29:18Z</time>
      </trkpt>
      <trkpt lat="41.911960" lon="3.030620">
        <ele>95.0</ele>
        <time>2019-01-14T02:29:20Z</time>
      </trkpt>
      <trkpt lat="41.911190" lon="3.030300">
        <ele>96.0</ele>
        <time>2019-01-14T02:29:33Z</time>
      </trkpt>
      <trkpt lat="41.910930" lon="3.030190">
        <ele>97.0</ele>
        <time>2019-01-14T02:29:38Z</time>
      </trkpt>
      <trkpt lat="41.910610" lon="3.030340">
        <ele>97.0</ele>
        <time>2019-01-14T02:29:43Z</time>
      </trkpt>
      <trkpt lat="41.909820" lon="3.031200">
        <ele>98.0</ele>
        <time>2019-01-14T02:29:59Z</time>
      </trkpt>
      <trkpt lat="41.909170" lon="3.031970">
        <ele>99.0</ele>
        <time>2019-01-14T02:30:13Z</time>
      </trkpt>
      <trkpt lat="41.908960" lon="3.032760">
        <ele>100.0</ele>
        <time>2019-01-14T02:30:23Z</time>
      </trkpt>
      <trkpt lat="41.908640" lon="3.034220">
        <ele>104.0</ele>
        <time>2019-01-14T02:30:41Z</time>
      </trkpt>
      <trkpt lat="41.908360" lon="3.035570">
        <ele>108.0</ele>
        <time>2019-01-14T02:30:58Z</time>
      </trkpt>
      <trkpt lat="41.908290" lon="3.035790">
        <ele>108.0</ele>
        <time>2019-01-14T02:31:01Z</time>
      </trkpt>
      <trkpt lat="41.907930" lon="3.036150">
        <ele>109.0</ele>
        <time>2019-01-14T02:31:08Z</time>
      </trkpt>
      <trkpt lat="41.907070" lon="3.036560">
        <ele>112.0</ele>
        <time>2019-01-14T02:31:23Z</time>
      </trkpt>
      <trkpt lat="41.906960" lon="3.036600">
        <ele>113.0</ele>
        <time>2019-01-14T02:31:25Z</time>
      </trkpt>
      <trkpt lat="41.906620" lon="3.037350">
        <ele>116.0</ele>
        <time>2019-01-14T02:31:35Z</time>
      </trkpt>
      <trkpt lat="41.906300" lon="3.038130">
        <ele>121.0</ele>
        <time>2019-01-14T02:31:46Z</time>
      </trkpt>
      <trkpt lat="41.905980" lon="3.038860">
        <ele>124.0</ele>
        <time>2019-01-14T02:31:56Z</time>
      </trkpt>
      <trkpt lat="41.905950" lon="3.038900">
        <ele>124.0</ele>
        <time>2019-01-14T02:31:56Z</time>
      </trkpt>
      <trkpt lat="41.905400" lon="3.039610">
        <ele>126.0</ele>
        <time>2019-01-14T02:32:09Z</time>
      </trkpt>
      <trkpt lat="41.904990" lon="3.040190">
        <ele>129.0</ele>
        <time>2019-01-14T02:32:18Z</time>
      </trkpt>
      <trkpt lat="41.904540" lon="3.040980">
        <ele>133.0</ele>
        <time>2019-01-14T02:32:30Z</time>
      </trkpt>
      <trkpt lat="41.904490" lon="3.041090">
        <ele>133.0</ele>
        <time>2019-01-14T02:32:32Z</time>
      </trkpt>
      <trkpt lat="41.904470" lon="3.041280">
        <ele>134.0</ele>
        <time>2019-01-14T02:32:34Z</time>
      </trkpt>
      <trkpt lat="41.904150" lon="3.041950">
        <ele>136.0</ele>
        <time>2019-01-14T02:32:43Z</time>
      </trkpt>
      <trkpt lat="41.903980" lon="3.042030">
        <ele>137.0</ele>
        <time>2019-01-14T02:32:46Z</time>
      </trkpt>
      <trkpt lat="41.903550" lon="3.041800">
        <ele>141.0</ele>
        <time>2019-01-14T02:32:54Z</time>
      </trkpt>
      <trkpt lat="41.903360" lon="3.042030">
        <ele>142.0</ele>
        <time>2019-01-14T02:32:58Z</time>
      </trkpt>
      <trkpt lat="41.903420" lon="3.042180">
        <ele>143.0</ele>
        <time>2019-01-14T02:33:00Z</time>
      </trkpt>
      <trkpt lat="41.903610" lon="3.042650">
        <ele>146.0</ele>
        <time>2019-01-14T02:33:06Z</time>
      </trkpt>
      <trkpt lat="41.903340" lon="3.043190">
        <ele>149.0</ele>
        <time>2019-01-14T02:33:14Z</time>
      </trkpt>
      <trkpt lat="41.903120" lon="3.043680">
        <ele>152.0</ele>
        <time>2019-01-14T02:33:21Z</time>
      </trkpt>
      <trkpt lat="41.902780" lon="3.044030">
        <ele>156.0</ele>
        <time>2019-01-14T02:33:28Z</time>
      </trkpt>
      <trkpt lat="41.902370" lon="3.044070">
        <ele>161.0</ele>
        <time>2019-01-14T02:33:34Z</time>
      </trkpt>
      <trkpt lat="41.902260" lon="3.044370">
        <ele>163.0</ele>
        <time>2019-01-14T02:33:38Z</time>
      </trkpt>
      <trkpt lat="41.902240" lon="3.045120">
        <ele>168.0</ele>
        <time>2019-01-14T02:33:47Z</time>
      </trkpt>
      <trkpt lat="41.902160" lon="3.045720">
        <ele>172.0</ele>
        <time>2019-01-14T02:33:54Z</time>
      </trkpt>
      <trkpt lat="41.901980" lon="3.045980">
        <ele>174.0</ele>
        <time>2019-01-14T02:33:59Z</time>
      </trkpt>
      <trkpt lat="41.901810" lon="3.045980">
        <ele>174.0</ele>
        <time>2019-01-14T02:34:01Z</time>
      </trkpt>
      <trkpt lat="41.901430" lon="3.046070">
        <ele>175.0</ele>
        <time>2019-01-14T02:34:07Z</time>
      </trkpt>
      <trkpt lat="41.901210" lon="3.046410">
        <ele>176.0</ele>
        <time>2019-01-14T02:34:13Z</time>
      </trkpt>
      <trkpt lat="41.900980" lon="3.046580">
        <ele>177.0</ele>
        <time>2019-01-14T02:34:17Z</time>
      </trkpt>
      <trkpt lat="41.901000" lon="3.046880">
        <ele>178.0</ele>
        <time>2019-01-14T02:34:21Z</time>
      </trkpt>
      <trkpt lat="41.901250" lon="3.047250">
        <ele>181.0</ele>
        <time>2019-01-14T02:34:27Z</time>
      </trkpt>
      <trkpt lat="41.901380" lon="3.047550">
        <ele>183.0</ele>
        <time>2019-01-14T02:34:31Z</time>
      </trkpt>
      <trkpt lat="41.901300" lon="3.048080">
        <ele>186.0</ele>
        <time>2019-01-14T02:34:37Z</time>
      </trkpt>
      <trkpt lat="41.901060" lon="3.049090">
        <ele>192.0</ele>
        <time>2019-01-14T02:34:50Z</time>
      </trkpt>
      <trkpt lat="41.900930" lon="3.049910">
        <ele>195.0</ele>
        <time>2019-01-14T02:35:00Z</time>
      </trkpt>
      <trkpt lat="41.900680" lon="3.050400">
        <ele>196.0</ele>
        <time>2019-01-14T02:35:07Z</time>
      </trkpt>
      <trkpt lat="41.900290" lon="3.050490">
        <ele>197.0</ele>
        <time>2019-01-14T02:35:13Z</time>
      </trkpt>
      <trkpt lat="41.900120" lon="3.050620">
        <ele>198.0</ele>
        <time>2019-01-14T02:35:16Z</time>
      </trkpt>
      <trkpt lat="41.900160" lon="3.050890">
        <ele>200.0</ele>
        <time>2019-01-14T02:35:20Z</time>
      </trkpt>
      <trkpt lat="41.900250" lon="3.051130">
        <ele>202.0</ele>
        <time>2019-01-14T02:35:23Z</time>
      </trkpt>
      <trkpt lat="41.900250" lon="3.051370">
        <ele>203.0</ele>
        <time>2019-01-14T02:35:26Z</time>
      </trkpt>
      <trkpt lat="41.899900" lon="3.051950">
        <ele>207.0</ele>
        <time>2019-01-14T02:35:35Z</time>
      </trkpt>
      <trkpt lat="41.899470" lon="3.052160">
        <ele>209.0</ele>
        <time>2019-01-14T02:35:42Z</time>
      </trkpt>
      <trkpt lat="41.899110" lon="3.052650">
        <ele>213.0</ele>
        <time>2019-01-14T02:35:50Z</time>
      </trkpt>
      <trkpt lat="41.899090" lon="3.052760">
        <ele>213.0</ele>
        <time>2019-01-14T02:35:51Z</time>
      </trkpt>
      <trkpt lat="41.899090" lon="3.052930">
        <ele>214.0</ele>
        <time>2019-01-14T02:35:53Z</time>
      </trkpt>
      <trkpt lat="41.899040" lon="3.053170">
        <ele>215.0</ele>
        <time>2019-01-14T02:35:56Z</time>
      </trkpt>
      <trkpt lat="41.898680" lon="3.054070">
        <ele>218.0</ele>
        <time>2019-01-14T02:36:09Z</time>
      </trkpt>
      <trkpt lat="41.898060" lon="3.054710">
        <ele>226.0</ele>
        <time>2019-01-14T02:36:21Z</time>
      </trkpt>
      <trkpt lat="41.897950" lon="3.054840">
        <ele>226.0</ele>
        <time>2019-01-14T02:36:23Z</time>
      </trkpt>
      <trkpt lat="41.897840" lon="3.055160">
        <ele>219.0</ele>
        <time>2019-01-14T02:36:28Z</time>
      </trkpt>
      <trkpt lat="41.897820" lon="3.055290">
        <ele>218.0</ele>
        <time>2019-01-14T02:36:29Z</time>
      </trkpt>
      <trkpt lat="41.897840" lon="3.055570">
        <ele>218.0</ele>
        <time>2019-01-14T02:36:33Z</time>
      </trkpt>
      <trkpt lat="41.897930" lon="3.055830">
        <ele>218.0</ele>
        <time>2019-01-14T02:36:36Z</time>
      </trkpt>
      <trkpt lat="41.897890" lon="3.056150">
        <ele>218.0</ele>
        <time>2019-01-14T02:36:40Z</time>
      </trkpt>
      <trkpt lat="41.897840" lon="3.056300">
        <ele>218.0</ele>
        <time>2019-01-14T02:36:42Z</time>
      </trkpt>
      <trkpt lat="41.897740" lon="3.057220">
        <ele>221.0</ele>
        <time>2019-01-14T02:36:53Z</time>
      </trkpt>
      <trkpt lat="41.897630" lon="3.058430">
        <ele>222.0</ele>
        <time>2019-01-14T02:37:07Z</time>
      </trkpt>
      <trkpt lat="41.897630" lon="3.058510">
        <ele>221.0</ele>
        <time>2019-01-14T02:37:08Z</time>
      </trkpt>
      <trkpt lat="41.897560" lon="3.058640">
        <ele>221.0</ele>
        <time>2019-01-14T02:37:10Z</time>
        <cmt>COLL DE LA GANGA</cmt>
        <sym>C:\Users\Runseru\Desktop\gps\CompeGPS\CompeGPS Land 711\App\CompeGPS\symbols\DEFAULT.ZIP\WAYPOINT.bmp</sym>
      </trkpt>
      <trkpt lat="41.897310" lon="3.058470">
        <ele>219.0</ele>
        <time>2019-01-14T02:37:15Z</time>
      </trkpt>
      <trkpt lat="41.897280" lon="3.058400">
        <ele>219.0</ele>
        <time>2019-01-14T02:37:16Z</time>
      </trkpt>
      <trkpt lat="41.897090" lon="3.057370">
        <ele>211.0</ele>
        <time>2019-01-14T02:37:28Z</time>
      </trkpt>
      <trkpt lat="41.897090" lon="3.057270">
        <ele>210.0</ele>
        <time>2019-01-14T02:37:30Z</time>
      </trkpt>
      <trkpt lat="41.897130" lon="3.056840">
        <ele>206.0</ele>
        <time>2019-01-14T02:37:35Z</time>
      </trkpt>
      <trkpt lat="41.897030" lon="3.056370">
        <ele>200.0</ele>
        <time>2019-01-14T02:37:41Z</time>
      </trkpt>
      <trkpt lat="41.896790" lon="3.056370">
        <ele>199.0</ele>
        <time>2019-01-14T02:37:44Z</time>
      </trkpt>
      <trkpt lat="41.895760" lon="3.056990">
        <ele>198.0</ele>
        <time>2019-01-14T02:38:03Z</time>
      </trkpt>
      <trkpt lat="41.895680" lon="3.057050">
        <ele>199.0</ele>
        <time>2019-01-14T02:38:04Z</time>
      </trkpt>
      <trkpt lat="41.895550" lon="3.057220">
        <ele>200.0</ele>
        <time>2019-01-14T02:38:07Z</time>
      </trkpt>
      <trkpt lat="41.895310" lon="3.057460">
        <ele>196.0</ele>
        <time>2019-01-14T02:38:12Z</time>
      </trkpt>
      <trkpt lat="41.895230" lon="3.057440">
        <ele>194.0</ele>
        <time>2019-01-14T02:38:13Z</time>
      </trkpt>
      <trkpt lat="41.894500" lon="3.057780">
        <ele>187.0</ele>
        <time>2019-01-14T02:38:25Z</time>
      </trkpt>
      <trkpt lat="41.894300" lon="3.058360">
        <ele>196.0</ele>
        <time>2019-01-14T02:38:33Z</time>
      </trkpt>
      <trkpt lat="41.894320" lon="3.058880">
        <ele>201.0</ele>
        <time>2019-01-14T02:38:39Z</time>
      </trkpt>
      <trkpt lat="41.894150" lon="3.059310">
        <ele>194.0</ele>
        <time>2019-01-14T02:38:45Z</time>
      </trkpt>
      <trkpt lat="41.893940" lon="3.059180">
        <ele>187.0</ele>
        <time>2019-01-14T02:38:49Z</time>
      </trkpt>
      <trkpt lat="41.893740" lon="3.058900">
        <ele>181.0</ele>
        <time>2019-01-14T02:38:53Z</time>
      </trkpt>
      <trkpt lat="41.893270" lon="3.058790">
        <ele>177.0</ele>
        <time>2019-01-14T02:39:01Z</time>
      </trkpt>
      <trkpt lat="41.893190" lon="3.058860">
        <ele>178.0</ele>
        <time>2019-01-14T02:39:02Z</time>
      </trkpt>
      <trkpt lat="41.892710" lon="3.059010">
        <ele>174.0</ele>
        <time>2019-01-14T02:39:10Z</time>
      </trkpt>
      <trkpt lat="41.892370" lon="3.059370">
        <ele>177.0</ele>
        <time>2019-01-14T02:39:17Z</time>
      </trkpt>
      <trkpt lat="41.892410" lon="3.059630">
        <ele>182.0</ele>
        <time>2019-01-14T02:39:20Z</time>
      </trkpt>
      <trkpt lat="41.892350" lon="3.060100">
        <ele>184.0</ele>
        <time>2019-01-14T02:39:26Z</time>
      </trkpt>
      <trkpt lat="41.892050" lon="3.059910">
        <ele>177.0</ele>
        <time>2019-01-14T02:39:31Z</time>
      </trkpt>
      <trkpt lat="41.891790" lon="3.059540">
        <ele>169.0</ele>
        <time>2019-01-14T02:39:38Z</time>
      </trkpt>
      <trkpt lat="41.891340" lon="3.059350">
        <ele>161.0</ele>
        <time>2019-01-14T02:39:45Z</time>
      </trkpt>
      <trkpt lat="41.890910" lon="3.059590">
        <ele>165.0</ele>
        <time>2019-01-14T02:39:53Z</time>
      </trkpt>
      <trkpt lat="41.890930" lon="3.060100">
        <ele>175.0</ele>
        <time>2019-01-14T02:39:59Z</time>
      </trkpt>
      <trkpt lat="41.890950" lon="3.060210">
        <ele>177.0</ele>
        <time>2019-01-14T02:40:00Z</time>
      </trkpt>
      <trkpt lat="41.890720" lon="3.060380">
        <ele>174.0</ele>
        <time>2019-01-14T02:40:04Z</time>
      </trkpt>
      <trkpt lat="41.890330" lon="3.059840">
        <ele>157.0</ele>
        <time>2019-01-14T02:40:13Z</time>
      </trkpt>
      <trkpt lat="41.889990" lon="3.059930">
        <ele>156.0</ele>
        <time>2019-01-14T02:40:19Z</time>
      </trkpt>
      <trkpt lat="41.889670" lon="3.060380">
        <ele>158.0</ele>
        <time>2019-01-14T02:40:26Z</time>
      </trkpt>
      <trkpt lat="41.889300" lon="3.060510">
        <ele>155.0</ele>
        <time>2019-01-14T02:40:32Z</time>
      </trkpt>
      <trkpt lat="41.889020" lon="3.060680">
        <ele>152.0</ele>
        <time>2019-01-14T02:40:37Z</time>
      </trkpt>
      <trkpt lat="41.888740" lon="3.061000">
        <ele>152.0</ele>
        <time>2019-01-14T02:40:43Z</time>
      </trkpt>
      <trkpt lat="41.888790" lon="3.061240">
        <ele>154.0</ele>
        <time>2019-01-14T02:40:46Z</time>
      </trkpt>
      <trkpt lat="41.888830" lon="3.061750">
        <ele>157.0</ele>
        <time>2019-01-14T02:40:52Z</time>
      </trkpt>
      <trkpt lat="41.888490" lon="3.061920">
        <ele>152.0</ele>
        <time>2019-01-14T02:40:58Z</time>
      </trkpt>
      <trkpt lat="41.887890" lon="3.061800">
        <ele>142.0</ele>
        <time>2019-01-14T02:41:08Z</time>
      </trkpt>
      <trkpt lat="41.887480" lon="3.062050">
        <ele>140.0</ele>
        <time>2019-01-14T02:41:15Z</time>
      </trkpt>
      <trkpt lat="41.887480" lon="3.062440">
        <ele>141.0</ele>
        <time>2019-01-14T02:41:19Z</time>
      </trkpt>
      <trkpt lat="41.887440" lon="3.062980">
        <ele>144.0</ele>
        <time>2019-01-14T02:41:26Z</time>
      </trkpt>
      <trkpt lat="41.887540" lon="3.063470">
        <ele>145.0</ele>
        <time>2019-01-14T02:41:32Z</time>
      </trkpt>
      <trkpt lat="41.887500" lon="3.063600">
        <ele>146.0</ele>
        <time>2019-01-14T02:41:34Z</time>
      </trkpt>
      <trkpt lat="41.887330" lon="3.063940">
        <ele>144.0</ele>
        <time>2019-01-14T02:41:39Z</time>
      </trkpt>
      <trkpt lat="41.887200" lon="3.064160">
        <ele>142.0</ele>
        <time>2019-01-14T02:41:42Z</time>
      </trkpt>
      <trkpt lat="41.886900" lon="3.064090">
        <ele>138.0</ele>
        <time>2019-01-14T02:41:47Z</time>
      </trkpt>
      <trkpt lat="41.886510" lon="3.063490">
        <ele>128.0</ele>
        <time>2019-01-14T02:41:56Z</time>
      </trkpt>
      <trkpt lat="41.886060" lon="3.063320">
        <ele>122.0</ele>
        <time>2019-01-14T02:42:04Z</time>
      </trkpt>
      <trkpt lat="41.885890" lon="3.063450">
        <ele>121.0</ele>
        <time>2019-01-14T02:42:07Z</time>
      </trkpt>
      <trkpt lat="41.885500" lon="3.063880">
        <ele>121.0</ele>
        <time>2019-01-14T02:42:15Z</time>
      </trkpt>
      <trkpt lat="41.885400" lon="3.064480">
        <ele>123.0</ele>
        <time>2019-01-14T02:42:22Z</time>
      </trkpt>
      <trkpt lat="41.885200" lon="3.064780">
        <ele>122.0</ele>
        <time>2019-01-14T02:42:27Z</time>
      </trkpt>
      <trkpt lat="41.884950" lon="3.064670">
        <ele>118.0</ele>
        <time>2019-01-14T02:42:31Z</time>
      </trkpt>
      <trkpt lat="41.884410" lon="3.064540">
        <ele>114.0</ele>
        <time>2019-01-14T02:42:40Z</time>
      </trkpt>
      <trkpt lat="41.884110" lon="3.064910">
        <ele>115.0</ele>
        <time>2019-01-14T02:42:47Z</time>
      </trkpt>
      <trkpt lat="41.883870" lon="3.065380">
        <ele>115.0</ele>
        <time>2019-01-14T02:42:53Z</time>
      </trkpt>
      <trkpt lat="41.883510" lon="3.065610">
        <ele>112.0</ele>
        <time>2019-01-14T02:43:00Z</time>
      </trkpt>
      <trkpt lat="41.883080" lon="3.065700">
        <ele>109.0</ele>
        <time>2019-01-14T02:43:07Z</time>
      </trkpt>
      <trkpt lat="41.882650" lon="3.065660">
        <ele>106.0</ele>
        <time>2019-01-14T02:43:14Z</time>
      </trkpt>
      <trkpt lat="41.882070" lon="3.066190">
        <ele>101.0</ele>
        <time>2019-01-14T02:43:25Z</time>
      </trkpt>
      <trkpt lat="41.881940" lon="3.066450">
        <ele>99.0</ele>
        <time>2019-01-14T02:43:29Z</time>
      </trkpt>
      <trkpt lat="41.881080" lon="3.066840">
        <ele>93.0</ele>
        <time>2019-01-14T02:43:43Z</time>
      </trkpt>
      <trkpt lat="41.880530" lon="3.066710">
        <ele>89.0</ele>
        <time>2019-01-14T02:43:52Z</time>
      </trkpt>
      <trkpt lat="41.880200" lon="3.067010">
        <ele>86.0</ele>
        <time>2019-01-14T02:43:58Z</time>
      </trkpt>
      <trkpt lat="41.879930" lon="3.067400">
        <ele>83.0</ele>
        <time>2019-01-14T02:44:05Z</time>
      </trkpt>
      <trkpt lat="41.879630" lon="3.067480">
        <ele>81.0</ele>
        <time>2019-01-14T02:44:10Z</time>
      </trkpt>
      <trkpt lat="41.879410" lon="3.067350">
        <ele>80.0</ele>
        <time>2019-01-14T02:44:14Z</time>
      </trkpt>
      <trkpt lat="41.878940" lon="3.066970">
        <ele>76.0</ele>
        <time>2019-01-14T02:44:22Z</time>
      </trkpt>
      <trkpt lat="41.878640" lon="3.066470">
        <ele>73.0</ele>
        <time>2019-01-14T02:44:30Z</time>
      </trkpt>
      <trkpt lat="41.878448" lon="3.065783">
        <ele>70.0</ele>
        <time>2019-01-14T02:44:39Z</time>
      </trkpt>
      <trkpt lat="41.878169" lon="3.065217">
        <ele>66.0</ele>
        <time>2019-01-14T02:44:47Z</time>
      </trkpt>
      <trkpt lat="41.877981" lon="3.064853">
        <ele>64.0</ele>
        <time>2019-01-14T02:44:52Z</time>
      </trkpt>
      <trkpt lat="41.877650" lon="3.064611">
        <ele>62.0</ele>
        <time>2019-01-14T02:44:58Z</time>
      </trkpt>
      <trkpt lat="41.877342" lon="3.064409">
        <ele>57.0</ele>
        <time>2019-01-14T02:45:04Z</time>
      </trkpt>
      <trkpt lat="41.877260" lon="3.064350">
        <ele>57.0</ele>
        <time>2019-01-14T02:45:05Z</time>
      </trkpt>
      <trkpt lat="41.876510" lon="3.063810">
        <ele>60.0</ele>
        <time>2019-01-14T02:45:19Z</time>
      </trkpt>
      <trkpt lat="41.876300" lon="3.063640">
        <ele>61.0</ele>
        <time>2019-01-14T02:45:23Z</time>
      </trkpt>
      <trkpt lat="41.876130" lon="3.063250">
        <ele>62.0</ele>
        <time>2019-01-14T02:45:28Z</time>
      </trkpt>
      <trkpt lat="41.875960" lon="3.062250">
        <ele>58.0</ele>
        <time>2019-01-14T02:45:40Z</time>
      </trkpt>
      <trkpt lat="41.875630" lon="3.061430">
        <ele>55.0</ele>
        <time>2019-01-14T02:45:51Z</time>
      </trkpt>
      <trkpt lat="41.875380" lon="3.061390">
        <ele>54.0</ele>
        <time>2019-01-14T02:45:55Z</time>
      </trkpt>
      <trkpt lat="41.874930" lon="3.061650">
        <ele>54.0</ele>
        <time>2019-01-14T02:46:03Z</time>
      </trkpt>
      <trkpt lat="41.874180" lon="3.062760">
        <ele>52.0</ele>
        <time>2019-01-14T02:46:21Z</time>
      </trkpt>
      <trkpt lat="41.873640" lon="3.063530">
        <ele>49.0</ele>
        <time>2019-01-14T02:46:34Z</time>
      </trkpt>
      <trkpt lat="41.873100" lon="3.063550">
        <ele>46.0</ele>
        <time>2019-01-14T02:46:42Z</time>
      </trkpt>
      <trkpt lat="41.872840" lon="3.063430">
        <ele>45.0</ele>
        <time>2019-01-14T02:46:47Z</time>
      </trkpt>
      <trkpt lat="41.872370" lon="3.063380">
        <ele>44.0</ele>
        <time>2019-01-14T02:46:54Z</time>
      </trkpt>
      <trkpt lat="41.871620" lon="3.063770">
        <ele>42.0</ele>
        <time>2019-01-14T02:47:07Z</time>
      </trkpt>
      <trkpt lat="41.870680" lon="3.064670">
        <ele>40.0</ele>
        <time>2019-01-14T02:47:26Z</time>
      </trkpt>
      <trkpt lat="41.870480" lon="3.064860">
        <ele>40.0</ele>
        <time>2019-01-14T02:47:30Z</time>
      </trkpt>
      <trkpt lat="41.870210" lon="3.065510">
        <ele>39.0</ele>
        <time>2019-01-14T02:47:39Z</time>
      </trkpt>
      <trkpt lat="41.870250" lon="3.065940">
        <ele>39.0</ele>
        <time>2019-01-14T02:47:44Z</time>
      </trkpt>
      <trkpt lat="41.870720" lon="3.067820">
        <ele>37.0</ele>
        <time>2019-01-14T02:48:07Z</time>
      </trkpt>
      <trkpt lat="41.871020" lon="3.069090">
        <ele>37.0</ele>
        <time>2019-01-14T02:48:23Z</time>
      </trkpt>
      <trkpt lat="41.870960" lon="3.070530">
        <ele>36.0</ele>
        <time>2019-01-14T02:48:40Z</time>
      </trkpt>
      <trkpt lat="41.870930" lon="3.070870">
        <ele>35.0</ele>
        <time>2019-01-14T02:48:45Z</time>
      </trkpt>
      <trkpt lat="41.870740" lon="3.071490">
        <ele>34.0</ele>
        <time>2019-01-14T02:48:53Z</time>
      </trkpt>
      <trkpt lat="41.870420" lon="3.071820">
        <ele>33.0</ele>
        <time>2019-01-14T02:48:59Z</time>
      </trkpt>
      <trkpt lat="41.869350" lon="3.072250">
        <ele>29.0</ele>
        <time>2019-01-14T02:49:17Z</time>
      </trkpt>
      <trkpt lat="41.868510" lon="3.072630">
        <ele>28.0</ele>
        <time>2019-01-14T02:49:31Z</time>
      </trkpt>
      <trkpt lat="41.868320" lon="3.072820">
        <ele>27.0</ele>
        <time>2019-01-14T02:49:35Z</time>
      </trkpt>
      <trkpt lat="41.867910" lon="3.072870">
        <ele>27.0</ele>
        <time>2019-01-14T02:49:41Z</time>
      </trkpt>
      <trkpt lat="41.867010" lon="3.072850">
        <ele>27.0</ele>
        <time>2019-01-14T02:49:56Z</time>
      </trkpt>
      <trkpt lat="41.865570" lon="3.073150">
        <ele>27.0</ele>
        <time>2019-01-14T02:50:19Z</time>
      </trkpt>
      <trkpt lat="41.864970" lon="3.073230">
        <ele>25.0</ele>
        <time>2019-01-14T02:50:29Z</time>
      </trkpt>
      <trkpt lat="41.864480" lon="3.073020">
        <ele>25.0</ele>
        <time>2019-01-14T02:50:37Z</time>
      </trkpt>
      <trkpt lat="41.863700" lon="3.073020">
        <ele>28.0</ele>
        <time>2019-01-14T02:50:50Z</time>
      </trkpt>
      <trkpt lat="41.863150" lon="3.072970">
        <ele>28.0</ele>
        <time>2019-01-14T02:50:58Z</time>
      </trkpt>
      <trkpt lat="41.861820" lon="3.072590">
        <ele>27.0</ele>
        <time>2019-01-14T02:51:20Z</time>
      </trkpt>
      <trkpt lat="41.861390" lon="3.072850">
        <ele>28.0</ele>
        <time>2019-01-14T02:51:28Z</time>
      </trkpt>
      <trkpt lat="41.861260" lon="3.073100">
        <ele>27.0</ele>
        <time>2019-01-14T02:51:31Z</time>
      </trkpt>
      <trkpt lat="41.860960" lon="3.074310">
        <ele>25.0</ele>
        <time>2019-01-14T02:51:47Z</time>
      </trkpt>
      <trkpt lat="41.860700" lon="3.076090">
        <ele>31.0</ele>
        <time>2019-01-14T02:52:08Z</time>
      </trkpt>
      <trkpt lat="41.860510" lon="3.077480">
        <ele>29.0</ele>
        <time>2019-01-14T02:52:25Z</time>
      </trkpt>
      <trkpt lat="41.860440" lon="3.077950">
        <ele>27.0</ele>
        <time>2019-01-14T02:52:31Z</time>
      </trkpt>
      <trkpt lat="41.860080" lon="3.078510">
        <ele>24.0</ele>
        <time>2019-01-14T02:52:40Z</time>
      </trkpt>
      <trkpt lat="41.858940" lon="3.079350">
        <ele>17.0</ele>
        <time>2019-01-14T02:53:00Z</time>
      </trkpt>
      <trkpt lat="41.858530" lon="3.079580">
        <ele>16.0</ele>
        <time>2019-01-14T02:53:08Z</time>
      </trkpt>
      <trkpt lat="41.857700" lon="3.080230">
        <ele>14.0</ele>
        <time>2019-01-14T02:53:23Z</time>
      </trkpt>
      <trkpt lat="41.856790" lon="3.080830">
        <ele>13.0</ele>
        <time>2019-01-14T02:53:39Z</time>
      </trkpt>
      <trkpt lat="41.855420" lon="3.081820">
        <ele>11.0</ele>
        <time>2019-01-14T02:54:04Z</time>
      </trkpt>
      <trkpt lat="41.854670" lon="3.082610">
        <ele>11.0</ele>
        <time>2019-01-14T02:54:19Z</time>
      </trkpt>
      <trkpt lat="41.853600" lon="3.084130">
        <ele>13.0</ele>
        <time>2019-01-14T02:54:44Z</time>
      </trkpt>
      <trkpt lat="41.852570" lon="3.085530">
        <ele>15.0</ele>
        <time>2019-01-14T02:55:08Z</time>
      </trkpt>
      <trkpt lat="41.851340" lon="3.087240">
        <ele>13.0</ele>
        <time>2019-01-14T02:55:36Z</time>
      </trkpt>
      <trkpt lat="41.850420" lon="3.088510">
        <ele>14.0</ele>
        <time>2019-01-14T02:55:57Z</time>
      </trkpt>
      <trkpt lat="41.848980" lon="3.090460">
        <ele>12.0</ele>
        <time>2019-01-14T02:56:30Z</time>
      </trkpt>
      <trkpt lat="41.847800" lon="3.092110">
        <ele>9.0</ele>
        <time>2019-01-14T02:56:57Z</time>
      </trkpt>
      <trkpt lat="41.846620" lon="3.093750">
        <ele>7.0</ele>
        <time>2019-01-14T02:57:24Z</time>
      </trkpt>
      <trkpt lat="41.845590" lon="3.095180">
        <ele>8.0</ele>
        <time>2019-01-14T02:57:48Z</time>
      </trkpt>
      <trkpt lat="41.845490" lon="3.095310">
        <ele>8.0</ele>
        <time>2019-01-14T02:57:50Z</time>
      </trkpt>
      <trkpt lat="41.845160" lon="3.095510">
        <ele>7.0</ele>
        <time>2019-01-14T02:57:56Z</time>
      </trkpt>
      <trkpt lat="41.845250" lon="3.095760">
        <ele>7.0</ele>
        <time>2019-01-14T02:57:59Z</time>
      </trkpt>
      <trkpt lat="41.845550" lon="3.096150">
        <ele>7.0</ele>
        <time>2019-01-14T02:58:06Z</time>
      </trkpt>
      <trkpt lat="41.845980" lon="3.097480">
        <ele>6.0</ele>
        <time>2019-01-14T02:58:23Z</time>
      </trkpt>
      <trkpt lat="41.846390" lon="3.098720">
        <ele>7.0</ele>
        <time>2019-01-14T02:58:40Z</time>
      </trkpt>
      <trkpt lat="41.846560" lon="3.099110">
        <ele>7.0</ele>
        <time>2019-01-14T02:58:45Z</time>
      </trkpt>
      <trkpt lat="41.846710" lon="3.099000">
        <ele>7.0</ele>
        <time>2019-01-14T02:58:48Z</time>
      </trkpt>
      <trkpt lat="41.846800" lon="3.098920">
        <ele>6.0</ele>
        <time>2019-01-14T02:58:49Z</time>
      </trkpt>
      <trkpt lat="41.846820" lon="3.098850">
        <ele>6.0</ele>
        <time>2019-01-14T02:58:50Z</time>
      </trkpt>
      <trkpt lat="41.846750" lon="3.098810">
        <ele>7.0</ele>
        <time>2019-01-14T02:58:52Z</time>
      </trkpt>
      <trkpt lat="41.846560" lon="3.098720">
        <ele>7.0</ele>
        <time>2019-01-14T02:58:55Z</time>
      </trkpt>
      <trkpt lat="41.846320" lon="3.098510">
        <ele>7.0</ele>
        <time>2019-01-14T02:58:59Z</time>
      </trkpt>
      <trkpt lat="41.846150" lon="3.098320">
        <ele>7.0</ele>
        <time>2019-01-14T02:59:03Z</time>
      </trkpt>
      <trkpt lat="41.846020" lon="3.098080">
        <ele>7.0</ele>
        <time>2019-01-14T02:59:06Z</time>
      </trkpt>
      <trkpt lat="41.846000" lon="3.098040">
        <ele>7.0</ele>
        <time>2019-01-14T02:59:07Z</time>
      </trkpt>
      <trkpt lat="41.846020" lon="3.098080">
        <ele>7.0</ele>
        <time>2019-01-14T02:59:08Z</time>
      </trkpt>
      <trkpt lat="41.846000" lon="3.098080">
        <ele>7.0</ele>
        <time>2019-01-14T02:59:08Z</time>
      </trkpt>
      <trkpt lat="41.846020" lon="3.098120">
        <ele>7.0</ele>
        <time>2019-01-14T02:59:09Z</time>
      </trkpt>
      <trkpt lat="41.846130" lon="3.098360">
        <ele>7.0</ele>
        <time>2019-01-14T02:59:12Z</time>
      </trkpt>
      <trkpt lat="41.846320" lon="3.098570">
        <ele>7.0</ele>
        <time>2019-01-14T02:59:16Z</time>
      </trkpt>
      <trkpt lat="41.846390" lon="3.098790">
        <ele>7.0</ele>
        <time>2019-01-14T02:59:19Z</time>
      </trkpt>
      <trkpt lat="41.846410" lon="3.098980">
        <ele>7.0</ele>
        <time>2019-01-14T02:59:21Z</time>
      </trkpt>
      <trkpt lat="41.846620" lon="3.099500">
        <ele>6.0</ele>
        <time>2019-01-14T02:59:28Z</time>
      </trkpt>
      <trkpt lat="41.846990" lon="3.100630">
        <ele>6.0</ele>
        <time>2019-01-14T02:59:43Z</time>
      </trkpt>
      <trkpt lat="41.847330" lon="3.101620">
        <ele>6.0</ele>
        <time>2019-01-14T02:59:56Z</time>
      </trkpt>
      <trkpt lat="41.847740" lon="3.102870">
        <ele>5.0</ele>
        <time>2019-01-14T03:00:12Z</time>
      </trkpt>
      <trkpt lat="41.848170" lon="3.104220">
        <ele>4.0</ele>
        <time>2019-01-14T03:00:30Z</time>
      </trkpt>
      <trkpt lat="41.848580" lon="3.105500">
        <ele>4.0</ele>
        <time>2019-01-14T03:00:46Z</time>
      </trkpt>
      <trkpt lat="41.849050" lon="3.106920">
        <ele>3.0</ele>
        <time>2019-01-14T03:01:05Z</time>
      </trkpt>
      <trkpt lat="41.849500" lon="3.108420">
        <ele>7.0</ele>
        <time>2019-01-14T03:01:24Z</time>
      </trkpt>
      <trkpt lat="41.849520" lon="3.108590">
        <ele>7.0</ele>
        <time>2019-01-14T03:01:26Z</time>
      </trkpt>
      <trkpt lat="41.849480" lon="3.109540">
        <ele>8.0</ele>
        <time>2019-01-14T03:01:37Z</time>
      </trkpt>
      <trkpt lat="41.849370" lon="3.110830">
        <ele>9.0</ele>
        <time>2019-01-14T03:01:53Z</time>
      </trkpt>
      <trkpt lat="41.849240" lon="3.112160">
        <ele>11.0</ele>
        <time>2019-01-14T03:02:09Z</time>
      </trkpt>
      <trkpt lat="41.849200" lon="3.113140">
        <ele>8.0</ele>
        <time>2019-01-14T03:02:21Z</time>
      </trkpt>
      <trkpt lat="41.849540" lon="3.113680">
        <ele>8.0</ele>
        <time>2019-01-14T03:02:29Z</time>
      </trkpt>
      <trkpt lat="41.849840" lon="3.113770">
        <ele>9.0</ele>
        <time>2019-01-14T03:02:34Z</time>
      </trkpt>
      <trkpt lat="41.850310" lon="3.113810">
        <ele>7.0</ele>
        <time>2019-01-14T03:02:41Z</time>
      </trkpt>
      <trkpt lat="41.850960" lon="3.114320">
        <ele>6.0</ele>
        <time>2019-01-14T03:02:54Z</time>
      </trkpt>
      <trkpt lat="41.852010" lon="3.115610">
        <ele>5.0</ele>
        <time>2019-01-14T03:03:16Z</time>
      </trkpt>
      <trkpt lat="41.852457" lon="3.116126">
        <ele>5.0</ele>
        <time>2019-01-14T03:03:26Z</time>
      </trkpt>
      <trkpt lat="41.852569" lon="3.116310">
        <ele>5.0</ele>
        <time>2019-01-14T03:03:29Z</time>
      </trkpt>
      <trkpt lat="41.852665" lon="3.116438">
        <ele>5.0</ele>
        <time>2019-01-14T03:03:31Z</time>
      </trkpt>
      <trkpt lat="41.852803" lon="3.116374">
        <ele>5.0</ele>
        <time>2019-01-14T03:03:33Z</time>
      </trkpt>
      <trkpt lat="41.852896" lon="3.116369">
        <ele>6.0</ele>
        <time>2019-01-14T03:03:35Z</time>
      </trkpt>
      <trkpt lat="41.852926" lon="3.116383">
        <ele>6.0</ele>
        <time>2019-01-14T03:03:35Z</time>
      </trkpt>
      <trkpt lat="41.853045" lon="3.116439">
        <ele>6.0</ele>
        <time>2019-01-14T03:03:37Z</time>
      </trkpt>
      <trkpt lat="41.853096" lon="3.116533">
        <ele>6.0</ele>
        <time>2019-01-14T03:03:39Z</time>
      </trkpt>
      <trkpt lat="41.853108" lon="3.116679">
        <ele>6.0</ele>
        <time>2019-01-14T03:03:40Z</time>
      </trkpt>
      <trkpt lat="41.853112" lon="3.116836">
        <ele>6.0</ele>
        <time>2019-01-14T03:03:42Z</time>
      </trkpt>
      <trkpt lat="41.853154" lon="3.116941">
        <ele>6.0</ele>
        <time>2019-01-14T03:03:44Z</time>
      </trkpt>
      <trkpt lat="41.853225" lon="3.117009">
        <ele>6.0</ele>
        <time>2019-01-14T03:03:45Z</time>
      </trkpt>
      <trkpt lat="41.853279" lon="3.117098">
        <ele>6.0</ele>
        <time>2019-01-14T03:03:46Z</time>
      </trkpt>
      <trkpt lat="41.853338" lon="3.117187">
        <ele>5.0</ele>
        <time>2019-01-14T03:03:48Z</time>
      </trkpt>
      <trkpt lat="41.853392" lon="3.117276">
        <ele>5.0</ele>
        <time>2019-01-14T03:03:49Z</time>
      </trkpt>
      <trkpt lat="41.853466" lon="3.117339">
        <ele>5.0</ele>
        <time>2019-01-14T03:03:51Z</time>
      </trkpt>
      <trkpt lat="41.853462" lon="3.117334">
        <ele>5.0</ele>
        <time>2019-01-14T03:03:51Z</time>
      </trkpt>
      <trkpt lat="41.853521" lon="3.117423">
        <ele>6.0</ele>
        <time>2019-01-14T03:03:52Z</time>
      </trkpt>
      <trkpt lat="41.853579" lon="3.117522">
        <ele>6.0</ele>
        <time>2019-01-14T03:03:54Z</time>
      </trkpt>
      <trkpt lat="41.853650" lon="3.117595">
        <ele>6.0</ele>
        <time>2019-01-14T03:03:55Z</time>
      </trkpt>
      <trkpt lat="41.853708" lon="3.117684">
        <ele>6.0</ele>
        <time>2019-01-14T03:03:56Z</time>
      </trkpt>
      <trkpt lat="41.853766" lon="3.117773">
        <ele>6.0</ele>
        <time>2019-01-14T03:03:58Z</time>
      </trkpt>
      <trkpt lat="41.853833" lon="3.117852">
        <ele>6.0</ele>
        <time>2019-01-14T03:03:59Z</time>
      </trkpt>
      <trkpt lat="41.853907" lon="3.117925">
        <ele>6.0</ele>
        <time>2019-01-14T03:04:01Z</time>
      </trkpt>
      <trkpt lat="41.853973" lon="3.118003">
        <ele>6.0</ele>
        <time>2019-01-14T03:04:02Z</time>
      </trkpt>
      <trkpt lat="41.854043" lon="3.118077">
        <ele>6.0</ele>
        <time>2019-01-14T03:04:04Z</time>
      </trkpt>
      <trkpt lat="41.854125" lon="3.118129">
        <ele>6.0</ele>
        <time>2019-01-14T03:04:05Z</time>
      </trkpt>
      <trkpt lat="41.854191" lon="3.118202">
        <ele>6.0</ele>
        <time>2019-01-14T03:04:06Z</time>
      </trkpt>
      <trkpt lat="41.854262" lon="3.118276">
        <ele>6.0</ele>
        <time>2019-01-14T03:04:08Z</time>
      </trkpt>
      <trkpt lat="41.854308" lon="3.118375">
        <ele>6.0</ele>
        <time>2019-01-14T03:04:09Z</time>
      </trkpt>
      <trkpt lat="41.854363" lon="3.118469">
        <ele>6.0</ele>
        <time>2019-01-14T03:04:11Z</time>
      </trkpt>
      <trkpt lat="41.854429" lon="3.118543">
        <ele>6.0</ele>
        <time>2019-01-14T03:04:12Z</time>
      </trkpt>
      <trkpt lat="41.854484" lon="3.118632">
        <ele>6.0</ele>
        <time>2019-01-14T03:04:13Z</time>
      </trkpt>
      <trkpt lat="41.854507" lon="3.118762">
        <ele>6.0</ele>
        <time>2019-01-14T03:04:15Z</time>
      </trkpt>
      <trkpt lat="41.854554" lon="3.118862">
        <ele>6.0</ele>
        <time>2019-01-14T03:04:16Z</time>
      </trkpt>
      <trkpt lat="41.854609" lon="3.118909">
        <ele>6.0</ele>
        <time>2019-01-14T03:04:17Z</time>
      </trkpt>
      <trkpt lat="41.854659" lon="3.118872">
        <ele>6.0</ele>
        <time>2019-01-14T03:04:18Z</time>
      </trkpt>
      <trkpt lat="41.854741" lon="3.118925">
        <ele>6.0</ele>
        <time>2019-01-14T03:04:20Z</time>
      </trkpt>
      <trkpt lat="41.854796" lon="3.119047">
        <ele>6.0</ele>
        <time>2019-01-14T03:04:21Z</time>
      </trkpt>
      <trkpt lat="41.854975" lon="3.119303">
        <ele>6.0</ele>
        <time>2019-01-14T03:04:26Z</time>
      </trkpt>
      <trkpt lat="41.855142" lon="3.119575">
        <ele>7.0</ele>
        <time>2019-01-14T03:04:30Z</time>
      </trkpt>
      <trkpt lat="41.855344" lon="3.119799">
        <ele>7.0</ele>
        <time>2019-01-14T03:04:34Z</time>
      </trkpt>
      <trkpt lat="41.855546" lon="3.120023">
        <ele>7.0</ele>
        <time>2019-01-14T03:04:38Z</time>
      </trkpt>
      <trkpt lat="41.855785" lon="3.120198">
        <ele>6.0</ele>
        <time>2019-01-14T03:04:43Z</time>
      </trkpt>
      <trkpt lat="41.856059" lon="3.120326">
        <ele>7.0</ele>
        <time>2019-01-14T03:04:47Z</time>
      </trkpt>
      <trkpt lat="41.856368" lon="3.120406">
        <ele>6.0</ele>
        <time>2019-01-14T03:04:52Z</time>
      </trkpt>
      <trkpt lat="41.856499" lon="3.120726">
        <ele>6.0</ele>
        <time>2019-01-14T03:04:57Z</time>
      </trkpt>
      <trkpt lat="41.856714" lon="3.120934">
        <ele>6.0</ele>
        <time>2019-01-14T03:05:01Z</time>
      </trkpt>
      <trkpt lat="41.856988" lon="3.120806">
        <ele>7.0</ele>
        <time>2019-01-14T03:05:06Z</time>
      </trkpt>
      <trkpt lat="41.857154" lon="3.120534">
        <ele>8.0</ele>
        <time>2019-01-14T03:05:10Z</time>
      </trkpt>
      <trkpt lat="41.857452" lon="3.120438">
        <ele>8.0</ele>
        <time>2019-01-14T03:05:15Z</time>
      </trkpt>
      <trkpt lat="41.857445" lon="3.120426">
        <ele>8.0</ele>
        <time>2019-01-14T03:05:15Z</time>
      </trkpt>
      <trkpt lat="41.857590" lon="3.120420">
        <ele>8.0</ele>
        <time>2019-01-14T03:05:17Z</time>
      </trkpt>
      <trkpt lat="41.857755" lon="3.120435">
        <ele>8.0</ele>
        <time>2019-01-14T03:05:20Z</time>
      </trkpt>
      <trkpt lat="41.857920" lon="3.120442">
        <ele>9.0</ele>
        <time>2019-01-14T03:05:22Z</time>
      </trkpt>
      <trkpt lat="41.858085" lon="3.120449">
        <ele>9.0</ele>
        <time>2019-01-14T03:05:25Z</time>
      </trkpt>
      <trkpt lat="41.858261" lon="3.120449">
        <ele>9.0</ele>
        <time>2019-01-14T03:05:28Z</time>
      </trkpt>
      <trkpt lat="41.858432" lon="3.120457">
        <ele>8.0</ele>
        <time>2019-01-14T03:05:31Z</time>
      </trkpt>
      <trkpt lat="41.858608" lon="3.120449">
        <ele>8.0</ele>
        <time>2019-01-14T03:05:33Z</time>
      </trkpt>
      <trkpt lat="41.858767" lon="3.120464">
        <ele>8.0</ele>
        <time>2019-01-14T03:05:36Z</time>
      </trkpt>
      <trkpt lat="41.858927" lon="3.120479">
        <ele>8.0</ele>
        <time>2019-01-14T03:05:39Z</time>
      </trkpt>
      <trkpt lat="41.859054" lon="3.120607">
        <ele>8.0</ele>
        <time>2019-01-14T03:05:41Z</time>
      </trkpt>
      <trkpt lat="41.859123" lon="3.120738">
        <ele>7.0</ele>
        <time>2019-01-14T03:05:43Z</time>
      </trkpt>
      <trkpt lat="41.859220" lon="3.120818">
        <ele>7.0</ele>
        <time>2019-01-14T03:05:45Z</time>
      </trkpt>
      <trkpt lat="41.859396" lon="3.120818">
        <ele>8.0</ele>
        <time>2019-01-14T03:05:48Z</time>
      </trkpt>
      <trkpt lat="41.859443" lon="3.121016">
        <ele>7.0</ele>
        <time>2019-01-14T03:05:50Z</time>
      </trkpt>
      <trkpt lat="41.859340" lon="3.121155">
        <ele>6.0</ele>
        <time>2019-01-14T03:05:52Z</time>
      </trkpt>
      <trkpt lat="41.859134" lon="3.121235">
        <ele>6.0</ele>
        <time>2019-01-14T03:05:56Z</time>
      </trkpt>
      <trkpt lat="41.858970" lon="3.121385">
        <ele>5.0</ele>
        <time>2019-01-14T03:05:59Z</time>
      </trkpt>
      <trkpt lat="41.858893" lon="3.121639">
        <ele>5.0</ele>
        <time>2019-01-14T03:06:02Z</time>
      </trkpt>
      <trkpt lat="41.858816" lon="3.121893">
        <ele>5.0</ele>
        <time>2019-01-14T03:06:06Z</time>
      </trkpt>
      <trkpt lat="41.858807" lon="3.122251">
        <ele>5.0</ele>
        <time>2019-01-14T03:06:10Z</time>
      </trkpt>
      <trkpt lat="41.858876" lon="3.122517">
        <ele>5.0</ele>
        <time>2019-01-14T03:06:13Z</time>
      </trkpt>
      <trkpt lat="41.858936" lon="3.122794">
        <ele>5.0</ele>
        <time>2019-01-14T03:06:17Z</time>
      </trkpt>
      <trkpt lat="41.859005" lon="3.123059">
        <ele>6.0</ele>
        <time>2019-01-14T03:06:20Z</time>
      </trkpt>
      <trkpt lat="41.859108" lon="3.123279">
        <ele>6.0</ele>
        <time>2019-01-14T03:06:23Z</time>
      </trkpt>
      <trkpt lat="41.859220" lon="3.123486">
        <ele>6.0</ele>
        <time>2019-01-14T03:06:26Z</time>
      </trkpt>
      <trkpt lat="41.859340" lon="3.123682">
        <ele>6.0</ele>
        <time>2019-01-14T03:06:29Z</time>
      </trkpt>
      <trkpt lat="41.859452" lon="3.123890">
        <ele>6.0</ele>
        <time>2019-01-14T03:06:32Z</time>
      </trkpt>
      <trkpt lat="41.859598" lon="3.124075">
        <ele>6.0</ele>
        <time>2019-01-14T03:06:35Z</time>
      </trkpt>
      <trkpt lat="41.859701" lon="3.124306">
        <ele>6.0</ele>
        <time>2019-01-14T03:06:39Z</time>
      </trkpt>
      <trkpt lat="41.859787" lon="3.124548">
        <ele>6.0</ele>
        <time>2019-01-14T03:06:42Z</time>
      </trkpt>
      <trkpt lat="41.859899" lon="3.124756">
        <ele>7.0</ele>
        <time>2019-01-14T03:06:45Z</time>
      </trkpt>
      <trkpt lat="41.860019" lon="3.124952">
        <ele>7.0</ele>
        <time>2019-01-14T03:06:48Z</time>
      </trkpt>
      <trkpt lat="41.860140" lon="3.125160">
        <ele>7.0</ele>
        <time>2019-01-14T03:06:51Z</time>
      </trkpt>
      <trkpt lat="41.860260" lon="3.125368">
        <ele>7.0</ele>
        <time>2019-01-14T03:06:54Z</time>
      </trkpt>
      <trkpt lat="41.860372" lon="3.125587">
        <ele>7.0</ele>
        <time>2019-01-14T03:06:57Z</time>
      </trkpt>
      <trkpt lat="41.860492" lon="3.125795">
        <ele>7.0</ele>
        <time>2019-01-14T03:07:01Z</time>
      </trkpt>
      <trkpt lat="41.860604" lon="3.126014">
        <ele>7.0</ele>
        <time>2019-01-14T03:07:04Z</time>
      </trkpt>
      <trkpt lat="41.860707" lon="3.126233">
        <ele>7.0</ele>
        <time>2019-01-14T03:07:07Z</time>
      </trkpt>
      <trkpt lat="41.860810" lon="3.126453">
        <ele>8.0</ele>
        <time>2019-01-14T03:07:10Z</time>
      </trkpt>
      <trkpt lat="41.860939" lon="3.126637">
        <ele>8.0</ele>
        <time>2019-01-14T03:07:13Z</time>
      </trkpt>
      <trkpt lat="41.861068" lon="3.126834">
        <ele>8.0</ele>
        <time>2019-01-14T03:07:16Z</time>
      </trkpt>
      <trkpt lat="41.861163" lon="3.127064">
        <ele>8.0</ele>
        <time>2019-01-14T03:07:19Z</time>
      </trkpt>
      <trkpt lat="41.861266" lon="3.127295">
        <ele>9.0</ele>
        <time>2019-01-14T03:07:22Z</time>
      </trkpt>
      <trkpt lat="41.861386" lon="3.127492">
        <ele>9.0</ele>
        <time>2019-01-14T03:07:25Z</time>
      </trkpt>
      <trkpt lat="41.861506" lon="3.127688">
        <ele>9.0</ele>
        <time>2019-01-14T03:07:28Z</time>
      </trkpt>
      <trkpt lat="41.861644" lon="3.127861">
        <ele>9.0</ele>
        <time>2019-01-14T03:07:31Z</time>
      </trkpt>
      <trkpt lat="41.861764" lon="3.128057">
        <ele>9.0</ele>
        <time>2019-01-14T03:07:35Z</time>
      </trkpt>
      <trkpt lat="41.861859" lon="3.128288">
        <ele>9.0</ele>
        <time>2019-01-14T03:07:38Z</time>
      </trkpt>
      <trkpt lat="41.861971" lon="3.128507">
        <ele>9.0</ele>
        <time>2019-01-14T03:07:41Z</time>
      </trkpt>
      <trkpt lat="41.862168" lon="3.128600">
        <ele>9.0</ele>
        <time>2019-01-14T03:07:44Z</time>
      </trkpt>
      <trkpt lat="41.862145" lon="3.128614">
        <ele>9.0</ele>
        <time>2019-01-14T03:07:45Z</time>
      </trkpt>
      <trkpt lat="41.862211" lon="3.128710">
        <ele>9.0</ele>
        <time>2019-01-14T03:07:46Z</time>
      </trkpt>
      <trkpt lat="41.862278" lon="3.128811">
        <ele>10.0</ele>
        <time>2019-01-14T03:07:48Z</time>
      </trkpt>
      <trkpt lat="41.862349" lon="3.128901">
        <ele>10.0</ele>
        <time>2019-01-14T03:07:49Z</time>
      </trkpt>
      <trkpt lat="41.862420" lon="3.128996">
        <ele>10.0</ele>
        <time>2019-01-14T03:07:51Z</time>
      </trkpt>
      <trkpt lat="41.862491" lon="3.129097">
        <ele>10.0</ele>
        <time>2019-01-14T03:07:53Z</time>
      </trkpt>
      <trkpt lat="41.862562" lon="3.129187">
        <ele>10.0</ele>
        <time>2019-01-14T03:07:54Z</time>
      </trkpt>
      <trkpt lat="41.862655" lon="3.129246">
        <ele>10.0</ele>
        <time>2019-01-14T03:07:56Z</time>
      </trkpt>
      <trkpt lat="41.862744" lon="3.129312">
        <ele>10.0</ele>
        <time>2019-01-14T03:07:57Z</time>
      </trkpt>
      <trkpt lat="41.862820" lon="3.129401">
        <ele>11.0</ele>
        <time>2019-01-14T03:07:59Z</time>
      </trkpt>
      <trkpt lat="41.862895" lon="3.129485">
        <ele>11.0</ele>
        <time>2019-01-14T03:08:01Z</time>
      </trkpt>
      <trkpt lat="41.862948" lon="3.129598">
        <ele>11.0</ele>
        <time>2019-01-14T03:08:02Z</time>
      </trkpt>
      <trkpt lat="41.863050" lon="3.129646">
        <ele>11.0</ele>
        <time>2019-01-14T03:08:04Z</time>
      </trkpt>
      <trkpt lat="41.863188" lon="3.129646">
        <ele>11.0</ele>
        <time>2019-01-14T03:08:06Z</time>
      </trkpt>
      <trkpt lat="41.863326" lon="3.129646">
        <ele>12.0</ele>
        <time>2019-01-14T03:08:08Z</time>
      </trkpt>
      <trkpt lat="41.863317" lon="3.129634">
        <ele>12.0</ele>
        <time>2019-01-14T03:08:09Z</time>
      </trkpt>
      <trkpt lat="41.863419" lon="3.129586">
        <ele>12.0</ele>
        <time>2019-01-14T03:08:10Z</time>
      </trkpt>
      <trkpt lat="41.863548" lon="3.129574">
        <ele>12.0</ele>
        <time>2019-01-14T03:08:12Z</time>
      </trkpt>
      <trkpt lat="41.863659" lon="3.129539">
        <ele>12.0</ele>
        <time>2019-01-14T03:08:14Z</time>
      </trkpt>
      <trkpt lat="41.863739" lon="3.129461">
        <ele>12.0</ele>
        <time>2019-01-14T03:08:16Z</time>
      </trkpt>
      <trkpt lat="41.863819" lon="3.129384">
        <ele>12.0</ele>
        <time>2019-01-14T03:08:17Z</time>
      </trkpt>
      <trkpt lat="41.863890" lon="3.129288">
        <ele>12.0</ele>
        <time>2019-01-14T03:08:19Z</time>
      </trkpt>
      <trkpt lat="41.863961" lon="3.129199">
        <ele>12.0</ele>
        <time>2019-01-14T03:08:20Z</time>
      </trkpt>
      <trkpt lat="41.864036" lon="3.129115">
        <ele>13.0</ele>
        <time>2019-01-14T03:08:22Z</time>
      </trkpt>
      <trkpt lat="41.864116" lon="3.129038">
        <ele>13.0</ele>
        <time>2019-01-14T03:08:24Z</time>
      </trkpt>
      <trkpt lat="41.864192" lon="3.128954">
        <ele>13.0</ele>
        <time>2019-01-14T03:08:25Z</time>
      </trkpt>
      <trkpt lat="41.864263" lon="3.128859">
        <ele>13.0</ele>
        <time>2019-01-14T03:08:27Z</time>
      </trkpt>
      <trkpt lat="41.864325" lon="3.128757">
        <ele>13.0</ele>
        <time>2019-01-14T03:08:28Z</time>
      </trkpt>
      <trkpt lat="41.864401" lon="3.128668">
        <ele>13.0</ele>
        <time>2019-01-14T03:08:30Z</time>
      </trkpt>
      <trkpt lat="41.864503" lon="3.128620">
        <ele>13.0</ele>
        <time>2019-01-14T03:08:32Z</time>
      </trkpt>
      <trkpt lat="41.864587" lon="3.128543">
        <ele>13.0</ele>
        <time>2019-01-14T03:08:33Z</time>
      </trkpt>
      <trkpt lat="41.864680" lon="3.128477">
        <ele>13.0</ele>
        <time>2019-01-14T03:08:35Z</time>
      </trkpt>
      <trkpt lat="41.864760" lon="3.128400">
        <ele>14.0</ele>
        <time>2019-01-14T03:08:37Z</time>
      </trkpt>
      <trkpt lat="41.864756" lon="3.128403">
        <ele>14.0</ele>
        <time>2019-01-14T03:08:37Z</time>
      </trkpt>
      <trkpt lat="41.864895" lon="3.128300">
        <ele>14.0</ele>
        <time>2019-01-14T03:08:39Z</time>
      </trkpt>
      <trkpt lat="41.865041" lon="3.128207">
        <ele>15.0</ele>
        <time>2019-01-14T03:08:42Z</time>
      </trkpt>
      <trkpt lat="41.865166" lon="3.128086">
        <ele>15.0</ele>
        <time>2019-01-14T03:08:44Z</time>
      </trkpt>
      <trkpt lat="41.865284" lon="3.127955">
        <ele>15.0</ele>
        <time>2019-01-14T03:08:47Z</time>
      </trkpt>
      <trkpt lat="41.865381" lon="3.127778">
        <ele>16.0</ele>
        <time>2019-01-14T03:08:49Z</time>
      </trkpt>
      <trkpt lat="41.865527" lon="3.127684">
        <ele>17.0</ele>
        <time>2019-01-14T03:08:52Z</time>
      </trkpt>
      <trkpt lat="41.865708" lon="3.127740">
        <ele>17.0</ele>
        <time>2019-01-14T03:08:55Z</time>
      </trkpt>
      <trkpt lat="41.865847" lon="3.127638">
        <ele>17.0</ele>
        <time>2019-01-14T03:08:57Z</time>
      </trkpt>
      <trkpt lat="41.865979" lon="3.127526">
        <ele>17.0</ele>
        <time>2019-01-14T03:09:00Z</time>
      </trkpt>
      <trkpt lat="41.866125" lon="3.127432">
        <ele>17.0</ele>
        <time>2019-01-14T03:09:03Z</time>
      </trkpt>
      <trkpt lat="41.866278" lon="3.127348">
        <ele>17.0</ele>
        <time>2019-01-14T03:09:05Z</time>
      </trkpt>
      <trkpt lat="41.866424" lon="3.127246">
        <ele>17.0</ele>
        <time>2019-01-14T03:09:08Z</time>
      </trkpt>
      <trkpt lat="41.866549" lon="3.127115">
        <ele>18.0</ele>
        <time>2019-01-14T03:09:10Z</time>
      </trkpt>
      <trkpt lat="41.866667" lon="3.126984">
        <ele>18.0</ele>
        <time>2019-01-14T03:09:13Z</time>
      </trkpt>
      <trkpt lat="41.866785" lon="3.126854">
        <ele>18.0</ele>
        <time>2019-01-14T03:09:15Z</time>
      </trkpt>
      <trkpt lat="41.866896" lon="3.126714">
        <ele>18.0</ele>
        <time>2019-01-14T03:09:18Z</time>
      </trkpt>
      <trkpt lat="41.867014" lon="3.126583">
        <ele>18.0</ele>
        <time>2019-01-14T03:09:20Z</time>
      </trkpt>
      <trkpt lat="41.867132" lon="3.126453">
        <ele>18.0</ele>
        <time>2019-01-14T03:09:23Z</time>
      </trkpt>
      <trkpt lat="41.867119" lon="3.126453">
        <ele>18.0</ele>
        <time>2019-01-14T03:09:23Z</time>
      </trkpt>
      <trkpt lat="41.867209" lon="3.126285">
        <ele>18.0</ele>
        <time>2019-01-14T03:09:25Z</time>
      </trkpt>
      <trkpt lat="41.867334" lon="3.126163">
        <ele>18.0</ele>
        <time>2019-01-14T03:09:28Z</time>
      </trkpt>
      <trkpt lat="41.867487" lon="3.126079">
        <ele>18.0</ele>
        <time>2019-01-14T03:09:30Z</time>
      </trkpt>
      <trkpt lat="41.867660" lon="3.126023">
        <ele>18.0</ele>
        <time>2019-01-14T03:09:33Z</time>
      </trkpt>
      <trkpt lat="41.867841" lon="3.125977">
        <ele>19.0</ele>
        <time>2019-01-14T03:09:36Z</time>
      </trkpt>
      <trkpt lat="41.868008" lon="3.125911">
        <ele>19.0</ele>
        <time>2019-01-14T03:09:39Z</time>
      </trkpt>
      <trkpt lat="41.868168" lon="3.125837">
        <ele>20.0</ele>
        <time>2019-01-14T03:09:42Z</time>
      </trkpt>
      <trkpt lat="41.868348" lon="3.125790">
        <ele>20.0</ele>
        <time>2019-01-14T03:09:45Z</time>
      </trkpt>
      <trkpt lat="41.868522" lon="3.125725">
        <ele>20.0</ele>
        <time>2019-01-14T03:09:47Z</time>
      </trkpt>
      <trkpt lat="41.868668" lon="3.125631">
        <ele>21.0</ele>
        <time>2019-01-14T03:09:50Z</time>
      </trkpt>
      <trkpt lat="41.868835" lon="3.125566">
        <ele>21.0</ele>
        <time>2019-01-14T03:09:53Z</time>
      </trkpt>
      <trkpt lat="41.868995" lon="3.125491">
        <ele>21.0</ele>
        <time>2019-01-14T03:09:56Z</time>
      </trkpt>
      <trkpt lat="41.869134" lon="3.125389">
        <ele>22.0</ele>
        <time>2019-01-14T03:09:58Z</time>
      </trkpt>
      <trkpt lat="41.869280" lon="3.125296">
        <ele>22.0</ele>
        <time>2019-01-14T03:10:01Z</time>
      </trkpt>
      <trkpt lat="41.869398" lon="3.125165">
        <ele>23.0</ele>
        <time>2019-01-14T03:10:03Z</time>
      </trkpt>
      <trkpt lat="41.869516" lon="3.125025">
        <ele>23.0</ele>
        <time>2019-01-14T03:10:06Z</time>
      </trkpt>
      <trkpt lat="41.869648" lon="3.124913">
        <ele>24.0</ele>
        <time>2019-01-14T03:10:08Z</time>
      </trkpt>
      <trkpt lat="41.869780" lon="3.124782">
        <ele>25.0</ele>
        <time>2019-01-14T03:10:11Z</time>
      </trkpt>
      <trkpt lat="41.869926" lon="3.124689">
        <ele>25.0</ele>
        <time>2019-01-14T03:10:13Z</time>
      </trkpt>
      <trkpt lat="41.870030" lon="3.124530">
        <ele>26.0</ele>
        <time>2019-01-14T03:10:16Z</time>
      </trkpt>
      <trkpt lat="41.870089" lon="3.124470">
        <ele>26.0</ele>
        <time>2019-01-14T03:10:17Z</time>
      </trkpt>
      <trkpt lat="41.870155" lon="3.124409">
        <ele>26.0</ele>
        <time>2019-01-14T03:10:18Z</time>
      </trkpt>
      <trkpt lat="41.870273" lon="3.124269">
        <ele>26.0</ele>
        <time>2019-01-14T03:10:21Z</time>
      </trkpt>
      <trkpt lat="41.870398" lon="3.124139">
        <ele>27.0</ele>
        <time>2019-01-14T03:10:23Z</time>
      </trkpt>
      <trkpt lat="41.870530" lon="3.124027">
        <ele>27.0</ele>
        <time>2019-01-14T03:10:26Z</time>
      </trkpt>
      <trkpt lat="41.870648" lon="3.123896">
        <ele>27.0</ele>
        <time>2019-01-14T03:10:28Z</time>
      </trkpt>
      <trkpt lat="41.870759" lon="3.123756">
        <ele>28.0</ele>
        <time>2019-01-14T03:10:31Z</time>
      </trkpt>
      <trkpt lat="41.870857" lon="3.123597">
        <ele>29.0</ele>
        <time>2019-01-14T03:10:33Z</time>
      </trkpt>
      <trkpt lat="41.870975" lon="3.123448">
        <ele>29.0</ele>
        <time>2019-01-14T03:10:36Z</time>
      </trkpt>
      <trkpt lat="41.871093" lon="3.123317">
        <ele>30.0</ele>
        <time>2019-01-14T03:10:38Z</time>
      </trkpt>
      <trkpt lat="41.871211" lon="3.123177">
        <ele>30.0</ele>
        <time>2019-01-14T03:10:41Z</time>
      </trkpt>
      <trkpt lat="41.871329" lon="3.123038">
        <ele>31.0</ele>
        <time>2019-01-14T03:10:43Z</time>
      </trkpt>
      <trkpt lat="41.871434" lon="3.122888">
        <ele>31.0</ele>
        <time>2019-01-14T03:10:46Z</time>
      </trkpt>
      <trkpt lat="41.871552" lon="3.122758">
        <ele>31.0</ele>
        <time>2019-01-14T03:10:48Z</time>
      </trkpt>
      <trkpt lat="41.871670" lon="3.122627">
        <ele>32.0</ele>
        <time>2019-01-14T03:10:51Z</time>
      </trkpt>
      <trkpt lat="41.871753" lon="3.122450">
        <ele>32.0</ele>
        <time>2019-01-14T03:10:53Z</time>
      </trkpt>
      <trkpt lat="41.871857" lon="3.122291">
        <ele>33.0</ele>
        <time>2019-01-14T03:10:56Z</time>
      </trkpt>
      <trkpt lat="41.871982" lon="3.122151">
        <ele>34.0</ele>
        <time>2019-01-14T03:10:58Z</time>
      </trkpt>
      <trkpt lat="41.872101" lon="3.122002">
        <ele>34.0</ele>
        <time>2019-01-14T03:11:01Z</time>
      </trkpt>
      <trkpt lat="41.872226" lon="3.121881">
        <ele>34.0</ele>
        <time>2019-01-14T03:11:03Z</time>
      </trkpt>
      <trkpt lat="41.872344" lon="3.121750">
        <ele>34.0</ele>
        <time>2019-01-14T03:11:06Z</time>
      </trkpt>
      <trkpt lat="41.872469" lon="3.121629">
        <ele>35.0</ele>
        <time>2019-01-14T03:11:08Z</time>
      </trkpt>
      <trkpt lat="41.872580" lon="3.121479">
        <ele>35.0</ele>
        <time>2019-01-14T03:11:11Z</time>
      </trkpt>
      <trkpt lat="41.872698" lon="3.121330">
        <ele>35.0</ele>
        <time>2019-01-14T03:11:13Z</time>
      </trkpt>
      <trkpt lat="41.872788" lon="3.121153">
        <ele>36.0</ele>
        <time>2019-01-14T03:11:16Z</time>
      </trkpt>
      <trkpt lat="41.872907" lon="3.121022">
        <ele>37.0</ele>
        <time>2019-01-14T03:11:18Z</time>
      </trkpt>
      <trkpt lat="41.873025" lon="3.120891">
        <ele>37.0</ele>
        <time>2019-01-14T03:11:21Z</time>
      </trkpt>
      <trkpt lat="41.873157" lon="3.120780">
        <ele>38.0</ele>
        <time>2019-01-14T03:11:23Z</time>
      </trkpt>
      <trkpt lat="41.873164" lon="3.120770">
        <ele>38.0</ele>
        <time>2019-01-14T03:11:24Z</time>
      </trkpt>
      <trkpt lat="41.873261" lon="3.120612">
        <ele>39.0</ele>
        <time>2019-01-14T03:11:26Z</time>
      </trkpt>
      <trkpt lat="41.873309" lon="3.120388">
        <ele>39.0</ele>
        <time>2019-01-14T03:11:29Z</time>
      </trkpt>
      <trkpt lat="41.873386" lon="3.120201">
        <ele>40.0</ele>
        <time>2019-01-14T03:11:31Z</time>
      </trkpt>
      <trkpt lat="41.873511" lon="3.120080">
        <ele>41.0</ele>
        <time>2019-01-14T03:11:34Z</time>
      </trkpt>
      <trkpt lat="41.873698" lon="3.120042">
        <ele>42.0</ele>
        <time>2019-01-14T03:11:37Z</time>
      </trkpt>
      <trkpt lat="41.873893" lon="3.120014">
        <ele>43.0</ele>
        <time>2019-01-14T03:11:40Z</time>
      </trkpt>
      <trkpt lat="41.874095" lon="3.120033">
        <ele>44.0</ele>
        <time>2019-01-14T03:11:43Z</time>
      </trkpt>
      <trkpt lat="41.874296" lon="3.120061">
        <ele>45.0</ele>
        <time>2019-01-14T03:11:46Z</time>
      </trkpt>
      <trkpt lat="41.874491" lon="3.120033">
        <ele>46.0</ele>
        <time>2019-01-14T03:11:50Z</time>
      </trkpt>
      <trkpt lat="41.874678" lon="3.119996">
        <ele>47.0</ele>
        <time>2019-01-14T03:11:53Z</time>
      </trkpt>
      <trkpt lat="41.874887" lon="3.120005">
        <ele>47.0</ele>
        <time>2019-01-14T03:11:56Z</time>
      </trkpt>
      <trkpt lat="41.875102" lon="3.120005">
        <ele>48.0</ele>
        <time>2019-01-14T03:11:59Z</time>
      </trkpt>
      <trkpt lat="41.875317" lon="3.119996">
        <ele>49.0</ele>
        <time>2019-01-14T03:12:03Z</time>
      </trkpt>
      <trkpt lat="41.875519" lon="3.120014">
        <ele>49.0</ele>
        <time>2019-01-14T03:12:06Z</time>
      </trkpt>
      <trkpt lat="41.875713" lon="3.120052">
        <ele>50.0</ele>
        <time>2019-01-14T03:12:09Z</time>
      </trkpt>
      <trkpt lat="41.875901" lon="3.120089">
        <ele>51.0</ele>
        <time>2019-01-14T03:12:12Z</time>
      </trkpt>
      <trkpt lat="41.876089" lon="3.120126">
        <ele>51.0</ele>
        <time>2019-01-14T03:12:15Z</time>
      </trkpt>
      <trkpt lat="41.876228" lon="3.120238">
        <ele>52.0</ele>
        <time>2019-01-14T03:12:18Z</time>
      </trkpt>
      <trkpt lat="41.876373" lon="3.120332">
        <ele>52.0</ele>
        <time>2019-01-14T03:12:20Z</time>
      </trkpt>
      <trkpt lat="41.876368" lon="3.120346">
        <ele>52.0</ele>
        <time>2019-01-14T03:12:21Z</time>
      </trkpt>
      <trkpt lat="41.876433" lon="3.120358">
        <ele>53.0</ele>
        <time>2019-01-14T03:12:22Z</time>
      </trkpt>
      <trkpt lat="41.876479" lon="3.120392">
        <ele>53.0</ele>
        <time>2019-01-14T03:12:23Z</time>
      </trkpt>
      <trkpt lat="41.876535" lon="3.120414">
        <ele>53.0</ele>
        <time>2019-01-14T03:12:23Z</time>
      </trkpt>
      <trkpt lat="41.876593" lon="3.120436">
        <ele>53.0</ele>
        <time>2019-01-14T03:12:24Z</time>
      </trkpt>
      <trkpt lat="41.876634" lon="3.120476">
        <ele>53.0</ele>
        <time>2019-01-14T03:12:25Z</time>
      </trkpt>
      <trkpt lat="41.876694" lon="3.120491">
        <ele>53.0</ele>
        <time>2019-01-14T03:12:26Z</time>
      </trkpt>
      <trkpt lat="41.876757" lon="3.120510">
        <ele>53.0</ele>
        <time>2019-01-14T03:12:27Z</time>
      </trkpt>
      <trkpt lat="41.876810" lon="3.120535">
        <ele>53.0</ele>
        <time>2019-01-14T03:12:28Z</time>
      </trkpt>
      <trkpt lat="41.876856" lon="3.120569">
        <ele>53.0</ele>
        <time>2019-01-14T03:12:29Z</time>
      </trkpt>
      <trkpt lat="41.876905" lon="3.120600">
        <ele>53.0</ele>
        <time>2019-01-14T03:12:30Z</time>
      </trkpt>
      <trkpt lat="41.876960" lon="3.120622">
        <ele>53.0</ele>
        <time>2019-01-14T03:12:31Z</time>
      </trkpt>
      <trkpt lat="41.877013" lon="3.120650">
        <ele>53.0</ele>
        <time>2019-01-14T03:12:32Z</time>
      </trkpt>
      <trkpt lat="41.877060" lon="3.120684">
        <ele>53.0</ele>
        <time>2019-01-14T03:12:33Z</time>
      </trkpt>
      <trkpt lat="41.877108" lon="3.120721">
        <ele>53.0</ele>
        <time>2019-01-14T03:12:33Z</time>
      </trkpt>
      <trkpt lat="41.877150" lon="3.120761">
        <ele>53.0</ele>
        <time>2019-01-14T03:12:34Z</time>
      </trkpt>
      <trkpt lat="41.877194" lon="3.120799">
        <ele>53.0</ele>
        <time>2019-01-14T03:12:35Z</time>
      </trkpt>
      <trkpt lat="41.877191" lon="3.120786">
        <ele>53.0</ele>
        <time>2019-01-14T03:12:35Z</time>
      </trkpt>
      <trkpt lat="41.877316" lon="3.120798">
        <ele>54.0</ele>
        <time>2019-01-14T03:12:37Z</time>
      </trkpt>
      <trkpt lat="41.877301" lon="3.120640">
        <ele>55.0</ele>
        <time>2019-01-14T03:12:39Z</time>
      </trkpt>
      <trkpt lat="41.877277" lon="3.120469">
        <ele>56.0</ele>
        <time>2019-01-14T03:12:41Z</time>
      </trkpt>
      <trkpt lat="41.877282" lon="3.120274">
        <ele>57.0</ele>
        <time>2019-01-14T03:12:44Z</time>
      </trkpt>
      <trkpt lat="41.877287" lon="3.120079">
        <ele>58.0</ele>
        <time>2019-01-14T03:12:46Z</time>
      </trkpt>
      <trkpt lat="41.877226" lon="3.119953">
        <ele>58.0</ele>
        <time>2019-01-14T03:12:48Z</time>
      </trkpt>
      <trkpt lat="41.877174" lon="3.119814">
        <ele>59.0</ele>
        <time>2019-01-14T03:12:50Z</time>
      </trkpt>
      <trkpt lat="41.877136" lon="3.119669">
        <ele>60.0</ele>
        <time>2019-01-14T03:12:51Z</time>
      </trkpt>
      <trkpt lat="41.877085" lon="3.119537">
        <ele>60.0</ele>
        <time>2019-01-14T03:12:53Z</time>
      </trkpt>
      <trkpt lat="41.877038" lon="3.119398">
        <ele>60.0</ele>
        <time>2019-01-14T03:12:55Z</time>
      </trkpt>
      <trkpt lat="41.877005" lon="3.119247">
        <ele>61.0</ele>
        <time>2019-01-14T03:12:57Z</time>
      </trkpt>
      <trkpt lat="41.876986" lon="3.119077">
        <ele>61.0</ele>
        <time>2019-01-14T03:12:59Z</time>
      </trkpt>
      <trkpt lat="41.876982" lon="3.118875">
        <ele>61.0</ele>
        <time>2019-01-14T03:13:01Z</time>
      </trkpt>
      <trkpt lat="41.876968" lon="3.118686">
        <ele>61.0</ele>
        <time>2019-01-14T03:13:04Z</time>
      </trkpt>
      <trkpt lat="41.876954" lon="3.118497">
        <ele>62.0</ele>
        <time>2019-01-14T03:13:06Z</time>
      </trkpt>
      <trkpt lat="41.876944" lon="3.118302">
        <ele>62.0</ele>
        <time>2019-01-14T03:13:08Z</time>
      </trkpt>
      <trkpt lat="41.876944" lon="3.118101">
        <ele>62.0</ele>
        <time>2019-01-14T03:13:11Z</time>
      </trkpt>
      <trkpt lat="41.876958" lon="3.117905">
        <ele>61.0</ele>
        <time>2019-01-14T03:13:13Z</time>
      </trkpt>
      <trkpt lat="41.876963" lon="3.117710">
        <ele>61.0</ele>
        <time>2019-01-14T03:13:15Z</time>
      </trkpt>
      <trkpt lat="41.876982" lon="3.117540">
        <ele>61.0</ele>
        <time>2019-01-14T03:13:17Z</time>
      </trkpt>
      <trkpt lat="41.876982" lon="3.117344">
        <ele>62.0</ele>
        <time>2019-01-14T03:13:20Z</time>
      </trkpt>
      <trkpt lat="41.876996" lon="3.117162">
        <ele>62.0</ele>
        <time>2019-01-14T03:13:22Z</time>
      </trkpt>
      <trkpt lat="41.877019" lon="3.116992">
        <ele>64.0</ele>
        <time>2019-01-14T03:13:24Z</time>
      </trkpt>
      <trkpt lat="41.877018" lon="3.116720">
        <ele>65.0</ele>
        <time>2019-01-14T03:13:27Z</time>
      </trkpt>
      <trkpt lat="41.876960" lon="3.116495">
        <ele>65.0</ele>
        <time>2019-01-14T03:13:30Z</time>
      </trkpt>
      <trkpt lat="41.876923" lon="3.116240">
        <ele>65.0</ele>
        <time>2019-01-14T03:13:33Z</time>
      </trkpt>
      <trkpt lat="41.876880" lon="3.115995">
        <ele>64.0</ele>
        <time>2019-01-14T03:13:36Z</time>
      </trkpt>
      <trkpt lat="41.876741" lon="3.115877">
        <ele>62.0</ele>
        <time>2019-01-14T03:13:39Z</time>
      </trkpt>
      <trkpt lat="41.876777" lon="3.115622">
        <ele>63.0</ele>
        <time>2019-01-14T03:13:42Z</time>
      </trkpt>
      <trkpt lat="41.876982" lon="3.115583">
        <ele>65.0</ele>
        <time>2019-01-14T03:13:45Z</time>
      </trkpt>
      <trkpt lat="41.877179" lon="3.115534">
        <ele>67.0</ele>
        <time>2019-01-14T03:13:48Z</time>
      </trkpt>
      <trkpt lat="41.877347" lon="3.115446">
        <ele>69.0</ele>
        <time>2019-01-14T03:13:51Z</time>
      </trkpt>
      <trkpt lat="41.877434" lon="3.115260">
        <ele>69.0</ele>
        <time>2019-01-14T03:13:54Z</time>
      </trkpt>
      <trkpt lat="41.877500" lon="3.115034">
        <ele>69.0</ele>
        <time>2019-01-14T03:13:57Z</time>
      </trkpt>
      <trkpt lat="41.877609" lon="3.114868">
        <ele>69.0</ele>
        <time>2019-01-14T03:13:59Z</time>
      </trkpt>
      <trkpt lat="41.877712" lon="3.114691">
        <ele>69.0</ele>
        <time>2019-01-14T03:14:02Z</time>
      </trkpt>
      <trkpt lat="41.877821" lon="3.114525">
        <ele>69.0</ele>
        <time>2019-01-14T03:14:05Z</time>
      </trkpt>
      <trkpt lat="41.877850" lon="3.114260">
        <ele>69.0</ele>
        <time>2019-01-14T03:14:08Z</time>
      </trkpt>
      <trkpt lat="41.877872" lon="3.113986">
        <ele>69.0</ele>
        <time>2019-01-14T03:14:11Z</time>
      </trkpt>
      <trkpt lat="41.877931" lon="3.113760">
        <ele>69.0</ele>
        <time>2019-01-14T03:14:14Z</time>
      </trkpt>
      <trkpt lat="41.878011" lon="3.113554">
        <ele>69.0</ele>
        <time>2019-01-14T03:14:17Z</time>
      </trkpt>
      <trkpt lat="41.878106" lon="3.113378">
        <ele>69.0</ele>
        <time>2019-01-14T03:14:19Z</time>
      </trkpt>
      <trkpt lat="41.878244" lon="3.113260">
        <ele>69.0</ele>
        <time>2019-01-14T03:14:22Z</time>
      </trkpt>
      <trkpt lat="41.878376" lon="3.113123">
        <ele>69.0</ele>
        <time>2019-01-14T03:14:25Z</time>
      </trkpt>
      <trkpt lat="41.878478" lon="3.112957">
        <ele>69.0</ele>
        <time>2019-01-14T03:14:27Z</time>
      </trkpt>
      <trkpt lat="41.878551" lon="3.112751">
        <ele>69.0</ele>
        <time>2019-01-14T03:14:30Z</time>
      </trkpt>
      <trkpt lat="41.878638" lon="3.112565">
        <ele>69.0</ele>
        <time>2019-01-14T03:14:33Z</time>
      </trkpt>
      <trkpt lat="41.878770" lon="3.112437">
        <ele>68.0</ele>
        <time>2019-01-14T03:14:35Z</time>
      </trkpt>
      <trkpt lat="41.878974" lon="3.112408">
        <ele>68.0</ele>
        <time>2019-01-14T03:14:38Z</time>
      </trkpt>
      <trkpt lat="41.879186" lon="3.112427">
        <ele>68.0</ele>
        <time>2019-01-14T03:14:42Z</time>
      </trkpt>
      <trkpt lat="41.879346" lon="3.112515">
        <ele>68.0</ele>
        <time>2019-01-14T03:14:45Z</time>
      </trkpt>
      <trkpt lat="41.879536" lon="3.112467">
        <ele>68.0</ele>
        <time>2019-01-14T03:14:48Z</time>
      </trkpt>
      <trkpt lat="41.879580" lon="3.112221">
        <ele>69.0</ele>
        <time>2019-01-14T03:14:51Z</time>
      </trkpt>
      <trkpt lat="41.879573" lon="3.111927">
        <ele>71.0</ele>
        <time>2019-01-14T03:14:54Z</time>
      </trkpt>
      <trkpt lat="41.879587" lon="3.111643">
        <ele>72.0</ele>
        <time>2019-01-14T03:14:58Z</time>
      </trkpt>
      <trkpt lat="41.879595" lon="3.111466">
        <ele>74.0</ele>
        <time>2019-01-14T03:15:00Z</time>
      </trkpt>
      <trkpt lat="41.879605" lon="3.111284">
        <ele>75.0</ele>
        <time>2019-01-14T03:15:02Z</time>
      </trkpt>
      <trkpt lat="41.879581" lon="3.111109">
        <ele>76.0</ele>
        <time>2019-01-14T03:15:04Z</time>
      </trkpt>
      <trkpt lat="41.879535" lon="3.110978">
        <ele>77.0</ele>
        <time>2019-01-14T03:15:06Z</time>
      </trkpt>
      <trkpt lat="41.879460" lon="3.110878">
        <ele>79.0</ele>
        <time>2019-01-14T03:15:07Z</time>
      </trkpt>
      <trkpt lat="41.879414" lon="3.110734">
        <ele>80.0</ele>
        <time>2019-01-14T03:15:09Z</time>
      </trkpt>
      <trkpt lat="41.879400" lon="3.110559">
        <ele>82.0</ele>
        <time>2019-01-14T03:15:11Z</time>
      </trkpt>
      <trkpt lat="41.879423" lon="3.110390">
        <ele>84.0</ele>
        <time>2019-01-14T03:15:13Z</time>
      </trkpt>
      <trkpt lat="41.879484" lon="3.110265">
        <ele>85.0</ele>
        <time>2019-01-14T03:15:15Z</time>
      </trkpt>
      <trkpt lat="41.879516" lon="3.110115">
        <ele>87.0</ele>
        <time>2019-01-14T03:15:17Z</time>
      </trkpt>
      <trkpt lat="41.879581" lon="3.110003">
        <ele>88.0</ele>
        <time>2019-01-14T03:15:19Z</time>
      </trkpt>
      <trkpt lat="41.879651" lon="3.109903">
        <ele>89.0</ele>
        <time>2019-01-14T03:15:20Z</time>
      </trkpt>
      <trkpt lat="41.879693" lon="3.109765">
        <ele>90.0</ele>
        <time>2019-01-14T03:15:22Z</time>
      </trkpt>
      <trkpt lat="41.879744" lon="3.109640">
        <ele>90.0</ele>
        <time>2019-01-14T03:15:24Z</time>
      </trkpt>
      <trkpt lat="41.879870" lon="3.109615">
        <ele>91.0</ele>
        <time>2019-01-14T03:15:26Z</time>
      </trkpt>
      <trkpt lat="41.880005" lon="3.109628">
        <ele>92.0</ele>
        <time>2019-01-14T03:15:28Z</time>
      </trkpt>
      <trkpt lat="41.880135" lon="3.109609">
        <ele>92.0</ele>
        <time>2019-01-14T03:15:30Z</time>
      </trkpt>
      <trkpt lat="41.880252" lon="3.109571">
        <ele>93.0</ele>
        <time>2019-01-14T03:15:32Z</time>
      </trkpt>
      <trkpt lat="41.880349" lon="3.109503">
        <ele>94.0</ele>
        <time>2019-01-14T03:15:34Z</time>
      </trkpt>
      <trkpt lat="41.880475" lon="3.109478">
        <ele>94.0</ele>
        <time>2019-01-14T03:15:36Z</time>
      </trkpt>
      <trkpt lat="41.880582" lon="3.109540">
        <ele>94.0</ele>
        <time>2019-01-14T03:15:38Z</time>
      </trkpt>
      <trkpt lat="41.880694" lon="3.109584">
        <ele>95.0</ele>
        <time>2019-01-14T03:15:40Z</time>
      </trkpt>
      <trkpt lat="41.880824" lon="3.109609">
        <ele>95.0</ele>
        <time>2019-01-14T03:15:42Z</time>
      </trkpt>
      <trkpt lat="41.880959" lon="3.109621">
        <ele>95.0</ele>
        <time>2019-01-14T03:15:44Z</time>
      </trkpt>
      <trkpt lat="41.881080" lon="3.109590">
        <ele>95.0</ele>
        <time>2019-01-14T03:15:46Z</time>
      </trkpt>
      <trkpt lat="41.881224" lon="3.109584">
        <ele>96.0</ele>
        <time>2019-01-14T03:15:48Z</time>
      </trkpt>
      <trkpt lat="41.881322" lon="3.109515">
        <ele>96.0</ele>
        <time>2019-01-14T03:15:50Z</time>
      </trkpt>
      <trkpt lat="41.881406" lon="3.109434">
        <ele>95.0</ele>
        <time>2019-01-14T03:15:52Z</time>
      </trkpt>
    </trkseg>
  </trk>
</gpx>
